<?xml version="1.0" encoding="UTF-8" standalone="no" ?>
<gpx xmlns="http://www.topografix.com/GPX/1/1" xmlns:xsi="http://www.w3.org/2001/XMLSchema-instance" xsi:schemaLocation="http://www.topografix.com/GPX/1/1 http://www.topografix.com/GPX/1/1/gpx.xsd" version="1.1" creator="VisuGPX - https://www.visugpx.com">
  <metadata>
    <name>Projet vacances toussaint</name>
  </metadata>
  <trk>
    <name><![CDATA[landresse songeson]]></name>
    <extensions>
      <line xmlns="http://www.topografix.com/GPX/gpx_style/0/2">
        <color>ff00e4</color>
        <width>4</width>
      </line>
    </extensions>
    <trkseg>
      <trkpt lat="47.25786" lon="6.46828">
        <ele>566.886474</ele>
        <time>2020-10-11T06:31:20.097Z</time>
      </trkpt>
      <trkpt lat="47.25746" lon="6.46888">
        <ele>566.886474</ele>
        <time>2020-10-11T06:31:30.909Z</time>
      </trkpt>
      <trkpt lat="47.25688" lon="6.46912">
        <ele>566.603943</ele>
        <time>2020-10-11T06:31:41.588Z</time>
      </trkpt>
      <trkpt lat="47.25685" lon="6.469">
        <ele>566.512634</ele>
        <time>2020-10-11T06:31:43.200Z</time>
      </trkpt>
      <trkpt lat="47.25664" lon="6.46842">
        <ele>566.059955</ele>
        <time>2020-10-11T06:31:50.771Z</time>
      </trkpt>
      <trkpt lat="47.25643" lon="6.46738">
        <ele>565.311431</ele>
        <time>2020-10-11T06:32:03.142Z</time>
      </trkpt>
      <trkpt lat="47.25642" lon="6.46733">
        <ele>565.269844</ele>
        <time>2020-10-11T06:32:03.723Z</time>
      </trkpt>
      <trkpt lat="47.25641" lon="6.46725">
        <ele>565.214778</ele>
        <time>2020-10-11T06:32:04.674Z</time>
      </trkpt>
      <trkpt lat="47.25628" lon="6.46633">
        <ele>564.698401</ele>
        <time>2020-10-11T06:32:15.592Z</time>
      </trkpt>
      <trkpt lat="47.25611" lon="6.46559">
        <ele>564.298529</ele>
        <time>2020-10-11T06:32:24.975Z</time>
      </trkpt>
      <trkpt lat="47.25606" lon="6.46538">
        <ele>564.18847</ele>
        <time>2020-10-11T06:32:27.768Z</time>
      </trkpt>
      <trkpt lat="47.25593" lon="6.46469">
        <ele>563.822987</ele>
        <time>2020-10-11T06:32:36.595Z</time>
      </trkpt>
      <trkpt lat="47.25585" lon="6.46426">
        <ele>563.674603</ele>
        <time>2020-10-11T06:32:42.252Z</time>
      </trkpt>
      <trkpt lat="47.25542" lon="6.4632">
        <ele>563.474068</ele>
        <time>2020-10-11T06:32:58.824Z</time>
      </trkpt>
      <trkpt lat="47.25534" lon="6.46293">
        <ele>563.427983</ele>
        <time>2020-10-11T06:33:02.542Z</time>
      </trkpt>
      <trkpt lat="47.25543" lon="6.46144">
        <ele>563.493725</ele>
        <time>2020-10-11T06:33:23.220Z</time>
      </trkpt>
      <trkpt lat="47.25534" lon="6.46073">
        <ele>563.749433</ele>
        <time>2020-10-11T06:33:34.299Z</time>
      </trkpt>
      <trkpt lat="47.25517" lon="6.45996">
        <ele>564.033864</ele>
        <time>2020-10-11T06:33:47.559Z</time>
      </trkpt>
      <trkpt lat="47.25487" lon="6.4593">
        <ele>564.449165</ele>
        <time>2020-10-11T06:34:02.690Z</time>
      </trkpt>
      <trkpt lat="47.25414" lon="6.45844">
        <ele>565.596242</ele>
        <time>2020-10-11T06:34:28.683Z</time>
      </trkpt>
      <trkpt lat="47.25406" lon="6.45835">
        <ele>565.718444</ele>
        <time>2020-10-11T06:34:31.799Z</time>
      </trkpt>
      <trkpt lat="47.25372" lon="6.45799">
        <ele>566.23795</ele>
        <time>2020-10-11T06:34:43.527Z</time>
      </trkpt>
      <trkpt lat="47.25344" lon="6.45743">
        <ele>566.818257</ele>
        <time>2020-10-11T06:34:56.269Z</time>
      </trkpt>
      <trkpt lat="47.25298" lon="6.45504">
        <ele>569.048366</ele>
        <time>2020-10-11T06:35:42.521Z</time>
      </trkpt>
      <trkpt lat="47.25284" lon="6.45365">
        <ele>570.946411</ele>
        <time>2020-10-11T06:36:12.153Z</time>
      </trkpt>
      <trkpt lat="47.25289" lon="6.45321">
        <ele>571.563449</ele>
        <time>2020-10-11T06:36:22.622Z</time>
      </trkpt>
      <trkpt lat="47.25305" lon="6.45278">
        <ele>572.222297</ele>
        <time>2020-10-11T06:36:34.244Z</time>
      </trkpt>
      <trkpt lat="47.25298" lon="6.45256">
        <ele>572.712167</ele>
        <time>2020-10-11T06:36:40.100Z</time>
      </trkpt>
      <trkpt lat="47.25281" lon="6.45248">
        <ele>573.271123</ele>
        <time>2020-10-11T06:36:46.709Z</time>
      </trkpt>
      <trkpt lat="47.2515" lon="6.45285">
        <ele>577.352053</ele>
        <time>2020-10-11T06:37:36.983Z</time>
      </trkpt>
      <trkpt lat="47.25118" lon="6.45268">
        <ele>578.737428</ele>
        <time>2020-10-11T06:37:50.811Z</time>
      </trkpt>
      <trkpt lat="47.2506" lon="6.45217">
        <ele>581.978553</ele>
        <time>2020-10-11T06:38:20.820Z</time>
      </trkpt>
      <trkpt lat="47.25038" lon="6.45161">
        <ele>584.054077</ele>
        <time>2020-10-11T06:38:42.083Z</time>
      </trkpt>
      <trkpt lat="47.25021" lon="6.45064">
        <ele>587.777428</ele>
        <time>2020-10-11T06:39:19.045Z</time>
      </trkpt>
      <trkpt lat="47.24982" lon="6.45051">
        <ele>590.556493</ele>
        <time>2020-10-11T06:39:42.179Z</time>
      </trkpt>
      <trkpt lat="47.24891" lon="6.45061">
        <ele>596.929544</ele>
        <time>2020-10-11T06:40:38.246Z</time>
      </trkpt>
      <trkpt lat="47.24782" lon="6.45025">
        <ele>605.364194</ele>
        <time>2020-10-11T06:41:49.221Z</time>
      </trkpt>
      <trkpt lat="47.24703" lon="6.4503">
        <ele>611.493387</ele>
        <time>2020-10-11T06:42:42.064Z</time>
      </trkpt>
      <trkpt lat="47.24678" lon="6.45025">
        <ele>613.375246</ele>
        <time>2020-10-11T06:42:58.432Z</time>
      </trkpt>
      <trkpt lat="47.24599" lon="6.45001">
        <ele>618.404254</ele>
        <time>2020-10-11T06:43:47.498Z</time>
      </trkpt>
      <trkpt lat="47.24558" lon="6.44985">
        <ele>621.029714</ele>
        <time>2020-10-11T06:44:10.961Z</time>
      </trkpt>
      <trkpt lat="47.24506" lon="6.44939">
        <ele>624.297009</ele>
        <time>2020-10-11T06:44:40.458Z</time>
      </trkpt>
      <trkpt lat="47.24452" lon="6.44904">
        <ele>625.397971</ele>
        <time>2020-10-11T06:45:02.301Z</time>
      </trkpt>
      <trkpt lat="47.24369" lon="6.4486">
        <ele>627.035462</ele>
        <time>2020-10-11T06:45:23.952Z</time>
      </trkpt>
      <trkpt lat="47.24365" lon="6.44858">
        <ele>627.120794</ele>
        <time>2020-10-11T06:45:25.130Z</time>
      </trkpt>
      <trkpt lat="47.24354" lon="6.44844">
        <ele>627.390308</ele>
        <time>2020-10-11T06:45:28.496Z</time>
      </trkpt>
      <trkpt lat="47.2434" lon="6.44824">
        <ele>627.565334</ele>
        <time>2020-10-11T06:45:32.754Z</time>
      </trkpt>
      <trkpt lat="47.24321" lon="6.44802">
        <ele>627.759178</ele>
        <time>2020-10-11T06:45:38.052Z</time>
      </trkpt>
      <trkpt lat="47.24295" lon="6.44777">
        <ele>628.008162</ele>
        <time>2020-10-11T06:45:44.889Z</time>
      </trkpt>
      <trkpt lat="47.24286" lon="6.4477">
        <ele>628.089401</ele>
        <time>2020-10-11T06:45:47.162Z</time>
      </trkpt>
      <trkpt lat="47.24257" lon="6.44748">
        <ele>628.350883</ele>
        <time>2020-10-11T06:45:55.009Z</time>
      </trkpt>
      <trkpt lat="47.24208" lon="6.44721">
        <ele>628.769988</ele>
        <time>2020-10-11T06:46:09.211Z</time>
      </trkpt>
      <trkpt lat="47.24124" lon="6.44704">
        <ele>630.114624</ele>
        <time>2020-10-11T06:46:35.682Z</time>
      </trkpt>
      <trkpt lat="47.24096" lon="6.44686">
        <ele>630.644051</ele>
        <time>2020-10-11T06:46:45.966Z</time>
      </trkpt>
      <trkpt lat="47.24047" lon="6.44639">
        <ele>631.635335</ele>
        <time>2020-10-11T06:47:03.295Z</time>
      </trkpt>
      <trkpt lat="47.24037" lon="6.44634">
        <ele>631.821029</ele>
        <time>2020-10-11T06:47:07.161Z</time>
      </trkpt>
      <trkpt lat="47.23992" lon="6.44608">
        <ele>632.385648</ele>
        <time>2020-10-11T06:47:20.664Z</time>
      </trkpt>
      <trkpt lat="47.23927" lon="6.44546">
        <ele>633.201416</ele>
        <time>2020-10-11T06:47:40.768Z</time>
      </trkpt>
      <trkpt lat="47.23904" lon="6.44532">
        <ele>633.459454</ele>
        <time>2020-10-11T06:47:47.208Z</time>
      </trkpt>
      <trkpt lat="47.23778" lon="6.44475">
        <ele>634.522793</ele>
        <time>2020-10-11T06:48:20.114Z</time>
      </trkpt>
      <trkpt lat="47.23712" lon="6.44436">
        <ele>635.02253</ele>
        <time>2020-10-11T06:48:38.089Z</time>
      </trkpt>
      <trkpt lat="47.23551" lon="6.44326">
        <ele>635.780256</ele>
        <time>2020-10-11T06:49:19.106Z</time>
      </trkpt>
      <trkpt lat="47.2336" lon="6.44139">
        <ele>636.16178</ele>
        <time>2020-10-11T06:50:07.444Z</time>
      </trkpt>
      <trkpt lat="47.23341" lon="6.44126">
        <ele>636.256707</ele>
        <time>2020-10-11T06:50:12.101Z</time>
      </trkpt>
      <trkpt lat="47.23295" lon="6.44094">
        <ele>636.485653</ele>
        <time>2020-10-11T06:50:23.798Z</time>
      </trkpt>
      <trkpt lat="47.23273" lon="6.44081">
        <ele>636.591222</ele>
        <time>2020-10-11T06:50:29.406Z</time>
      </trkpt>
      <trkpt lat="47.23249" lon="6.44078">
        <ele>636.697148</ele>
        <time>2020-10-11T06:50:35.206Z</time>
      </trkpt>
      <trkpt lat="47.23156" lon="6.44086">
        <ele>637.845923</ele>
        <time>2020-10-11T06:50:59.406Z</time>
      </trkpt>
      <trkpt lat="47.23072" lon="6.44074">
        <ele>639.16679</ele>
        <time>2020-10-11T06:51:24.359Z</time>
      </trkpt>
      <trkpt lat="47.22981" lon="6.44017">
        <ele>641.385948</ele>
        <time>2020-10-11T06:52:00.030Z</time>
      </trkpt>
      <trkpt lat="47.22952" lon="6.4401">
        <ele>642.139116</ele>
        <time>2020-10-11T06:52:10.787Z</time>
      </trkpt>
      <trkpt lat="47.22929" lon="6.44003">
        <ele>642.737842</ele>
        <time>2020-10-11T06:52:19.246Z</time>
      </trkpt>
      <trkpt lat="47.22911" lon="6.43994">
        <ele>643.210602</ele>
        <time>2020-10-11T06:52:25.756Z</time>
      </trkpt>
      <trkpt lat="47.22873" lon="6.43978">
        <ele>644.201389</ele>
        <time>2020-10-11T06:52:39.221Z</time>
      </trkpt>
      <trkpt lat="47.22846" lon="6.43973">
        <ele>644.478859</ele>
        <time>2020-10-11T06:52:48.088Z</time>
      </trkpt>
      <trkpt lat="47.22837" lon="6.43972">
        <ele>644.572359</ele>
        <time>2020-10-11T06:52:51.099Z</time>
      </trkpt>
      <trkpt lat="47.22826" lon="6.43969">
        <ele>644.683135</ele>
        <time>2020-10-11T06:52:54.510Z</time>
      </trkpt>
      <trkpt lat="47.22784" lon="6.43938">
        <ele>645.162913</ele>
        <time>2020-10-11T06:53:08.633Z</time>
      </trkpt>
      <trkpt lat="47.22778" lon="6.43937">
        <ele>645.229977</ele>
        <time>2020-10-11T06:53:10.515Z</time>
      </trkpt>
      <trkpt lat="47.22749" lon="6.43972">
        <ele>645.60847</ele>
        <time>2020-10-11T06:53:19.662Z</time>
      </trkpt>
      <trkpt lat="47.22729" lon="6.43997">
        <ele>645.876448</ele>
        <time>2020-10-11T06:53:24.968Z</time>
      </trkpt>
      <trkpt lat="47.22705" lon="6.44025">
        <ele>645.635668</ele>
        <time>2020-10-11T06:53:31.125Z</time>
      </trkpt>
      <trkpt lat="47.22647" lon="6.44089">
        <ele>643.877556</ele>
        <time>2020-10-11T06:53:42.516Z</time>
      </trkpt>
      <trkpt lat="47.22626" lon="6.44115">
        <ele>643.224196</ele>
        <time>2020-10-11T06:53:46.318Z</time>
      </trkpt>
      <trkpt lat="47.22619" lon="6.44129">
        <ele>642.92748</ele>
        <time>2020-10-11T06:53:48.048Z</time>
      </trkpt>
      <trkpt lat="47.22615" lon="6.44141">
        <ele>642.7059</ele>
        <time>2020-10-11T06:53:49.302Z</time>
      </trkpt>
      <trkpt lat="47.22608" lon="6.44178">
        <ele>642.083102</ele>
        <time>2020-10-11T06:53:52.831Z</time>
      </trkpt>
      <trkpt lat="47.22602" lon="6.44185">
        <ele>641.893791</ele>
        <time>2020-10-11T06:53:53.879Z</time>
      </trkpt>
      <trkpt lat="47.22543" lon="6.44206">
        <ele>640.492472</ele>
        <time>2020-10-11T06:54:02.296Z</time>
      </trkpt>
      <trkpt lat="47.22523" lon="6.44213">
        <ele>640.031131</ele>
        <time>2020-10-11T06:54:05.035Z</time>
      </trkpt>
      <trkpt lat="47.22505" lon="6.44225">
        <ele>639.577525</ele>
        <time>2020-10-11T06:54:07.970Z</time>
      </trkpt>
      <trkpt lat="47.22463" lon="6.44259">
        <ele>638.490153</ele>
        <time>2020-10-11T06:54:15.190Z</time>
      </trkpt>
      <trkpt lat="47.22451" lon="6.44266">
        <ele>638.183992</ele>
        <time>2020-10-11T06:54:17.316Z</time>
      </trkpt>
      <trkpt lat="47.22436" lon="6.44273">
        <ele>637.82798</ele>
        <time>2020-10-11T06:54:20.369Z</time>
      </trkpt>
      <trkpt lat="47.22384" lon="6.44273">
        <ele>638.513707</ele>
        <time>2020-10-11T06:54:31.489Z</time>
      </trkpt>
      <trkpt lat="47.22357" lon="6.44262">
        <ele>639.192386</ele>
        <time>2020-10-11T06:54:41.372Z</time>
      </trkpt>
      <trkpt lat="47.22333" lon="6.44254">
        <ele>639.784946</ele>
        <time>2020-10-11T06:54:51.252Z</time>
      </trkpt>
      <trkpt lat="47.22026" lon="6.44223">
        <ele>648.677667</ele>
        <time>2020-10-11T06:56:57.781Z</time>
      </trkpt>
      <trkpt lat="47.21804" lon="6.44166">
        <ele>649.550729</ele>
        <time>2020-10-11T06:57:48.540Z</time>
      </trkpt>
      <trkpt lat="47.21685" lon="6.44065">
        <ele>648.248347</ele>
        <time>2020-10-11T06:58:09.696Z</time>
      </trkpt>
      <trkpt lat="47.2163" lon="6.43991">
        <ele>647.491615</ele>
        <time>2020-10-11T06:58:21.194Z</time>
      </trkpt>
      <trkpt lat="47.21534" lon="6.43905">
        <ele>647.78929</ele>
        <time>2020-10-11T06:58:48.911Z</time>
      </trkpt>
      <trkpt lat="47.21459" lon="6.43838">
        <ele>649.369694</ele>
        <time>2020-10-11T06:59:18.745Z</time>
      </trkpt>
      <trkpt lat="47.21416" lon="6.43819">
        <ele>650.169408</ele>
        <time>2020-10-11T06:59:35.402Z</time>
      </trkpt>
      <trkpt lat="47.21208" lon="6.43799">
        <ele>652.178362</ele>
        <time>2020-10-11T07:00:34.961Z</time>
      </trkpt>
      <trkpt lat="47.21089" lon="6.43801">
        <ele>650.421906</ele>
        <time>2020-10-11T07:00:53.437Z</time>
      </trkpt>
      <trkpt lat="47.20975" lon="6.43774">
        <ele>647.086363</ele>
        <time>2020-10-11T07:01:09.432Z</time>
      </trkpt>
      <trkpt lat="47.20881" lon="6.43732">
        <ele>643.833624</ele>
        <time>2020-10-11T07:01:23.107Z</time>
      </trkpt>
      <trkpt lat="47.20776" lon="6.43643">
        <ele>641.531854</ele>
        <time>2020-10-11T07:01:41.604Z</time>
      </trkpt>
      <trkpt lat="47.20755" lon="6.43625">
        <ele>641.084918</ele>
        <time>2020-10-11T07:01:45.644Z</time>
      </trkpt>
      <trkpt lat="47.20669" lon="6.43549">
        <ele>640.042271</ele>
        <time>2020-10-11T07:02:03.945Z</time>
      </trkpt>
      <trkpt lat="47.20496" lon="6.43485">
        <ele>638.586834</ele>
        <time>2020-10-11T07:02:36.177Z</time>
      </trkpt>
      <trkpt lat="47.20452" lon="6.43464">
        <ele>638.097209</ele>
        <time>2020-10-11T07:02:43.530Z</time>
      </trkpt>
      <trkpt lat="47.20447" lon="6.43459">
        <ele>638.034318</ele>
        <time>2020-10-11T07:02:44.544Z</time>
      </trkpt>
      <trkpt lat="47.20372" lon="6.43386">
        <ele>637.581867</ele>
        <time>2020-10-11T07:02:59.789Z</time>
      </trkpt>
      <trkpt lat="47.20341" lon="6.4333">
        <ele>637.815794</ele>
        <time>2020-10-11T07:03:09.052Z</time>
      </trkpt>
      <trkpt lat="47.20262" lon="6.43216">
        <ele>638.630988</ele>
        <time>2020-10-11T07:03:39.976Z</time>
      </trkpt>
      <trkpt lat="47.20229" lon="6.43187">
        <ele>639.756988</ele>
        <time>2020-10-11T07:03:52.741Z</time>
      </trkpt>
      <trkpt lat="47.20224" lon="6.43186">
        <ele>639.889487</ele>
        <time>2020-10-11T07:03:55.483Z</time>
      </trkpt>
      <trkpt lat="47.20199" lon="6.4318">
        <ele>640.629206</ele>
        <time>2020-10-11T07:04:04.414Z</time>
      </trkpt>
      <trkpt lat="47.20183" lon="6.43183">
        <ele>641.092077</ele>
        <time>2020-10-11T07:04:10.933Z</time>
      </trkpt>
      <trkpt lat="47.20176" lon="6.43184">
        <ele>641.311942</ele>
        <time>2020-10-11T07:04:13.481Z</time>
      </trkpt>
      <trkpt lat="47.20141" lon="6.4319">
        <ele>642.316906</ele>
        <time>2020-10-11T07:04:27.066Z</time>
      </trkpt>
      <trkpt lat="47.20138" lon="6.4319">
        <ele>642.4077</ele>
        <time>2020-10-11T07:04:28.192Z</time>
      </trkpt>
      <trkpt lat="47.20118" lon="6.43191">
        <ele>642.984379</ele>
        <time>2020-10-11T07:04:36.476Z</time>
      </trkpt>
      <trkpt lat="47.20086" lon="6.43176">
        <ele>644.205883</ele>
        <time>2020-10-11T07:04:50.220Z</time>
      </trkpt>
      <trkpt lat="47.2008" lon="6.43172">
        <ele>644.470948</ele>
        <time>2020-10-11T07:04:53.596Z</time>
      </trkpt>
      <trkpt lat="47.20063" lon="6.43156">
        <ele>645.37369</ele>
        <time>2020-10-11T07:05:02.224Z</time>
      </trkpt>
      <trkpt lat="47.20044" lon="6.43122">
        <ele>646.641451</ele>
        <time>2020-10-11T07:05:14.563Z</time>
      </trkpt>
      <trkpt lat="47.20037" lon="6.43101">
        <ele>647.332669</ele>
        <time>2020-10-11T07:05:21.458Z</time>
      </trkpt>
      <trkpt lat="47.20028" lon="6.4306">
        <ele>648.599009</ele>
        <time>2020-10-11T07:05:35.102Z</time>
      </trkpt>
      <trkpt lat="47.20021" lon="6.4303">
        <ele>649.551212</ele>
        <time>2020-10-11T07:05:45.514Z</time>
      </trkpt>
      <trkpt lat="47.20007" lon="6.43007">
        <ele>650.433087</ele>
        <time>2020-10-11T07:05:55.521Z</time>
      </trkpt>
      <trkpt lat="47.19982" lon="6.42977">
        <ele>651.84446</ele>
        <time>2020-10-11T07:06:11.325Z</time>
      </trkpt>
      <trkpt lat="47.19937" lon="6.42926">
        <ele>654.467415</ele>
        <time>2020-10-11T07:06:39.050Z</time>
      </trkpt>
      <trkpt lat="47.19917" lon="6.42909">
        <ele>655.518854</ele>
        <time>2020-10-11T07:06:50.350Z</time>
      </trkpt>
      <trkpt lat="47.19884" lon="6.4289">
        <ele>657.176383</ele>
        <time>2020-10-11T07:07:07.270Z</time>
      </trkpt>
      <trkpt lat="47.19857" lon="6.42887">
        <ele>658.386909</ele>
        <time>2020-10-11T07:07:19.216Z</time>
      </trkpt>
      <trkpt lat="47.19822" lon="6.42893">
        <ele>659.847613</ele>
        <time>2020-10-11T07:07:34.780Z</time>
      </trkpt>
      <trkpt lat="47.19739" lon="6.42932">
        <ele>662.247557</ele>
        <time>2020-10-11T07:08:08.076Z</time>
      </trkpt>
      <trkpt lat="47.19706" lon="6.42928">
        <ele>663.188752</ele>
        <time>2020-10-11T07:08:19.883Z</time>
      </trkpt>
      <trkpt lat="47.19565" lon="6.42818">
        <ele>666.205001</ele>
        <time>2020-10-11T07:09:07.874Z</time>
      </trkpt>
      <trkpt lat="47.19507" lon="6.42778">
        <ele>667.160933</ele>
        <time>2020-10-11T07:09:24.895Z</time>
      </trkpt>
      <trkpt lat="47.19364" lon="6.42703">
        <ele>669.7035</ele>
        <time>2020-10-11T07:10:08.683Z</time>
      </trkpt>
      <trkpt lat="47.19291" lon="6.42634">
        <ele>671.767062</ele>
        <time>2020-10-11T07:10:39.034Z</time>
      </trkpt>
      <trkpt lat="47.19153" lon="6.42549">
        <ele>675.941514</ele>
        <time>2020-10-11T07:11:35.787Z</time>
      </trkpt>
      <trkpt lat="47.19117" lon="6.42502">
        <ele>677.178712</ele>
        <time>2020-10-11T07:11:53.316Z</time>
      </trkpt>
      <trkpt lat="47.19083" lon="6.42386">
        <ele>679.390931</ele>
        <time>2020-10-11T07:12:22.821Z</time>
      </trkpt>
      <trkpt lat="47.19048" lon="6.4235">
        <ele>680.45782</ele>
        <time>2020-10-11T07:12:36.540Z</time>
      </trkpt>
      <trkpt lat="47.18873" lon="6.42253">
        <ele>685.13229</ele>
        <time>2020-10-11T07:13:40.551Z</time>
      </trkpt>
      <trkpt lat="47.18855" lon="6.42248">
        <ele>685.666922</ele>
        <time>2020-10-11T07:13:47.812Z</time>
      </trkpt>
      <trkpt lat="47.18828" lon="6.42249">
        <ele>686.433143</ele>
        <time>2020-10-11T07:13:58.409Z</time>
      </trkpt>
      <trkpt lat="47.18772" lon="6.42273">
        <ele>688.130506</ele>
        <time>2020-10-11T07:14:23.824Z</time>
      </trkpt>
      <trkpt lat="47.18701" lon="6.4226">
        <ele>689.418144</ele>
        <time>2020-10-11T07:14:47.730Z</time>
      </trkpt>
      <trkpt lat="47.18674" lon="6.42264">
        <ele>689.255776</ele>
        <time>2020-10-11T07:14:53.555Z</time>
      </trkpt>
      <trkpt lat="47.18662" lon="6.42278">
        <ele>689.159791</ele>
        <time>2020-10-11T07:14:59.561Z</time>
      </trkpt>
      <trkpt lat="47.18649" lon="6.4227">
        <ele>689.07646</ele>
        <time>2020-10-11T07:15:01.541Z</time>
      </trkpt>
      <trkpt lat="47.18605" lon="6.42247">
        <ele>688.793502</ele>
        <time>2020-10-11T07:15:09.726Z</time>
      </trkpt>
      <trkpt lat="47.18598" lon="6.42228">
        <ele>688.702526</ele>
        <time>2020-10-11T07:15:12.412Z</time>
      </trkpt>
      <trkpt lat="47.18596" lon="6.42194">
        <ele>688.563031</ele>
        <time>2020-10-11T07:15:15.758Z</time>
      </trkpt>
      <trkpt lat="47.18602" lon="6.42131">
        <ele>687.453575</ele>
        <time>2020-10-11T07:15:22.065Z</time>
      </trkpt>
      <trkpt lat="47.18594" lon="6.42068">
        <ele>685.808497</ele>
        <time>2020-10-11T07:15:27.801Z</time>
      </trkpt>
      <trkpt lat="47.1848" lon="6.417">
        <ele>676.030621</ele>
        <time>2020-10-11T07:16:05.876Z</time>
      </trkpt>
      <trkpt lat="47.18469" lon="6.41634">
        <ele>675.030956</ele>
        <time>2020-10-11T07:16:12.950Z</time>
      </trkpt>
      <trkpt lat="47.18437" lon="6.41255">
        <ele>671.385693</ele>
        <time>2020-10-11T07:16:56.302Z</time>
      </trkpt>
      <trkpt lat="47.18423" lon="6.41157">
        <ele>670.568669</ele>
        <time>2020-10-11T07:17:07.791Z</time>
      </trkpt>
      <trkpt lat="47.18404" lon="6.41095">
        <ele>669.927633</ele>
        <time>2020-10-11T07:17:15.493Z</time>
      </trkpt>
      <trkpt lat="47.18407" lon="6.41092">
        <ele>669.880842</ele>
        <time>2020-10-11T07:17:16.000Z</time>
      </trkpt>
      <trkpt lat="47.18411" lon="6.41079">
        <ele>669.745202</ele>
        <time>2020-10-11T07:17:17.613Z</time>
      </trkpt>
      <trkpt lat="47.1841" lon="6.41074">
        <ele>669.698802</ele>
        <time>2020-10-11T07:17:18.145Z</time>
      </trkpt>
      <trkpt lat="47.18409" lon="6.4107">
        <ele>669.653874</ele>
        <time>2020-10-11T07:17:18.694Z</time>
      </trkpt>
      <trkpt lat="47.18407" lon="6.41066">
        <ele>669.608538</ele>
        <time>2020-10-11T07:17:19.241Z</time>
      </trkpt>
      <trkpt lat="47.18404" lon="6.41064">
        <ele>669.563557</ele>
        <time>2020-10-11T07:17:19.790Z</time>
      </trkpt>
      <trkpt lat="47.18401" lon="6.41062">
        <ele>669.518877</ele>
        <time>2020-10-11T07:17:20.344Z</time>
      </trkpt>
      <trkpt lat="47.18398" lon="6.41062">
        <ele>669.473398</ele>
        <time>2020-10-11T07:17:20.900Z</time>
      </trkpt>
      <trkpt lat="47.18397" lon="6.41056">
        <ele>669.413825</ele>
        <time>2020-10-11T07:17:21.542Z</time>
      </trkpt>
      <trkpt lat="47.18402" lon="6.41007">
        <ele>668.950542</ele>
        <time>2020-10-11T07:17:27.035Z</time>
      </trkpt>
      <trkpt lat="47.18411" lon="6.40957">
        <ele>668.46631</ele>
        <time>2020-10-11T07:17:32.718Z</time>
      </trkpt>
      <trkpt lat="47.18424" lon="6.40887">
        <ele>667.850454</ele>
        <time>2020-10-11T07:17:40.592Z</time>
      </trkpt>
      <trkpt lat="47.18448" lon="6.40755">
        <ele>666.813404</ele>
        <time>2020-10-11T07:17:56.232Z</time>
      </trkpt>
      <trkpt lat="47.18462" lon="6.40686">
        <ele>666.271098</ele>
        <time>2020-10-11T07:18:04.551Z</time>
      </trkpt>
      <trkpt lat="47.18492" lon="6.40526">
        <ele>665.371749</ele>
        <time>2020-10-11T07:18:25.287Z</time>
      </trkpt>
      <trkpt lat="47.18431" lon="6.40505">
        <ele>664.903273</ele>
        <time>2020-10-11T07:18:40.785Z</time>
      </trkpt>
      <trkpt lat="47.18422" lon="6.40501">
        <ele>664.833114</ele>
        <time>2020-10-11T07:18:43.144Z</time>
      </trkpt>
      <trkpt lat="47.18418" lon="6.40499">
        <ele>664.803658</ele>
        <time>2020-10-11T07:18:44.168Z</time>
      </trkpt>
      <trkpt lat="47.18414" lon="6.40496">
        <ele>664.770558</ele>
        <time>2020-10-11T07:18:45.198Z</time>
      </trkpt>
      <trkpt lat="47.18408" lon="6.40492">
        <ele>664.710728</ele>
        <time>2020-10-11T07:18:46.804Z</time>
      </trkpt>
      <trkpt lat="47.18405" lon="6.40488">
        <ele>664.666519</ele>
        <time>2020-10-11T07:18:47.813Z</time>
      </trkpt>
      <trkpt lat="47.18402" lon="6.40483">
        <ele>664.611591</ele>
        <time>2020-10-11T07:18:48.973Z</time>
      </trkpt>
      <trkpt lat="47.1838" lon="6.40429">
        <ele>664.134616</ele>
        <time>2020-10-11T07:18:59.619Z</time>
      </trkpt>
      <trkpt lat="47.18377" lon="6.40419">
        <ele>664.048314</ele>
        <time>2020-10-11T07:19:01.541Z</time>
      </trkpt>
      <trkpt lat="47.18371" lon="6.40403">
        <ele>663.910538</ele>
        <time>2020-10-11T07:19:04.477Z</time>
      </trkpt>
      <trkpt lat="47.18305" lon="6.40283">
        <ele>662.735363</ele>
        <time>2020-10-11T07:19:29.294Z</time>
      </trkpt>
      <trkpt lat="47.18283" lon="6.40257">
        <ele>662.285817</ele>
        <time>2020-10-11T07:19:35.859Z</time>
      </trkpt>
      <trkpt lat="47.18241" lon="6.40225">
        <ele>661.541406</ele>
        <time>2020-10-11T07:19:46.772Z</time>
      </trkpt>
      <trkpt lat="47.18234" lon="6.40214">
        <ele>661.382044</ele>
        <time>2020-10-11T07:19:49.263Z</time>
      </trkpt>
      <trkpt lat="47.1823" lon="6.40201">
        <ele>661.227837</ele>
        <time>2020-10-11T07:19:51.550Z</time>
      </trkpt>
      <trkpt lat="47.18224" lon="6.40132">
        <ele>660.481199</ele>
        <time>2020-10-11T07:20:02.318Z</time>
      </trkpt>
      <trkpt lat="47.18223" lon="6.4012">
        <ele>660.350204</ele>
        <time>2020-10-11T07:20:04.104Z</time>
      </trkpt>
      <trkpt lat="47.1822" lon="6.40117">
        <ele>660.300485</ele>
        <time>2020-10-11T07:20:04.886Z</time>
      </trkpt>
      <trkpt lat="47.18212" lon="6.40131">
        <ele>660.094406</ele>
        <time>2020-10-11T07:20:06.905Z</time>
      </trkpt>
      <trkpt lat="47.18209" lon="6.40128">
        <ele>660.039083</ele>
        <time>2020-10-11T07:20:07.726Z</time>
      </trkpt>
      <trkpt lat="47.1818" lon="6.40118">
        <ele>659.510032</ele>
        <time>2020-10-11T07:20:14.290Z</time>
      </trkpt>
      <trkpt lat="47.18174" lon="6.40117">
        <ele>659.392433</ele>
        <time>2020-10-11T07:20:15.722Z</time>
      </trkpt>
      <trkpt lat="47.18168" lon="6.40113">
        <ele>659.259587</ele>
        <time>2020-10-11T07:20:17.321Z</time>
      </trkpt>
      <trkpt lat="47.18143" lon="6.40083">
        <ele>658.663048</ele>
        <time>2020-10-11T07:20:24.327Z</time>
      </trkpt>
      <trkpt lat="47.1813" lon="6.40067">
        <ele>658.334631</ele>
        <time>2020-10-11T07:20:28.155Z</time>
      </trkpt>
      <trkpt lat="47.18123" lon="6.40059">
        <ele>658.175265</ele>
        <time>2020-10-11T07:20:30.082Z</time>
      </trkpt>
      <trkpt lat="47.18068" lon="6.40026">
        <ele>657.061136</ele>
        <time>2020-10-11T07:20:43.243Z</time>
      </trkpt>
      <trkpt lat="47.18055" lon="6.40012">
        <ele>656.74663</ele>
        <time>2020-10-11T07:20:46.798Z</time>
      </trkpt>
      <trkpt lat="47.18001" lon="6.39905">
        <ele>655.741025</ele>
        <time>2020-10-11T07:21:07.659Z</time>
      </trkpt>
      <trkpt lat="47.17998" lon="6.39897">
        <ele>655.678544</ele>
        <time>2020-10-11T07:21:09.001Z</time>
      </trkpt>
      <trkpt lat="47.17997" lon="6.39887">
        <ele>655.612718</ele>
        <time>2020-10-11T07:21:10.639Z</time>
      </trkpt>
      <trkpt lat="47.17997" lon="6.39876">
        <ele>655.540686</ele>
        <time>2020-10-11T07:21:12.562Z</time>
      </trkpt>
      <trkpt lat="47.17997" lon="6.39872">
        <ele>655.514677</ele>
        <time>2020-10-11T07:21:13.145Z</time>
      </trkpt>
      <trkpt lat="47.17983" lon="6.3987">
        <ele>655.374943</ele>
        <time>2020-10-11T07:21:15.912Z</time>
      </trkpt>
      <trkpt lat="47.17945" lon="6.39863">
        <ele>654.999459</ele>
        <time>2020-10-11T07:21:22.947Z</time>
      </trkpt>
      <trkpt lat="47.17905" lon="6.39854">
        <ele>654.877084</ele>
        <time>2020-10-11T07:21:30.729Z</time>
      </trkpt>
      <trkpt lat="47.17884" lon="6.3985">
        <ele>655.072866</ele>
        <time>2020-10-11T07:21:35.938Z</time>
      </trkpt>
      <trkpt lat="47.17854" lon="6.39847">
        <ele>655.355172</ele>
        <time>2020-10-11T07:21:42.841Z</time>
      </trkpt>
      <trkpt lat="47.17846" lon="6.39848">
        <ele>655.427565</ele>
        <time>2020-10-11T07:21:45.102Z</time>
      </trkpt>
      <trkpt lat="47.17827" lon="6.39851">
        <ele>655.613462</ele>
        <time>2020-10-11T07:21:50.637Z</time>
      </trkpt>
      <trkpt lat="47.17807" lon="6.39854">
        <ele>655.802565</ele>
        <time>2020-10-11T07:21:56.581Z</time>
      </trkpt>
      <trkpt lat="47.1776" lon="6.39855">
        <ele>656.240318</ele>
        <time>2020-10-11T07:22:09.941Z</time>
      </trkpt>
      <trkpt lat="47.17754" lon="6.39852">
        <ele>656.302247</ele>
        <time>2020-10-11T07:22:12.056Z</time>
      </trkpt>
      <trkpt lat="47.17742" lon="6.39846">
        <ele>656.417953</ele>
        <time>2020-10-11T07:22:15.590Z</time>
      </trkpt>
      <trkpt lat="47.1767" lon="6.39808">
        <ele>657.530488</ele>
        <time>2020-10-11T07:22:37.412Z</time>
      </trkpt>
      <trkpt lat="47.17628" lon="6.39788">
        <ele>658.181386</ele>
        <time>2020-10-11T07:22:50.144Z</time>
      </trkpt>
      <trkpt lat="47.17602" lon="6.39775">
        <ele>658.589847</ele>
        <time>2020-10-11T07:22:58.643Z</time>
      </trkpt>
      <trkpt lat="47.17556" lon="6.39745">
        <ele>659.348346</ele>
        <time>2020-10-11T07:23:13.063Z</time>
      </trkpt>
      <trkpt lat="47.17534" lon="6.39736">
        <ele>659.692852</ele>
        <time>2020-10-11T07:23:19.690Z</time>
      </trkpt>
      <trkpt lat="47.17372" lon="6.39694">
        <ele>662.142112</ele>
        <time>2020-10-11T07:24:08.298Z</time>
      </trkpt>
      <trkpt lat="47.17316" lon="6.39701">
        <ele>662.768125</ele>
        <time>2020-10-11T07:24:24.267Z</time>
      </trkpt>
      <trkpt lat="47.17285" lon="6.39696">
        <ele>663.112413</ele>
        <time>2020-10-11T07:24:32.694Z</time>
      </trkpt>
      <trkpt lat="47.17261" lon="6.39682">
        <ele>663.389686</ele>
        <time>2020-10-11T07:24:39.240Z</time>
      </trkpt>
      <trkpt lat="47.17239" lon="6.3966">
        <ele>663.687267</ele>
        <time>2020-10-11T07:24:46.081Z</time>
      </trkpt>
      <trkpt lat="47.17179" lon="6.39577">
        <ele>664.125548</ele>
        <time>2020-10-11T07:25:05.710Z</time>
      </trkpt>
      <trkpt lat="47.1717" lon="6.39568">
        <ele>664.168343</ele>
        <time>2020-10-11T07:25:08.131Z</time>
      </trkpt>
      <trkpt lat="47.17152" lon="6.39552">
        <ele>664.251954</ele>
        <time>2020-10-11T07:25:12.819Z</time>
      </trkpt>
      <trkpt lat="47.17074" lon="6.39486">
        <ele>664.588382</ele>
        <time>2020-10-11T07:25:33.227Z</time>
      </trkpt>
      <trkpt lat="47.17024" lon="6.39444">
        <ele>664.638946</ele>
        <time>2020-10-11T07:25:44.879Z</time>
      </trkpt>
      <trkpt lat="47.17013" lon="6.39435">
        <ele>664.649557</ele>
        <time>2020-10-11T07:25:47.257Z</time>
      </trkpt>
      <trkpt lat="47.17002" lon="6.39425">
        <ele>664.660656</ele>
        <time>2020-10-11T07:25:49.833Z</time>
      </trkpt>
      <trkpt lat="47.16997" lon="6.3942">
        <ele>664.666496</ele>
        <time>2020-10-11T07:25:51.090Z</time>
      </trkpt>
      <trkpt lat="47.16978" lon="6.39397">
        <ele>664.688188</ele>
        <time>2020-10-11T07:25:55.852Z</time>
      </trkpt>
      <trkpt lat="47.16967" lon="6.39384">
        <ele>664.700711</ele>
        <time>2020-10-11T07:25:59.040Z</time>
      </trkpt>
      <trkpt lat="47.1693" lon="6.39336">
        <ele>664.796684</ele>
        <time>2020-10-11T07:26:09.588Z</time>
      </trkpt>
      <trkpt lat="47.16878" lon="6.39281">
        <ele>665.420025</ele>
        <time>2020-10-11T07:26:26.286Z</time>
      </trkpt>
      <trkpt lat="47.16873" lon="6.39276">
        <ele>665.482197</ele>
        <time>2020-10-11T07:26:27.541Z</time>
      </trkpt>
      <trkpt lat="47.16868" lon="6.39271">
        <ele>665.542434</ele>
        <time>2020-10-11T07:26:29.199Z</time>
      </trkpt>
      <trkpt lat="47.16853" lon="6.39257">
        <ele>665.709989</ele>
        <time>2020-10-11T07:26:34.152Z</time>
      </trkpt>
      <trkpt lat="47.16835" lon="6.39232">
        <ele>665.951912</ele>
        <time>2020-10-11T07:26:40.148Z</time>
      </trkpt>
      <trkpt lat="47.16831" lon="6.39224">
        <ele>666.014301</ele>
        <time>2020-10-11T07:26:42.339Z</time>
      </trkpt>
      <trkpt lat="47.16818" lon="6.39197">
        <ele>666.236061</ele>
        <time>2020-10-11T07:26:48.333Z</time>
      </trkpt>
      <trkpt lat="47.16804" lon="6.39171">
        <ele>666.451439</ele>
        <time>2020-10-11T07:26:55.049Z</time>
      </trkpt>
      <trkpt lat="47.16784" lon="6.39132">
        <ele>666.853594</ele>
        <time>2020-10-11T07:27:05.014Z</time>
      </trkpt>
      <trkpt lat="47.16778" lon="6.3912">
        <ele>666.976624</ele>
        <time>2020-10-11T07:27:07.633Z</time>
      </trkpt>
      <trkpt lat="47.16761" lon="6.39092">
        <ele>667.285693</ele>
        <time>2020-10-11T07:27:15.712Z</time>
      </trkpt>
      <trkpt lat="47.16724" lon="6.39053">
        <ele>667.841696</ele>
        <time>2020-10-11T07:27:29.171Z</time>
      </trkpt>
      <trkpt lat="47.16714" lon="6.39042">
        <ele>667.988863</ele>
        <time>2020-10-11T07:27:32.598Z</time>
      </trkpt>
      <trkpt lat="47.16699" lon="6.39025">
        <ele>668.223236</ele>
        <time>2020-10-11T07:27:37.413Z</time>
      </trkpt>
      <trkpt lat="47.16694" lon="6.39019">
        <ele>668.299543</ele>
        <time>2020-10-11T07:27:39.196Z</time>
      </trkpt>
      <trkpt lat="47.16552" lon="6.38867">
        <ele>669.229549</ele>
        <time>2020-10-11T07:28:20.423Z</time>
      </trkpt>
      <trkpt lat="47.16529" lon="6.38839">
        <ele>669.343093</ele>
        <time>2020-10-11T07:28:26.775Z</time>
      </trkpt>
      <trkpt lat="47.16508" lon="6.38801">
        <ele>669.265811</ele>
        <time>2020-10-11T07:28:33.603Z</time>
      </trkpt>
      <trkpt lat="47.16499" lon="6.38783">
        <ele>669.215587</ele>
        <time>2020-10-11T07:28:36.594Z</time>
      </trkpt>
      <trkpt lat="47.16473" lon="6.38746">
        <ele>669.093953</ele>
        <time>2020-10-11T07:28:43.537Z</time>
      </trkpt>
      <trkpt lat="47.16405" lon="6.38671">
        <ele>668.806515</ele>
        <time>2020-10-11T07:28:59.201Z</time>
      </trkpt>
      <trkpt lat="47.16346" lon="6.38638">
        <ele>668.788241</ele>
        <time>2020-10-11T07:29:10.700Z</time>
      </trkpt>
      <trkpt lat="47.16266" lon="6.38623">
        <ele>668.846258</ele>
        <time>2020-10-11T07:29:26.350Z</time>
      </trkpt>
      <trkpt lat="47.16096" lon="6.38563">
        <ele>671.055384</ele>
        <time>2020-10-11T07:30:13.066Z</time>
      </trkpt>
      <trkpt lat="47.16005" lon="6.38507">
        <ele>674.131197</ele>
        <time>2020-10-11T07:30:50.967Z</time>
      </trkpt>
      <trkpt lat="47.15941" lon="6.38481">
        <ele>677.463301</ele>
        <time>2020-10-11T07:31:21.976Z</time>
      </trkpt>
      <trkpt lat="47.1583" lon="6.38464">
        <ele>683.54255</ele>
        <time>2020-10-11T07:32:26.252Z</time>
      </trkpt>
      <trkpt lat="47.15796" lon="6.3847">
        <ele>685.659611</ele>
        <time>2020-10-11T07:32:46.972Z</time>
      </trkpt>
      <trkpt lat="47.15757" lon="6.38486">
        <ele>688.229905</ele>
        <time>2020-10-11T07:33:10.811Z</time>
      </trkpt>
      <trkpt lat="47.1573" lon="6.38488">
        <ele>689.855446</ele>
        <time>2020-10-11T07:33:25.764Z</time>
      </trkpt>
      <trkpt lat="47.15727" lon="6.38488">
        <ele>690.054707</ele>
        <time>2020-10-11T07:33:28.214Z</time>
      </trkpt>
      <trkpt lat="47.1544" lon="6.38431">
        <ele>704.401798</ele>
        <time>2020-10-11T07:35:43.218Z</time>
      </trkpt>
      <trkpt lat="47.15395" lon="6.38405">
        <ele>706.785636</ele>
        <time>2020-10-11T07:36:07.938Z</time>
      </trkpt>
      <trkpt lat="47.15321" lon="6.3835">
        <ele>710.350559</ele>
        <time>2020-10-11T07:36:48.784Z</time>
      </trkpt>
      <trkpt lat="47.15282" lon="6.38312">
        <ele>711.757719</ele>
        <time>2020-10-11T07:37:09.780Z</time>
      </trkpt>
      <trkpt lat="47.15263" lon="6.38293">
        <ele>712.432251</ele>
        <time>2020-10-11T07:37:18.619Z</time>
      </trkpt>
      <trkpt lat="47.15236" lon="6.38257">
        <ele>713.512189</ele>
        <time>2020-10-11T07:37:31.596Z</time>
      </trkpt>
      <trkpt lat="47.15164" lon="6.38165">
        <ele>714.571674</ele>
        <time>2020-10-11T07:37:56.547Z</time>
      </trkpt>
      <trkpt lat="47.15134" lon="6.38124">
        <ele>714.247662</ele>
        <time>2020-10-11T07:38:03.336Z</time>
      </trkpt>
      <trkpt lat="47.15112" lon="6.38096">
        <ele>714.015765</ele>
        <time>2020-10-11T07:38:07.924Z</time>
      </trkpt>
      <trkpt lat="47.14911" lon="6.37948">
        <ele>710.484754</ele>
        <time>2020-10-11T07:38:43.271Z</time>
      </trkpt>
      <trkpt lat="47.14799" lon="6.37883">
        <ele>706.603062</ele>
        <time>2020-10-11T07:39:01.059Z</time>
      </trkpt>
      <trkpt lat="47.14773" lon="6.37869">
        <ele>705.649086</ele>
        <time>2020-10-11T07:39:04.769Z</time>
      </trkpt>
      <trkpt lat="47.1474" lon="6.37846">
        <ele>704.380656</ele>
        <time>2020-10-11T07:39:09.633Z</time>
      </trkpt>
      <trkpt lat="47.147" lon="6.3781">
        <ele>702.609178</ele>
        <time>2020-10-11T07:39:15.836Z</time>
      </trkpt>
      <trkpt lat="47.14681" lon="6.37789">
        <ele>701.688583</ele>
        <time>2020-10-11T07:39:19.050Z</time>
      </trkpt>
      <trkpt lat="47.14657" lon="6.37762">
        <ele>700.506905</ele>
        <time>2020-10-11T07:39:23.097Z</time>
      </trkpt>
      <trkpt lat="47.14631" lon="6.37729">
        <ele>699.190701</ele>
        <time>2020-10-11T07:39:27.723Z</time>
      </trkpt>
      <trkpt lat="47.14585" lon="6.37679">
        <ele>696.967697</ele>
        <time>2020-10-11T07:39:35.872Z</time>
      </trkpt>
      <trkpt lat="47.14552" lon="6.37657">
        <ele>697.053284</ele>
        <time>2020-10-11T07:39:41.446Z</time>
      </trkpt>
      <trkpt lat="47.1452" lon="6.37653">
        <ele>697.132709</ele>
        <time>2020-10-11T07:39:47.509Z</time>
      </trkpt>
      <trkpt lat="47.14459" lon="6.37663">
        <ele>697.281699</ele>
        <time>2020-10-11T07:40:04.374Z</time>
      </trkpt>
      <trkpt lat="47.14422" lon="6.37653">
        <ele>697.372813</ele>
        <time>2020-10-11T07:40:15.504Z</time>
      </trkpt>
      <trkpt lat="47.14324" lon="6.37563">
        <ele>700.053368</ele>
        <time>2020-10-11T07:40:54.154Z</time>
      </trkpt>
      <trkpt lat="47.14279" lon="6.37504">
        <ele>701.582731</ele>
        <time>2020-10-11T07:41:17.148Z</time>
      </trkpt>
      <trkpt lat="47.14271" lon="6.37489">
        <ele>701.907458</ele>
        <time>2020-10-11T07:41:21.713Z</time>
      </trkpt>
      <trkpt lat="47.14259" lon="6.37465">
        <ele>702.658236</ele>
        <time>2020-10-11T07:41:29.502Z</time>
      </trkpt>
      <trkpt lat="47.1425" lon="6.37445">
        <ele>703.270271</ele>
        <time>2020-10-11T07:41:35.918Z</time>
      </trkpt>
      <trkpt lat="47.14244" lon="6.37434">
        <ele>703.649725</ele>
        <time>2020-10-11T07:41:39.638Z</time>
      </trkpt>
      <trkpt lat="47.14224" lon="6.37388">
        <ele>705.030694</ele>
        <time>2020-10-11T07:41:54.752Z</time>
      </trkpt>
      <trkpt lat="47.14221" lon="6.37379">
        <ele>705.293896</ele>
        <time>2020-10-11T07:41:57.376Z</time>
      </trkpt>
      <trkpt lat="47.1422" lon="6.37372">
        <ele>705.501016</ele>
        <time>2020-10-11T07:42:00.064Z</time>
      </trkpt>
      <trkpt lat="47.14221" lon="6.37307">
        <ele>707.181428</ele>
        <time>2020-10-11T07:42:18.963Z</time>
      </trkpt>
      <trkpt lat="47.14209" lon="6.37264">
        <ele>708.371376</ele>
        <time>2020-10-11T07:42:33.786Z</time>
      </trkpt>
      <trkpt lat="47.14202" lon="6.37251">
        <ele>708.811649</ele>
        <time>2020-10-11T07:42:38.611Z</time>
      </trkpt>
      <trkpt lat="47.14197" lon="6.37241">
        <ele>709.135155</ele>
        <time>2020-10-11T07:42:43.078Z</time>
      </trkpt>
      <trkpt lat="47.14192" lon="6.37231">
        <ele>709.457584</ele>
        <time>2020-10-11T07:42:46.771Z</time>
      </trkpt>
      <trkpt lat="47.14189" lon="6.3723">
        <ele>709.595855</ele>
        <time>2020-10-11T07:42:48.689Z</time>
      </trkpt>
      <trkpt lat="47.14175" lon="6.37231">
        <ele>710.125641</ele>
        <time>2020-10-11T07:42:53.684Z</time>
      </trkpt>
      <trkpt lat="47.14171" lon="6.37233">
        <ele>710.305666</ele>
        <time>2020-10-11T07:42:55.815Z</time>
      </trkpt>
      <trkpt lat="47.14167" lon="6.37236">
        <ele>710.490166</ele>
        <time>2020-10-11T07:42:58.293Z</time>
      </trkpt>
      <trkpt lat="47.1416" lon="6.37244">
        <ele>710.803777</ele>
        <time>2020-10-11T07:43:01.867Z</time>
      </trkpt>
      <trkpt lat="47.14136" lon="6.37279">
        <ele>712.142443</ele>
        <time>2020-10-11T07:43:16.813Z</time>
      </trkpt>
      <trkpt lat="47.1412" lon="6.37302">
        <ele>712.985486</ele>
        <time>2020-10-11T07:43:25.315Z</time>
      </trkpt>
      <trkpt lat="47.14111" lon="6.37314">
        <ele>713.480236</ele>
        <time>2020-10-11T07:43:31.383Z</time>
      </trkpt>
      <trkpt lat="47.14093" lon="6.37331">
        <ele>714.311828</ele>
        <time>2020-10-11T07:43:39.637Z</time>
      </trkpt>
      <trkpt lat="47.14076" lon="6.37334">
        <ele>714.999929</ele>
        <time>2020-10-11T07:43:47.752Z</time>
      </trkpt>
      <trkpt lat="47.14011" lon="6.37306">
        <ele>717.191512</ele>
        <time>2020-10-11T07:44:14.286Z</time>
      </trkpt>
      <trkpt lat="47.13969" lon="6.373">
        <ele>718.458139</ele>
        <time>2020-10-11T07:44:30.095Z</time>
      </trkpt>
      <trkpt lat="47.13783" lon="6.37339">
        <ele>723.964205</ele>
        <time>2020-10-11T07:45:37.340Z</time>
      </trkpt>
      <trkpt lat="47.13755" lon="6.37342">
        <ele>724.768742</ele>
        <time>2020-10-11T07:45:47.910Z</time>
      </trkpt>
      <trkpt lat="47.13723" lon="6.37339">
        <ele>725.671577</ele>
        <time>2020-10-11T07:45:59.804Z</time>
      </trkpt>
      <trkpt lat="47.13624" lon="6.37311">
        <ele>728.580499</ele>
        <time>2020-10-11T07:46:38.778Z</time>
      </trkpt>
      <trkpt lat="47.13489" lon="6.37287">
        <ele>732.188655</ele>
        <time>2020-10-11T07:47:27.928Z</time>
      </trkpt>
      <trkpt lat="47.13467" lon="6.37282">
        <ele>732.636594</ele>
        <time>2020-10-11T07:47:35.196Z</time>
      </trkpt>
      <trkpt lat="47.13449" lon="6.37277">
        <ele>732.991595</ele>
        <time>2020-10-11T07:47:40.336Z</time>
      </trkpt>
      <trkpt lat="47.13443" lon="6.37274">
        <ele>733.113818</ele>
        <time>2020-10-11T07:47:42.261Z</time>
      </trkpt>
      <trkpt lat="47.13437" lon="6.37271">
        <ele>733.246419</ele>
        <time>2020-10-11T07:47:44.341Z</time>
      </trkpt>
      <trkpt lat="47.13429" lon="6.37267">
        <ele>733.409057</ele>
        <time>2020-10-11T07:47:46.789Z</time>
      </trkpt>
      <trkpt lat="47.13419" lon="6.37263">
        <ele>733.619697</ele>
        <time>2020-10-11T07:47:49.673Z</time>
      </trkpt>
      <trkpt lat="47.13409" lon="6.37258">
        <ele>733.841124</ele>
        <time>2020-10-11T07:47:53.046Z</time>
      </trkpt>
      <trkpt lat="47.13383" lon="6.37239">
        <ele>734.409938</ele>
        <time>2020-10-11T07:48:01.563Z</time>
      </trkpt>
      <trkpt lat="47.1336" lon="6.37227">
        <ele>734.91223</ele>
        <time>2020-10-11T07:48:09.647Z</time>
      </trkpt>
      <trkpt lat="47.13314" lon="6.37207">
        <ele>735.880343</ele>
        <time>2020-10-11T07:48:24.729Z</time>
      </trkpt>
      <trkpt lat="47.13273" lon="6.37191">
        <ele>736.75821</ele>
        <time>2020-10-11T07:48:38.230Z</time>
      </trkpt>
      <trkpt lat="47.13251" lon="6.37183">
        <ele>737.234318</ele>
        <time>2020-10-11T07:48:45.562Z</time>
      </trkpt>
      <trkpt lat="47.13241" lon="6.37179">
        <ele>737.448692</ele>
        <time>2020-10-11T07:48:48.823Z</time>
      </trkpt>
      <trkpt lat="47.1323" lon="6.37174">
        <ele>737.675158</ele>
        <time>2020-10-11T07:48:52.342Z</time>
      </trkpt>
      <trkpt lat="47.13203" lon="6.37162">
        <ele>738.252559</ele>
        <time>2020-10-11T07:49:01.411Z</time>
      </trkpt>
      <trkpt lat="47.13148" lon="6.37126">
        <ele>739.513848</ele>
        <time>2020-10-11T07:49:22.095Z</time>
      </trkpt>
      <trkpt lat="47.13144" lon="6.37123">
        <ele>739.612445</ele>
        <time>2020-10-11T07:49:23.781Z</time>
      </trkpt>
      <trkpt lat="47.13139" lon="6.37119">
        <ele>739.728546</ele>
        <time>2020-10-11T07:49:25.668Z</time>
      </trkpt>
      <trkpt lat="47.13076" lon="6.37076">
        <ele>741.186557</ele>
        <time>2020-10-11T07:49:50.296Z</time>
      </trkpt>
      <trkpt lat="47.13037" lon="6.37036">
        <ele>742.173316</ele>
        <time>2020-10-11T07:50:04.671Z</time>
      </trkpt>
      <trkpt lat="47.13022" lon="6.37016">
        <ele>742.6019</ele>
        <time>2020-10-11T07:50:10.489Z</time>
      </trkpt>
      <trkpt lat="47.13014" lon="6.37003">
        <ele>742.7631</ele>
        <time>2020-10-11T07:50:13.459Z</time>
      </trkpt>
      <trkpt lat="47.13005" lon="6.36988">
        <ele>742.959569</ele>
        <time>2020-10-11T07:50:17.208Z</time>
      </trkpt>
      <trkpt lat="47.12986" lon="6.36957">
        <ele>743.359349</ele>
        <time>2020-10-11T07:50:24.741Z</time>
      </trkpt>
      <trkpt lat="47.12978" lon="6.36946">
        <ele>743.517078</ele>
        <time>2020-10-11T07:50:27.748Z</time>
      </trkpt>
      <trkpt lat="47.12973" lon="6.36939">
        <ele>743.613267</ele>
        <time>2020-10-11T07:50:29.562Z</time>
      </trkpt>
      <trkpt lat="47.12964" lon="6.36931">
        <ele>743.757598</ele>
        <time>2020-10-11T07:50:32.241Z</time>
      </trkpt>
      <trkpt lat="47.12958" lon="6.36925">
        <ele>743.857942</ele>
        <time>2020-10-11T07:50:34.183Z</time>
      </trkpt>
      <trkpt lat="47.12945" lon="6.36915">
        <ele>744.068201</ele>
        <time>2020-10-11T07:50:38.430Z</time>
      </trkpt>
      <trkpt lat="47.12889" lon="6.36876">
        <ele>744.949062</ele>
        <time>2020-10-11T07:50:57.405Z</time>
      </trkpt>
      <trkpt lat="47.12825" lon="6.36829">
        <ele>745.947993</ele>
        <time>2020-10-11T07:51:18.776Z</time>
      </trkpt>
      <trkpt lat="47.12808" lon="6.36817">
        <ele>746.216045</ele>
        <time>2020-10-11T07:51:24.331Z</time>
      </trkpt>
      <trkpt lat="47.1279" lon="6.36804">
        <ele>746.50057</ele>
        <time>2020-10-11T07:51:30.064Z</time>
      </trkpt>
      <trkpt lat="47.12776" lon="6.36795">
        <ele>746.705983</ele>
        <time>2020-10-11T07:51:34.376Z</time>
      </trkpt>
      <trkpt lat="47.12744" lon="6.36771">
        <ele>747.212709</ele>
        <time>2020-10-11T07:51:44.759Z</time>
      </trkpt>
      <trkpt lat="47.12732" lon="6.36756">
        <ele>747.44172</ele>
        <time>2020-10-11T07:51:49.279Z</time>
      </trkpt>
      <trkpt lat="47.12706" lon="6.36722">
        <ele>747.622053</ele>
        <time>2020-10-11T07:51:58.664Z</time>
      </trkpt>
      <trkpt lat="47.12698" lon="6.3671">
        <ele>747.598012</ele>
        <time>2020-10-11T07:52:01.955Z</time>
      </trkpt>
      <trkpt lat="47.12689" lon="6.36695">
        <ele>747.571422</ele>
        <time>2020-10-11T07:52:05.047Z</time>
      </trkpt>
      <trkpt lat="47.12687" lon="6.36691">
        <ele>747.564235</ele>
        <time>2020-10-11T07:52:05.804Z</time>
      </trkpt>
      <trkpt lat="47.12611" lon="6.36525">
        <ele>747.255552</ele>
        <time>2020-10-11T07:52:30.624Z</time>
      </trkpt>
      <trkpt lat="47.1259" lon="6.36497">
        <ele>746.973679</ele>
        <time>2020-10-11T07:52:35.286Z</time>
      </trkpt>
      <trkpt lat="47.12507" lon="6.36407">
        <ele>745.953524</ele>
        <time>2020-10-11T07:52:52.375Z</time>
      </trkpt>
      <trkpt lat="47.12395" lon="6.36322">
        <ele>745.29404</ele>
        <time>2020-10-11T07:53:15.188Z</time>
      </trkpt>
      <trkpt lat="47.12266" lon="6.36205">
        <ele>745.171058</ele>
        <time>2020-10-11T07:53:47.626Z</time>
      </trkpt>
      <trkpt lat="47.12092" lon="6.36106">
        <ele>745.40056</ele>
        <time>2020-10-11T07:54:29.436Z</time>
      </trkpt>
      <trkpt lat="47.11896" lon="6.36043">
        <ele>744.24035</ele>
        <time>2020-10-11T07:55:07.695Z</time>
      </trkpt>
      <trkpt lat="47.1189" lon="6.36042">
        <ele>744.16707</ele>
        <time>2020-10-11T07:55:08.832Z</time>
      </trkpt>
      <trkpt lat="47.11793" lon="6.36011">
        <ele>742.85388</ele>
        <time>2020-10-11T07:55:24.456Z</time>
      </trkpt>
      <trkpt lat="47.11601" lon="6.35948">
        <ele>737.010421</ele>
        <time>2020-10-11T07:55:52.456Z</time>
      </trkpt>
      <trkpt lat="47.11527" lon="6.35924">
        <ele>734.519332</ele>
        <time>2020-10-11T07:56:03.106Z</time>
      </trkpt>
      <trkpt lat="47.11481" lon="6.35909">
        <ele>732.999362</ele>
        <time>2020-10-11T07:56:09.696Z</time>
      </trkpt>
      <trkpt lat="47.11436" lon="6.35904">
        <ele>731.54449</ele>
        <time>2020-10-11T07:56:16.308Z</time>
      </trkpt>
      <trkpt lat="47.11426" lon="6.35905">
        <ele>731.263008</ele>
        <time>2020-10-11T07:56:17.684Z</time>
      </trkpt>
      <trkpt lat="47.11418" lon="6.35906">
        <ele>731.035409</ele>
        <time>2020-10-11T07:56:18.771Z</time>
      </trkpt>
      <trkpt lat="47.11366" lon="6.35931">
        <ele>729.441084</ele>
        <time>2020-10-11T07:56:26.799Z</time>
      </trkpt>
      <trkpt lat="47.11259" lon="6.36022">
        <ele>726.006034</ele>
        <time>2020-10-11T07:56:44.656Z</time>
      </trkpt>
      <trkpt lat="47.11254" lon="6.36025">
        <ele>725.86241</ele>
        <time>2020-10-11T07:56:45.465Z</time>
      </trkpt>
      <trkpt lat="47.11246" lon="6.36028">
        <ele>725.663897</ele>
        <time>2020-10-11T07:56:46.610Z</time>
      </trkpt>
      <trkpt lat="47.11219" lon="6.36032">
        <ele>725.015521</ele>
        <time>2020-10-11T07:56:50.644Z</time>
      </trkpt>
      <trkpt lat="47.11187" lon="6.36027">
        <ele>724.237347</ele>
        <time>2020-10-11T07:56:55.417Z</time>
      </trkpt>
      <trkpt lat="47.11082" lon="6.35969">
        <ele>722.205826</ele>
        <time>2020-10-11T07:57:12.424Z</time>
      </trkpt>
      <trkpt lat="47.11046" lon="6.35956">
        <ele>722.06341</ele>
        <time>2020-10-11T07:57:18.944Z</time>
      </trkpt>
      <trkpt lat="47.1099" lon="6.35966">
        <ele>721.845971</ele>
        <time>2020-10-11T07:57:30.062Z</time>
      </trkpt>
      <trkpt lat="47.10842" lon="6.3602">
        <ele>722.557774</ele>
        <time>2020-10-11T07:58:09.944Z</time>
      </trkpt>
      <trkpt lat="47.10812" lon="6.36017">
        <ele>722.838032</ele>
        <time>2020-10-11T07:58:18.268Z</time>
      </trkpt>
      <trkpt lat="47.1075" lon="6.3599">
        <ele>723.300056</ele>
        <time>2020-10-11T07:58:35.029Z</time>
      </trkpt>
      <trkpt lat="47.10711" lon="6.35973">
        <ele>723.262162</ele>
        <time>2020-10-11T07:58:44.990Z</time>
      </trkpt>
      <trkpt lat="47.1069" lon="6.35964">
        <ele>723.242003</ele>
        <time>2020-10-11T07:58:49.991Z</time>
      </trkpt>
      <trkpt lat="47.10586" lon="6.35918">
        <ele>723.037214</ele>
        <time>2020-10-11T07:59:10.296Z</time>
      </trkpt>
      <trkpt lat="47.1056" lon="6.35892">
        <ele>722.269844</ele>
        <time>2020-10-11T07:59:15.436Z</time>
      </trkpt>
      <trkpt lat="47.10532" lon="6.3585">
        <ele>721.330373</ele>
        <time>2020-10-11T07:59:21.467Z</time>
      </trkpt>
      <trkpt lat="47.1052" lon="6.3583">
        <ele>720.891815</ele>
        <time>2020-10-11T07:59:24.319Z</time>
      </trkpt>
      <trkpt lat="47.10509" lon="6.3581">
        <ele>720.475045</ele>
        <time>2020-10-11T07:59:26.833Z</time>
      </trkpt>
      <trkpt lat="47.10387" lon="6.35604">
        <ele>714.799827</ele>
        <time>2020-10-11T07:59:53.020Z</time>
      </trkpt>
      <trkpt lat="47.10211" lon="6.35361">
        <ele>706.613232</ele>
        <time>2020-10-11T08:00:26.970Z</time>
      </trkpt>
      <trkpt lat="47.10181" lon="6.35299">
        <ele>705.268688</ele>
        <time>2020-10-11T08:00:34.336Z</time>
      </trkpt>
      <trkpt lat="47.10163" lon="6.35252">
        <ele>704.295022</ele>
        <time>2020-10-11T08:00:39.724Z</time>
      </trkpt>
      <trkpt lat="47.10013" lon="6.34845">
        <ele>697.712346</ele>
        <time>2020-10-11T08:01:27.400Z</time>
      </trkpt>
      <trkpt lat="47.09967" lon="6.34735">
        <ele>697.071095</ele>
        <time>2020-10-11T08:01:42.716Z</time>
      </trkpt>
      <trkpt lat="47.09954" lon="6.34701">
        <ele>696.875901</ele>
        <time>2020-10-11T08:01:48.443Z</time>
      </trkpt>
      <trkpt lat="47.0993" lon="6.34629">
        <ele>697.173398</ele>
        <time>2020-10-11T08:02:03.090Z</time>
      </trkpt>
      <trkpt lat="47.09923" lon="6.34612">
        <ele>697.364461</ele>
        <time>2020-10-11T08:02:07.177Z</time>
      </trkpt>
      <trkpt lat="47.09918" lon="6.34596">
        <ele>697.531807</ele>
        <time>2020-10-11T08:02:11.002Z</time>
      </trkpt>
      <trkpt lat="47.09908" lon="6.34569">
        <ele>697.823296</ele>
        <time>2020-10-11T08:02:17.047Z</time>
      </trkpt>
      <trkpt lat="47.09896" lon="6.34524">
        <ele>698.287481</ele>
        <time>2020-10-11T08:02:26.830Z</time>
      </trkpt>
      <trkpt lat="47.09889" lon="6.34501">
        <ele>698.529478</ele>
        <time>2020-10-11T08:02:31.939Z</time>
      </trkpt>
      <trkpt lat="47.0988" lon="6.34473">
        <ele>698.830148</ele>
        <time>2020-10-11T08:02:37.251Z</time>
      </trkpt>
      <trkpt lat="47.09873" lon="6.34457">
        <ele>699.006674</ele>
        <time>2020-10-11T08:02:41.073Z</time>
      </trkpt>
      <trkpt lat="47.09865" lon="6.34438">
        <ele>699.227584</ele>
        <time>2020-10-11T08:02:46.087Z</time>
      </trkpt>
      <trkpt lat="47.09853" lon="6.3441">
        <ele>699.843152</ele>
        <time>2020-10-11T08:02:52.838Z</time>
      </trkpt>
      <trkpt lat="47.0984" lon="6.34383">
        <ele>700.483776</ele>
        <time>2020-10-11T08:03:01.957Z</time>
      </trkpt>
      <trkpt lat="47.09832" lon="6.3437">
        <ele>700.812932</ele>
        <time>2020-10-11T08:03:05.904Z</time>
      </trkpt>
      <trkpt lat="47.09824" lon="6.34356">
        <ele>701.171956</ele>
        <time>2020-10-11T08:03:10.674Z</time>
      </trkpt>
      <trkpt lat="47.09813" lon="6.34339">
        <ele>701.627287</ele>
        <time>2020-10-11T08:03:16.053Z</time>
      </trkpt>
      <trkpt lat="47.09791" lon="6.34308">
        <ele>702.495683</ele>
        <time>2020-10-11T08:03:27.397Z</time>
      </trkpt>
      <trkpt lat="47.09783" lon="6.34314">
        <ele>702.743006</ele>
        <time>2020-10-11T08:03:30.628Z</time>
      </trkpt>
      <trkpt lat="47.09775" lon="6.3432">
        <ele>702.985136</ele>
        <time>2020-10-11T08:03:33.611Z</time>
      </trkpt>
      <trkpt lat="47.09773" lon="6.34326">
        <ele>703.123223</ele>
        <time>2020-10-11T08:03:36.140Z</time>
      </trkpt>
      <trkpt lat="47.09726" lon="6.3443">
        <ele>706.84973</ele>
        <time>2020-10-11T08:04:10.631Z</time>
      </trkpt>
      <trkpt lat="47.09695" lon="6.34483">
        <ele>709.767042</ele>
        <time>2020-10-11T08:04:38.254Z</time>
      </trkpt>
      <trkpt lat="47.09652" lon="6.34541">
        <ele>713.266684</ele>
        <time>2020-10-11T08:05:15.467Z</time>
      </trkpt>
      <trkpt lat="47.09612" lon="6.34584">
        <ele>715.902172</ele>
        <time>2020-10-11T08:05:44.689Z</time>
      </trkpt>
      <trkpt lat="47.09576" lon="6.34621">
        <ele>717.716294</ele>
        <time>2020-10-11T08:06:10.235Z</time>
      </trkpt>
      <trkpt lat="47.09327" lon="6.3483">
        <ele>726.423877</ele>
        <time>2020-10-11T08:07:50.256Z</time>
      </trkpt>
      <trkpt lat="47.08977" lon="6.35112">
        <ele>732.259446</ele>
        <time>2020-10-11T08:09:38.944Z</time>
      </trkpt>
      <trkpt lat="47.08876" lon="6.35167">
        <ele>735.934479</ele>
        <time>2020-10-11T08:10:20.911Z</time>
      </trkpt>
      <trkpt lat="47.08789" lon="6.35195">
        <ele>740.455984</ele>
        <time>2020-10-11T08:11:06.329Z</time>
      </trkpt>
      <trkpt lat="47.08743" lon="6.35204">
        <ele>743.540693</ele>
        <time>2020-10-11T08:11:32.425Z</time>
      </trkpt>
      <trkpt lat="47.08713" lon="6.35209">
        <ele>745.524326</ele>
        <time>2020-10-11T08:11:50.220Z</time>
      </trkpt>
      <trkpt lat="47.08607" lon="6.3522">
        <ele>753.340543</ele>
        <time>2020-10-11T08:12:59.739Z</time>
      </trkpt>
      <trkpt lat="47.08556" lon="6.35218">
        <ele>757.572012</ele>
        <time>2020-10-11T08:13:36.781Z</time>
      </trkpt>
      <trkpt lat="47.085" lon="6.35203">
        <ele>762.256418</ele>
        <time>2020-10-11T08:14:15.377Z</time>
      </trkpt>
      <trkpt lat="47.08436" lon="6.3517">
        <ele>767.035771</ele>
        <time>2020-10-11T08:14:57.719Z</time>
      </trkpt>
      <trkpt lat="47.08423" lon="6.35163">
        <ele>767.905819</ele>
        <time>2020-10-11T08:15:06.382Z</time>
      </trkpt>
      <trkpt lat="47.0841" lon="6.35156">
        <ele>768.792658</ele>
        <time>2020-10-11T08:15:13.893Z</time>
      </trkpt>
      <trkpt lat="47.08363" lon="6.3514">
        <ele>771.841094</ele>
        <time>2020-10-11T08:15:41.029Z</time>
      </trkpt>
      <trkpt lat="47.08322" lon="6.35134">
        <ele>774.467941</ele>
        <time>2020-10-11T08:16:02.991Z</time>
      </trkpt>
      <trkpt lat="47.08239" lon="6.35142">
        <ele>778.74786</ele>
        <time>2020-10-11T08:16:41.806Z</time>
      </trkpt>
      <trkpt lat="47.08221" lon="6.35145">
        <ele>779.59095</ele>
        <time>2020-10-11T08:16:50.664Z</time>
      </trkpt>
      <trkpt lat="47.08167" lon="6.35154">
        <ele>782.170789</ele>
        <time>2020-10-11T08:17:14.120Z</time>
      </trkpt>
      <trkpt lat="47.08049" lon="6.35165">
        <ele>786.827603</ele>
        <time>2020-10-11T08:18:13.511Z</time>
      </trkpt>
      <trkpt lat="47.07961" lon="6.35152">
        <ele>789.892673</ele>
        <time>2020-10-11T08:18:47.159Z</time>
      </trkpt>
      <trkpt lat="47.07943" lon="6.35147">
        <ele>790.464124</ele>
        <time>2020-10-11T08:18:54.697Z</time>
      </trkpt>
      <trkpt lat="47.07641" lon="6.35045">
        <ele>787.549502</ele>
        <time>2020-10-11T08:19:45.869Z</time>
      </trkpt>
      <trkpt lat="47.07587" lon="6.35028">
        <ele>786.950403</ele>
        <time>2020-10-11T08:19:54.706Z</time>
      </trkpt>
      <trkpt lat="47.07561" lon="6.3502">
        <ele>786.945363</ele>
        <time>2020-10-11T08:19:59.400Z</time>
      </trkpt>
      <trkpt lat="47.07534" lon="6.35013">
        <ele>786.940352</ele>
        <time>2020-10-11T08:20:04.321Z</time>
      </trkpt>
      <trkpt lat="47.0747" lon="6.34998">
        <ele>786.928309</ele>
        <time>2020-10-11T08:20:18.246Z</time>
      </trkpt>
      <trkpt lat="47.07442" lon="6.34992">
        <ele>786.923176</ele>
        <time>2020-10-11T08:20:24.870Z</time>
      </trkpt>
      <trkpt lat="47.07074" lon="6.34936">
        <ele>790.529676</ele>
        <time>2020-10-11T08:22:06.996Z</time>
      </trkpt>
      <trkpt lat="47.07017" lon="6.3492">
        <ele>789.931543</ele>
        <time>2020-10-11T08:22:17.917Z</time>
      </trkpt>
      <trkpt lat="47.06999" lon="6.34913">
        <ele>789.601804</ele>
        <time>2020-10-11T08:22:21.354Z</time>
      </trkpt>
      <trkpt lat="47.06961" lon="6.34894">
        <ele>788.911626</ele>
        <time>2020-10-11T08:22:27.705Z</time>
      </trkpt>
      <trkpt lat="47.06682" lon="6.34691">
        <ele>780.603555</ele>
        <time>2020-10-11T08:23:11.872Z</time>
      </trkpt>
      <trkpt lat="47.06591" lon="6.34635">
        <ele>778.431715</ele>
        <time>2020-10-11T08:23:27.187Z</time>
      </trkpt>
      <trkpt lat="47.06503" lon="6.34598">
        <ele>776.502288</ele>
        <time>2020-10-11T08:23:42.334Z</time>
      </trkpt>
      <trkpt lat="47.06404" lon="6.34584">
        <ele>774.410724</ele>
        <time>2020-10-11T08:23:57.411Z</time>
      </trkpt>
      <trkpt lat="47.06351" lon="6.34578">
        <ele>772.82201</ele>
        <time>2020-10-11T08:24:04.959Z</time>
      </trkpt>
      <trkpt lat="47.0634" lon="6.34578">
        <ele>772.444364</ele>
        <time>2020-10-11T08:24:06.506Z</time>
      </trkpt>
      <trkpt lat="47.06325" lon="6.34575">
        <ele>771.912267</ele>
        <time>2020-10-11T08:24:08.768Z</time>
      </trkpt>
      <trkpt lat="47.06309" lon="6.34575">
        <ele>771.380175</ele>
        <time>2020-10-11T08:24:10.882Z</time>
      </trkpt>
      <trkpt lat="47.06219" lon="6.34589">
        <ele>768.273335</ele>
        <time>2020-10-11T08:24:23.251Z</time>
      </trkpt>
      <trkpt lat="47.06135" lon="6.34633">
        <ele>766.348724</ele>
        <time>2020-10-11T08:24:35.969Z</time>
      </trkpt>
      <trkpt lat="47.06126" lon="6.34639">
        <ele>766.156109</ele>
        <time>2020-10-11T08:24:37.310Z</time>
      </trkpt>
      <trkpt lat="47.06125" lon="6.3464">
        <ele>766.12586</ele>
        <time>2020-10-11T08:24:37.523Z</time>
      </trkpt>
      <trkpt lat="47.06008" lon="6.34721">
        <ele>764.456364</ele>
        <time>2020-10-11T08:25:00.792Z</time>
      </trkpt>
      <trkpt lat="47.05998" lon="6.34727">
        <ele>764.492933</ele>
        <time>2020-10-11T08:25:02.748Z</time>
      </trkpt>
      <trkpt lat="47.05944" lon="6.34752">
        <ele>764.673906</ele>
        <time>2020-10-11T08:25:17.507Z</time>
      </trkpt>
      <trkpt lat="47.05913" lon="6.34767">
        <ele>764.775835</ele>
        <time>2020-10-11T08:25:26.132Z</time>
      </trkpt>
      <trkpt lat="47.05718" lon="6.34859">
        <ele>765.428437</ele>
        <time>2020-10-11T08:26:13.374Z</time>
      </trkpt>
      <trkpt lat="47.05702" lon="6.34867">
        <ele>765.47957</ele>
        <time>2020-10-11T08:26:16.600Z</time>
      </trkpt>
      <trkpt lat="47.05688" lon="6.34873">
        <ele>765.425057</ele>
        <time>2020-10-11T08:26:19.761Z</time>
      </trkpt>
      <trkpt lat="47.0568" lon="6.34875">
        <ele>765.397628</ele>
        <time>2020-10-11T08:26:21.192Z</time>
      </trkpt>
      <trkpt lat="47.05622" lon="6.34887">
        <ele>765.19055</ele>
        <time>2020-10-11T08:26:32.569Z</time>
      </trkpt>
      <trkpt lat="47.05604" lon="6.34889">
        <ele>765.125838</ele>
        <time>2020-10-11T08:26:35.928Z</time>
      </trkpt>
      <trkpt lat="47.05584" lon="6.34891">
        <ele>765.055533</ele>
        <time>2020-10-11T08:26:39.777Z</time>
      </trkpt>
      <trkpt lat="47.05534" lon="6.34894">
        <ele>764.879261</ele>
        <time>2020-10-11T08:26:48.930Z</time>
      </trkpt>
      <trkpt lat="47.05431" lon="6.34897">
        <ele>763.914078</ele>
        <time>2020-10-11T08:27:07.657Z</time>
      </trkpt>
      <trkpt lat="47.05362" lon="6.3488">
        <ele>763.22242</ele>
        <time>2020-10-11T08:27:19.223Z</time>
      </trkpt>
      <trkpt lat="47.04969" lon="6.34677">
        <ele>754.736036</ele>
        <time>2020-10-11T08:28:23.635Z</time>
      </trkpt>
      <trkpt lat="47.04843" lon="6.34626">
        <ele>750.354937</ele>
        <time>2020-10-11T08:28:41.993Z</time>
      </trkpt>
      <trkpt lat="47.04794" lon="6.34608">
        <ele>747.752646</ele>
        <time>2020-10-11T08:28:48.697Z</time>
      </trkpt>
      <trkpt lat="47.04764" lon="6.34596">
        <ele>746.051514</ele>
        <time>2020-10-11T08:28:52.691Z</time>
      </trkpt>
      <trkpt lat="47.04652" lon="6.34557">
        <ele>739.705151</ele>
        <time>2020-10-11T08:29:07.458Z</time>
      </trkpt>
      <trkpt lat="47.04487" lon="6.34531">
        <ele>730.93024</ele>
        <time>2020-10-11T08:29:29.058Z</time>
      </trkpt>
      <trkpt lat="47.04426" lon="6.34514">
        <ele>729.023083</ele>
        <time>2020-10-11T08:29:37.676Z</time>
      </trkpt>
      <trkpt lat="47.04408" lon="6.34507">
        <ele>728.520303</ele>
        <time>2020-10-11T08:29:40.207Z</time>
      </trkpt>
      <trkpt lat="47.04393" lon="6.34499">
        <ele>728.058586</ele>
        <time>2020-10-11T08:29:42.561Z</time>
      </trkpt>
      <trkpt lat="47.04317" lon="6.34446">
        <ele>725.705209</ele>
        <time>2020-10-11T08:29:55.242Z</time>
      </trkpt>
      <trkpt lat="47.04102" lon="6.3426">
        <ele>723.694586</ele>
        <time>2020-10-11T08:30:40.430Z</time>
      </trkpt>
      <trkpt lat="47.04096" lon="6.34255">
        <ele>723.657361</ele>
        <time>2020-10-11T08:30:41.785Z</time>
      </trkpt>
      <trkpt lat="47.04038" lon="6.34206">
        <ele>723.293507</ele>
        <time>2020-10-11T08:30:54.283Z</time>
      </trkpt>
      <trkpt lat="47.03851" lon="6.34039">
        <ele>722.280609</ele>
        <time>2020-10-11T08:31:34.730Z</time>
      </trkpt>
      <trkpt lat="47.03461" lon="6.33623">
        <ele>723.712084</ele>
        <time>2020-10-11T08:33:20.834Z</time>
      </trkpt>
      <trkpt lat="47.03451" lon="6.33613">
        <ele>723.792577</ele>
        <time>2020-10-11T08:33:24.524Z</time>
      </trkpt>
      <trkpt lat="47.03441" lon="6.33605">
        <ele>723.866405</ele>
        <time>2020-10-11T08:33:28.108Z</time>
      </trkpt>
      <trkpt lat="47.03372" lon="6.3355">
        <ele>724.518334</ele>
        <time>2020-10-11T08:33:50.266Z</time>
      </trkpt>
      <trkpt lat="47.03333" lon="6.3352">
        <ele>724.955376</ele>
        <time>2020-10-11T08:34:02.467Z</time>
      </trkpt>
      <trkpt lat="47.03296" lon="6.33494">
        <ele>725.355526</ele>
        <time>2020-10-11T08:34:13.102Z</time>
      </trkpt>
      <trkpt lat="47.03278" lon="6.33478">
        <ele>725.567418</ele>
        <time>2020-10-11T08:34:17.455Z</time>
      </trkpt>
      <trkpt lat="47.03219" lon="6.33446">
        <ele>726.399325</ele>
        <time>2020-10-11T08:34:32.570Z</time>
      </trkpt>
      <trkpt lat="47.03168" lon="6.33437">
        <ele>727.233179</ele>
        <time>2020-10-11T08:34:46.866Z</time>
      </trkpt>
      <trkpt lat="47.03134" lon="6.33435">
        <ele>727.807178</ele>
        <time>2020-10-11T08:34:56.965Z</time>
      </trkpt>
      <trkpt lat="47.03108" lon="6.33435">
        <ele>728.22273</ele>
        <time>2020-10-11T08:35:05.541Z</time>
      </trkpt>
      <trkpt lat="47.03066" lon="6.33428">
        <ele>728.997091</ele>
        <time>2020-10-11T08:35:19.740Z</time>
      </trkpt>
      <trkpt lat="47.0306" lon="6.33425">
        <ele>729.191567</ele>
        <time>2020-10-11T08:35:22.338Z</time>
      </trkpt>
      <trkpt lat="47.03053" lon="6.33425">
        <ele>729.375097</ele>
        <time>2020-10-11T08:35:25.772Z</time>
      </trkpt>
      <trkpt lat="47.03014" lon="6.334">
        <ele>730.633035</ele>
        <time>2020-10-11T08:35:41.949Z</time>
      </trkpt>
      <trkpt lat="47.02981" lon="6.33371">
        <ele>731.772102</ele>
        <time>2020-10-11T08:35:58.117Z</time>
      </trkpt>
      <trkpt lat="47.0287" lon="6.33232">
        <ele>734.001237</ele>
        <time>2020-10-11T08:36:49.905Z</time>
      </trkpt>
      <trkpt lat="47.0282" lon="6.33181">
        <ele>733.867205</ele>
        <time>2020-10-11T08:37:01.960Z</time>
      </trkpt>
      <trkpt lat="47.02775" lon="6.33151">
        <ele>733.756606</ele>
        <time>2020-10-11T08:37:09.422Z</time>
      </trkpt>
      <trkpt lat="47.02698" lon="6.33111">
        <ele>729.270749</ele>
        <time>2020-10-11T08:37:20.171Z</time>
      </trkpt>
      <trkpt lat="47.02637" lon="6.33081">
        <ele>725.594245</ele>
        <time>2020-10-11T08:37:28.178Z</time>
      </trkpt>
      <trkpt lat="47.02585" lon="6.33056">
        <ele>722.592959</ele>
        <time>2020-10-11T08:37:35.076Z</time>
      </trkpt>
      <trkpt lat="47.02557" lon="6.33042">
        <ele>721.13438</ele>
        <time>2020-10-11T08:37:38.926Z</time>
      </trkpt>
      <trkpt lat="47.02543" lon="6.33034">
        <ele>720.400595</ele>
        <time>2020-10-11T08:37:40.770Z</time>
      </trkpt>
      <trkpt lat="47.02529" lon="6.33027">
        <ele>719.667953</ele>
        <time>2020-10-11T08:37:42.816Z</time>
      </trkpt>
      <trkpt lat="47.02451" lon="6.32973">
        <ele>715.405382</ele>
        <time>2020-10-11T08:37:54.381Z</time>
      </trkpt>
      <trkpt lat="47.02397" lon="6.32923">
        <ele>713.224954</ele>
        <time>2020-10-11T08:38:03.750Z</time>
      </trkpt>
      <trkpt lat="47.02367" lon="6.32893">
        <ele>712.191185</ele>
        <time>2020-10-11T08:38:09.325Z</time>
      </trkpt>
      <trkpt lat="47.02115" lon="6.32639">
        <ele>703.673432</ele>
        <time>2020-10-11T08:38:53.607Z</time>
      </trkpt>
      <trkpt lat="47.02102" lon="6.32627">
        <ele>703.319577</ele>
        <time>2020-10-11T08:38:55.808Z</time>
      </trkpt>
      <trkpt lat="47.0206" lon="6.3259">
        <ele>702.198178</ele>
        <time>2020-10-11T08:39:03.150Z</time>
      </trkpt>
      <trkpt lat="47.02002" lon="6.32553">
        <ele>700.737032</ele>
        <time>2020-10-11T08:39:12.777Z</time>
      </trkpt>
      <trkpt lat="47.01988" lon="6.32546">
        <ele>700.397812</ele>
        <time>2020-10-11T08:39:15.167Z</time>
      </trkpt>
      <trkpt lat="47.01987" lon="6.32532">
        <ele>700.185153</ele>
        <time>2020-10-11T08:39:16.485Z</time>
      </trkpt>
      <trkpt lat="47.01982" lon="6.3251">
        <ele>699.868479</ele>
        <time>2020-10-11T08:39:19.149Z</time>
      </trkpt>
      <trkpt lat="47.01973" lon="6.32497">
        <ele>699.617011</ele>
        <time>2020-10-11T08:39:21.188Z</time>
      </trkpt>
      <trkpt lat="47.01782" lon="6.32304">
        <ele>694.26573</ele>
        <time>2020-10-11T08:39:56.844Z</time>
      </trkpt>
      <trkpt lat="47.01727" lon="6.32254">
        <ele>692.351868</ele>
        <time>2020-10-11T08:40:06.224Z</time>
      </trkpt>
      <trkpt lat="47.0174" lon="6.32234">
        <ele>691.800654</ele>
        <time>2020-10-11T08:40:08.826Z</time>
      </trkpt>
      <trkpt lat="47.01752" lon="6.32215">
        <ele>691.186834</ele>
        <time>2020-10-11T08:40:11.286Z</time>
      </trkpt>
      <trkpt lat="47.01703" lon="6.32104">
        <ele>686.35509</ele>
        <time>2020-10-11T08:40:23.110Z</time>
      </trkpt>
      <trkpt lat="47.01633" lon="6.31947">
        <ele>679.391447</ele>
        <time>2020-10-11T08:40:39.625Z</time>
      </trkpt>
      <trkpt lat="47.01624" lon="6.31931">
        <ele>678.593791</ele>
        <time>2020-10-11T08:40:41.448Z</time>
      </trkpt>
      <trkpt lat="47.01595" lon="6.31885">
        <ele>676.201013</ele>
        <time>2020-10-11T08:40:46.973Z</time>
      </trkpt>
      <trkpt lat="47.01532" lon="6.31818">
        <ele>671.811425</ele>
        <time>2020-10-11T08:40:57.206Z</time>
      </trkpt>
      <trkpt lat="47.01522" lon="6.31811">
        <ele>671.2699</ele>
        <time>2020-10-11T08:40:58.613Z</time>
      </trkpt>
      <trkpt lat="47.01417" lon="6.31734">
        <ele>665.760456</ele>
        <time>2020-10-11T08:41:14.332Z</time>
      </trkpt>
      <trkpt lat="47.01344" lon="6.3167">
        <ele>662.045037</ele>
        <time>2020-10-11T08:41:25.607Z</time>
      </trkpt>
      <trkpt lat="47.01288" lon="6.31603">
        <ele>659.263132</ele>
        <time>2020-10-11T08:41:35.533Z</time>
      </trkpt>
      <trkpt lat="47.01259" lon="6.31568">
        <ele>657.831129</ele>
        <time>2020-10-11T08:41:40.734Z</time>
      </trkpt>
      <trkpt lat="47.01225" lon="6.31539">
        <ele>656.310968</ele>
        <time>2020-10-11T08:41:46.270Z</time>
      </trkpt>
      <trkpt lat="47.01077" lon="6.31443">
        <ele>651.427532</ele>
        <time>2020-10-11T08:42:09.607Z</time>
      </trkpt>
      <trkpt lat="47.00903" lon="6.3128">
        <ele>645.362532</ele>
        <time>2020-10-11T08:42:39.500Z</time>
      </trkpt>
      <trkpt lat="47.00822" lon="6.31233">
        <ele>643.083861</ele>
        <time>2020-10-11T08:42:51.768Z</time>
      </trkpt>
      <trkpt lat="47.00771" lon="6.31209">
        <ele>641.674459</ele>
        <time>2020-10-11T08:42:59.668Z</time>
      </trkpt>
      <trkpt lat="47.00741" lon="6.31199">
        <ele>640.866824</ele>
        <time>2020-10-11T08:43:04.321Z</time>
      </trkpt>
      <trkpt lat="47.00707" lon="6.31187">
        <ele>640.691606</ele>
        <time>2020-10-11T08:43:09.872Z</time>
      </trkpt>
      <trkpt lat="47.00475" lon="6.31163">
        <ele>641.102488</ele>
        <time>2020-10-11T08:43:58.347Z</time>
      </trkpt>
      <trkpt lat="47.00429" lon="6.31165">
        <ele>641.683661</ele>
        <time>2020-10-11T08:44:13.564Z</time>
      </trkpt>
      <trkpt lat="47.00383" lon="6.31177">
        <ele>642.270625</ele>
        <time>2020-10-11T08:44:30.457Z</time>
      </trkpt>
      <trkpt lat="47.0032" lon="6.31195">
        <ele>643.276222</ele>
        <time>2020-10-11T08:44:52.899Z</time>
      </trkpt>
      <trkpt lat="47.00292" lon="6.312">
        <ele>643.721134</ele>
        <time>2020-10-11T08:45:02.890Z</time>
      </trkpt>
      <trkpt lat="47.00238" lon="6.31196">
        <ele>644.568166</ele>
        <time>2020-10-11T08:45:18.695Z</time>
      </trkpt>
      <trkpt lat="47.00207" lon="6.31182">
        <ele>645.081867</ele>
        <time>2020-10-11T08:45:26.211Z</time>
      </trkpt>
      <trkpt lat="47.00171" lon="6.31149">
        <ele>643.47956</ele>
        <time>2020-10-11T08:45:33.872Z</time>
      </trkpt>
      <trkpt lat="47.00134" lon="6.31093">
        <ele>641.440785</ele>
        <time>2020-10-11T08:45:41.318Z</time>
      </trkpt>
      <trkpt lat="47.0012" lon="6.31065">
        <ele>640.524109</ele>
        <time>2020-10-11T08:45:44.442Z</time>
      </trkpt>
      <trkpt lat="47.00104" lon="6.31003">
        <ele>638.803798</ele>
        <time>2020-10-11T08:45:50.177Z</time>
      </trkpt>
      <trkpt lat="47.00085" lon="6.30901">
        <ele>634.593675</ele>
        <time>2020-10-11T08:45:59.327Z</time>
      </trkpt>
      <trkpt lat="47.00083" lon="6.30843">
        <ele>632.069806</ele>
        <time>2020-10-11T08:46:04.295Z</time>
      </trkpt>
      <trkpt lat="47.00089" lon="6.30649">
        <ele>624.718772</ele>
        <time>2020-10-11T08:46:21.380Z</time>
      </trkpt>
      <trkpt lat="47.00083" lon="6.3053">
        <ele>621.345715</ele>
        <time>2020-10-11T08:46:32.714Z</time>
      </trkpt>
      <trkpt lat="47.00084" lon="6.30454">
        <ele>619.241413</ele>
        <time>2020-10-11T08:46:40.115Z</time>
      </trkpt>
      <trkpt lat="47.00099" lon="6.30271">
        <ele>616.016459</ele>
        <time>2020-10-11T08:46:58.656Z</time>
      </trkpt>
      <trkpt lat="47.00093" lon="6.30223">
        <ele>615.15092</ele>
        <time>2020-10-11T08:47:03.692Z</time>
      </trkpt>
      <trkpt lat="47.00085" lon="6.30204">
        <ele>614.766167</ele>
        <time>2020-10-11T08:47:05.928Z</time>
      </trkpt>
      <trkpt lat="47.00059" lon="6.30177">
        <ele>614.291635</ele>
        <time>2020-10-11T08:47:10.671Z</time>
      </trkpt>
      <trkpt lat="46.99903" lon="6.30122">
        <ele>612.481741</ele>
        <time>2020-10-11T08:47:36.333Z</time>
      </trkpt>
      <trkpt lat="46.99876" lon="6.30104">
        <ele>613.387497</ele>
        <time>2020-10-11T08:47:45.422Z</time>
      </trkpt>
      <trkpt lat="46.99865" lon="6.30089">
        <ele>613.849053</ele>
        <time>2020-10-11T08:47:50.376Z</time>
      </trkpt>
      <trkpt lat="46.9986" lon="6.30076">
        <ele>614.155551</ele>
        <time>2020-10-11T08:47:53.637Z</time>
      </trkpt>
      <trkpt lat="46.99853" lon="6.30057">
        <ele>614.590375</ele>
        <time>2020-10-11T08:47:58.924Z</time>
      </trkpt>
      <trkpt lat="46.99848" lon="6.30007">
        <ele>615.622351</ele>
        <time>2020-10-11T08:48:12.431Z</time>
      </trkpt>
      <trkpt lat="46.99853" lon="6.29947">
        <ele>616.869809</ele>
        <time>2020-10-11T08:48:31.080Z</time>
      </trkpt>
      <trkpt lat="46.99848" lon="6.29917">
        <ele>617.501322</ele>
        <time>2020-10-11T08:48:43.768Z</time>
      </trkpt>
      <trkpt lat="46.99853" lon="6.29842">
        <ele>620.904656</ele>
        <time>2020-10-11T08:49:16.108Z</time>
      </trkpt>
      <trkpt lat="46.99861" lon="6.29807">
        <ele>622.661917</ele>
        <time>2020-10-11T08:49:33.180Z</time>
      </trkpt>
      <trkpt lat="46.99895" lon="6.29703">
        <ele>628.144672</ele>
        <time>2020-10-11T08:50:33.277Z</time>
      </trkpt>
      <trkpt lat="46.99905" lon="6.2962">
        <ele>631.395125</ele>
        <time>2020-10-11T08:51:11.701Z</time>
      </trkpt>
      <trkpt lat="46.999" lon="6.29591">
        <ele>632.253101</ele>
        <time>2020-10-11T08:51:20.872Z</time>
      </trkpt>
      <trkpt lat="46.99894" lon="6.29572">
        <ele>632.83631</ele>
        <time>2020-10-11T08:51:30.126Z</time>
      </trkpt>
      <trkpt lat="46.99886" lon="6.29563">
        <ele>633.262405</ele>
        <time>2020-10-11T08:51:35.418Z</time>
      </trkpt>
      <trkpt lat="46.99879" lon="6.29552">
        <ele>633.663837</ele>
        <time>2020-10-11T08:51:38.460Z</time>
      </trkpt>
      <trkpt lat="46.99871" lon="6.29533">
        <ele>634.299904</ele>
        <time>2020-10-11T08:51:47.523Z</time>
      </trkpt>
      <trkpt lat="46.99869" lon="6.29481">
        <ele>635.778053</ele>
        <time>2020-10-11T08:52:04.283Z</time>
      </trkpt>
      <trkpt lat="46.99861" lon="6.29413">
        <ele>637.717062</ele>
        <time>2020-10-11T08:52:25.316Z</time>
      </trkpt>
      <trkpt lat="46.99859" lon="6.2939">
        <ele>637.901996</ele>
        <time>2020-10-11T08:52:30.285Z</time>
      </trkpt>
      <trkpt lat="46.99858" lon="6.2938">
        <ele>637.991535</ele>
        <time>2020-10-11T08:52:34.806Z</time>
      </trkpt>
      <trkpt lat="46.99842" lon="6.29379">
        <ele>638.183928</ele>
        <time>2020-10-11T08:52:40.156Z</time>
      </trkpt>
      <trkpt lat="46.99819" lon="6.29375">
        <ele>638.460103</ele>
        <time>2020-10-11T08:52:45.966Z</time>
      </trkpt>
      <trkpt lat="46.99796" lon="6.29367">
        <ele>638.74235</ele>
        <time>2020-10-11T08:52:50.139Z</time>
      </trkpt>
      <trkpt lat="46.99789" lon="6.29364">
        <ele>638.836367</ele>
        <time>2020-10-11T08:52:51.907Z</time>
      </trkpt>
      <trkpt lat="46.99768" lon="6.29352">
        <ele>639.101148</ele>
        <time>2020-10-11T08:52:56.562Z</time>
      </trkpt>
      <trkpt lat="46.99762" lon="6.29349">
        <ele>639.180055</ele>
        <time>2020-10-11T08:52:57.795Z</time>
      </trkpt>
      <trkpt lat="46.9975" lon="6.29339">
        <ele>639.343509</ele>
        <time>2020-10-11T08:53:01.557Z</time>
      </trkpt>
      <trkpt lat="46.99738" lon="6.29321">
        <ele>639.552721</ele>
        <time>2020-10-11T08:53:05.459Z</time>
      </trkpt>
      <trkpt lat="46.99734" lon="6.29309">
        <ele>639.665329</ele>
        <time>2020-10-11T08:53:07.771Z</time>
      </trkpt>
      <trkpt lat="46.99732" lon="6.29297">
        <ele>639.760483</ele>
        <time>2020-10-11T08:53:10.462Z</time>
      </trkpt>
      <trkpt lat="46.99731" lon="6.29274">
        <ele>639.978972</ele>
        <time>2020-10-11T08:53:15.292Z</time>
      </trkpt>
      <trkpt lat="46.99731" lon="6.29175">
        <ele>641.139934</ele>
        <time>2020-10-11T08:53:38.154Z</time>
      </trkpt>
      <trkpt lat="46.99731" lon="6.29133">
        <ele>641.631158</ele>
        <time>2020-10-11T08:53:47.474Z</time>
      </trkpt>
      <trkpt lat="46.9973" lon="6.29088">
        <ele>642.15862</ele>
        <time>2020-10-11T08:53:56.890Z</time>
      </trkpt>
      <trkpt lat="46.99728" lon="6.2907">
        <ele>642.36313</ele>
        <time>2020-10-11T08:54:00.401Z</time>
      </trkpt>
      <trkpt lat="46.99714" lon="6.29034">
        <ele>642.851243</ele>
        <time>2020-10-11T08:54:08.741Z</time>
      </trkpt>
      <trkpt lat="46.99704" lon="6.29017">
        <ele>643.005666</ele>
        <time>2020-10-11T08:54:13.102Z</time>
      </trkpt>
      <trkpt lat="46.99678" lon="6.28991">
        <ele>643.186062</ele>
        <time>2020-10-11T08:54:21.298Z</time>
      </trkpt>
      <trkpt lat="46.99651" lon="6.28981">
        <ele>643.343474</ele>
        <time>2020-10-11T08:54:27.994Z</time>
      </trkpt>
      <trkpt lat="46.99566" lon="6.28972">
        <ele>643.83216</ele>
        <time>2020-10-11T08:54:47.567Z</time>
      </trkpt>
      <trkpt lat="46.99552" lon="6.28973">
        <ele>643.910824</ele>
        <time>2020-10-11T08:54:50.252Z</time>
      </trkpt>
      <trkpt lat="46.99524" lon="6.28986">
        <ele>644.06146</ele>
        <time>2020-10-11T08:54:56.716Z</time>
      </trkpt>
      <trkpt lat="46.99501" lon="6.2902">
        <ele>644.210111</ele>
        <time>2020-10-11T08:55:03.630Z</time>
      </trkpt>
      <trkpt lat="46.99492" lon="6.29052">
        <ele>644.315468</ele>
        <time>2020-10-11T08:55:08.370Z</time>
      </trkpt>
      <trkpt lat="46.99479" lon="6.2929">
        <ele>645.461957</ele>
        <time>2020-10-11T08:55:49.048Z</time>
      </trkpt>
      <trkpt lat="46.99471" lon="6.29333">
        <ele>645.810531</ele>
        <time>2020-10-11T08:55:57.486Z</time>
      </trkpt>
      <trkpt lat="46.99465" lon="6.29354">
        <ele>645.9893</ele>
        <time>2020-10-11T08:56:02.018Z</time>
      </trkpt>
      <trkpt lat="46.99464" lon="6.29361">
        <ele>646.04709</ele>
        <time>2020-10-11T08:56:03.956Z</time>
      </trkpt>
      <trkpt lat="46.99438" lon="6.29411">
        <ele>646.540877</ele>
        <time>2020-10-11T08:56:15.620Z</time>
      </trkpt>
      <trkpt lat="46.99387" lon="6.29466">
        <ele>647.233994</ele>
        <time>2020-10-11T08:56:33.503Z</time>
      </trkpt>
      <trkpt lat="46.99273" lon="6.29573">
        <ele>648.634003</ele>
        <time>2020-10-11T08:57:07.767Z</time>
      </trkpt>
      <trkpt lat="46.99169" lon="6.29671">
        <ele>650.554994</ele>
        <time>2020-10-11T08:57:43.361Z</time>
      </trkpt>
      <trkpt lat="46.99144" lon="6.29691">
        <ele>651.011255</ele>
        <time>2020-10-11T08:57:52.313Z</time>
      </trkpt>
      <trkpt lat="46.99138" lon="6.29695">
        <ele>651.114877</ele>
        <time>2020-10-11T08:57:54.207Z</time>
      </trkpt>
      <trkpt lat="46.99127" lon="6.29701">
        <ele>651.294325</ele>
        <time>2020-10-11T08:57:58.523Z</time>
      </trkpt>
      <trkpt lat="46.99082" lon="6.29714">
        <ele>652.195986</ele>
        <time>2020-10-11T08:58:13.134Z</time>
      </trkpt>
      <trkpt lat="46.98992" lon="6.29698">
        <ele>654.236169</ele>
        <time>2020-10-11T08:58:43.519Z</time>
      </trkpt>
      <trkpt lat="46.9891" lon="6.29704">
        <ele>656.287445</ele>
        <time>2020-10-11T08:59:10.735Z</time>
      </trkpt>
      <trkpt lat="46.98866" lon="6.29697">
        <ele>657.769674</ele>
        <time>2020-10-11T08:59:26.476Z</time>
      </trkpt>
      <trkpt lat="46.98823" lon="6.29677">
        <ele>659.249049</ele>
        <time>2020-10-11T08:59:43.493Z</time>
      </trkpt>
      <trkpt lat="46.98792" lon="6.29654">
        <ele>660.437402</ele>
        <time>2020-10-11T08:59:58.120Z</time>
      </trkpt>
      <trkpt lat="46.98664" lon="6.29521">
        <ele>667.588441</ele>
        <time>2020-10-11T09:01:12.233Z</time>
      </trkpt>
      <trkpt lat="46.98632" lon="6.29481">
        <ele>669.707043</ele>
        <time>2020-10-11T09:01:34.718Z</time>
      </trkpt>
      <trkpt lat="46.9852" lon="6.2927">
        <ele>678.835415</ele>
        <time>2020-10-11T09:03:05.610Z</time>
      </trkpt>
      <trkpt lat="46.98469" lon="6.29184">
        <ele>681.713476</ele>
        <time>2020-10-11T09:03:39.231Z</time>
      </trkpt>
      <trkpt lat="46.98413" lon="6.29107">
        <ele>684.322576</ele>
        <time>2020-10-11T09:04:09.268Z</time>
      </trkpt>
      <trkpt lat="46.98331" lon="6.28964">
        <ele>687.69571</ele>
        <time>2020-10-11T09:04:52.684Z</time>
      </trkpt>
      <trkpt lat="46.98206" lon="6.28725">
        <ele>692.77761</ele>
        <time>2020-10-11T09:06:00.281Z</time>
      </trkpt>
      <trkpt lat="46.98141" lon="6.28582">
        <ele>696.611202</ele>
        <time>2020-10-11T09:06:46.491Z</time>
      </trkpt>
      <trkpt lat="46.98107" lon="6.28543">
        <ele>698.379686</ele>
        <time>2020-10-11T09:07:05.424Z</time>
      </trkpt>
      <trkpt lat="46.97985" lon="6.28455">
        <ele>704.292647</ele>
        <time>2020-10-11T09:08:09.581Z</time>
      </trkpt>
      <trkpt lat="46.97884" lon="6.28337">
        <ele>710.325201</ele>
        <time>2020-10-11T09:09:10.957Z</time>
      </trkpt>
      <trkpt lat="46.97869" lon="6.28289">
        <ele>711.714506</ele>
        <time>2020-10-11T09:09:26.681Z</time>
      </trkpt>
      <trkpt lat="46.97865" lon="6.2822">
        <ele>713.529811</ele>
        <time>2020-10-11T09:09:46.596Z</time>
      </trkpt>
      <trkpt lat="46.97853" lon="6.28032">
        <ele>718.694724</ele>
        <time>2020-10-11T09:10:38.956Z</time>
      </trkpt>
      <trkpt lat="46.97846" lon="6.27978">
        <ele>720.396653</ele>
        <time>2020-10-11T09:10:55.160Z</time>
      </trkpt>
      <trkpt lat="46.97835" lon="6.27947">
        <ele>721.496337</ele>
        <time>2020-10-11T09:11:06.355Z</time>
      </trkpt>
      <trkpt lat="46.9783" lon="6.27936">
        <ele>721.901579</ele>
        <time>2020-10-11T09:11:10.472Z</time>
      </trkpt>
      <trkpt lat="46.9782" lon="6.27922">
        <ele>722.518299</ele>
        <time>2020-10-11T09:11:16.888Z</time>
      </trkpt>
      <trkpt lat="46.97803" lon="6.27904">
        <ele>723.502556</ele>
        <time>2020-10-11T09:11:27.573Z</time>
      </trkpt>
      <trkpt lat="46.97787" lon="6.27889">
        <ele>724.349028</ele>
        <time>2020-10-11T09:11:36.835Z</time>
      </trkpt>
      <trkpt lat="46.97764" lon="6.27873">
        <ele>725.503569</ele>
        <time>2020-10-11T09:11:49.682Z</time>
      </trkpt>
      <trkpt lat="46.9774" lon="6.27868">
        <ele>726.688042</ele>
        <time>2020-10-11T09:12:03.074Z</time>
      </trkpt>
      <trkpt lat="46.97695" lon="6.2786">
        <ele>728.876627</ele>
        <time>2020-10-11T09:12:26.212Z</time>
      </trkpt>
      <trkpt lat="46.97674" lon="6.27855">
        <ele>729.902464</ele>
        <time>2020-10-11T09:12:37.129Z</time>
      </trkpt>
      <trkpt lat="46.97661" lon="6.27849">
        <ele>730.548103</ele>
        <time>2020-10-11T09:12:43.265Z</time>
      </trkpt>
      <trkpt lat="46.97635" lon="6.27837">
        <ele>731.843204</ele>
        <time>2020-10-11T09:12:56.900Z</time>
      </trkpt>
      <trkpt lat="46.97599" lon="6.27819">
        <ele>733.679531</ele>
        <time>2020-10-11T09:13:14.503Z</time>
      </trkpt>
      <trkpt lat="46.97584" lon="6.27811">
        <ele>734.223955</ele>
        <time>2020-10-11T09:13:20.807Z</time>
      </trkpt>
      <trkpt lat="46.97575" lon="6.27803">
        <ele>734.381813</ele>
        <time>2020-10-11T09:13:25.359Z</time>
      </trkpt>
      <trkpt lat="46.97508" lon="6.27728">
        <ele>735.653766</ele>
        <time>2020-10-11T09:13:51.653Z</time>
      </trkpt>
      <trkpt lat="46.9746" lon="6.27681">
        <ele>736.518405</ele>
        <time>2020-10-11T09:14:04.334Z</time>
      </trkpt>
      <trkpt lat="46.97443" lon="6.27666">
        <ele>736.815552</ele>
        <time>2020-10-11T09:14:08.276Z</time>
      </trkpt>
      <trkpt lat="46.97435" lon="6.2766">
        <ele>736.868466</ele>
        <time>2020-10-11T09:14:10.078Z</time>
      </trkpt>
      <trkpt lat="46.97417" lon="6.27652">
        <ele>736.942532</ele>
        <time>2020-10-11T09:14:13.904Z</time>
      </trkpt>
      <trkpt lat="46.97396" lon="6.27643">
        <ele>737.031711</ele>
        <time>2020-10-11T09:14:18.608Z</time>
      </trkpt>
      <trkpt lat="46.97362" lon="6.2763">
        <ele>737.173394</ele>
        <time>2020-10-11T09:14:26.370Z</time>
      </trkpt>
      <trkpt lat="46.97333" lon="6.27618">
        <ele>737.294231</ele>
        <time>2020-10-11T09:14:33.237Z</time>
      </trkpt>
      <trkpt lat="46.97297" lon="6.27604">
        <ele>737.442485</ele>
        <time>2020-10-11T09:14:41.754Z</time>
      </trkpt>
      <trkpt lat="46.97286" lon="6.276">
        <ele>737.487887</ele>
        <time>2020-10-11T09:14:44.351Z</time>
      </trkpt>
      <trkpt lat="46.9727" lon="6.27593">
        <ele>737.557214</ele>
        <time>2020-10-11T09:14:48.850Z</time>
      </trkpt>
      <trkpt lat="46.97241" lon="6.27582">
        <ele>738.014549</ele>
        <time>2020-10-11T09:14:56.618Z</time>
      </trkpt>
      <trkpt lat="46.97201" lon="6.27565">
        <ele>738.686491</ele>
        <time>2020-10-11T09:15:09.185Z</time>
      </trkpt>
      <trkpt lat="46.97166" lon="6.27545">
        <ele>739.284171</ele>
        <time>2020-10-11T09:15:21.148Z</time>
      </trkpt>
      <trkpt lat="46.97152" lon="6.27544">
        <ele>739.494484</ele>
        <time>2020-10-11T09:15:25.256Z</time>
      </trkpt>
      <trkpt lat="46.97149" lon="6.27543">
        <ele>739.556697</ele>
        <time>2020-10-11T09:15:26.592Z</time>
      </trkpt>
      <trkpt lat="46.97092" lon="6.27569">
        <ele>740.483143</ele>
        <time>2020-10-11T09:15:45.116Z</time>
      </trkpt>
      <trkpt lat="46.97073" lon="6.27578">
        <ele>740.741449</ele>
        <time>2020-10-11T09:15:51.171Z</time>
      </trkpt>
      <trkpt lat="46.97054" lon="6.27587">
        <ele>741.004967</ele>
        <time>2020-10-11T09:15:56.901Z</time>
      </trkpt>
      <trkpt lat="46.97043" lon="6.27586">
        <ele>741.138674</ele>
        <time>2020-10-11T09:16:00.011Z</time>
      </trkpt>
      <trkpt lat="46.96862" lon="6.27552">
        <ele>743.178063</ele>
        <time>2020-10-11T09:16:49.157Z</time>
      </trkpt>
      <trkpt lat="46.96858" lon="6.27552">
        <ele>743.210432</ele>
        <time>2020-10-11T09:16:50.542Z</time>
      </trkpt>
      <trkpt lat="46.96849" lon="6.2755">
        <ele>743.276676</ele>
        <time>2020-10-11T09:16:52.846Z</time>
      </trkpt>
      <trkpt lat="46.96811" lon="6.27549">
        <ele>743.55215</ele>
        <time>2020-10-11T09:17:02.061Z</time>
      </trkpt>
      <trkpt lat="46.96753" lon="6.27561">
        <ele>743.977833</ele>
        <time>2020-10-11T09:17:15.327Z</time>
      </trkpt>
      <trkpt lat="46.96725" lon="6.27555">
        <ele>744.15495</ele>
        <time>2020-10-11T09:17:21.891Z</time>
      </trkpt>
      <trkpt lat="46.96699" lon="6.27544">
        <ele>744.302238</ele>
        <time>2020-10-11T09:17:28.448Z</time>
      </trkpt>
      <trkpt lat="46.96687" lon="6.27535">
        <ele>744.37257</ele>
        <time>2020-10-11T09:17:31.179Z</time>
      </trkpt>
      <trkpt lat="46.96651" lon="6.27503">
        <ele>744.602457</ele>
        <time>2020-10-11T09:17:41.254Z</time>
      </trkpt>
      <trkpt lat="46.96623" lon="6.27469">
        <ele>744.797485</ele>
        <time>2020-10-11T09:17:50.055Z</time>
      </trkpt>
      <trkpt lat="46.9657" lon="6.27403">
        <ele>745.200973</ele>
        <time>2020-10-11T09:18:06.896Z</time>
      </trkpt>
      <trkpt lat="46.96563" lon="6.27394">
        <ele>745.266428</ele>
        <time>2020-10-11T09:18:09.501Z</time>
      </trkpt>
      <trkpt lat="46.96561" lon="6.27391">
        <ele>745.283168</ele>
        <time>2020-10-11T09:18:10.133Z</time>
      </trkpt>
      <trkpt lat="46.96519" lon="6.2734">
        <ele>745.647312</ele>
        <time>2020-10-11T09:18:23.587Z</time>
      </trkpt>
      <trkpt lat="46.96477" lon="6.27296">
        <ele>745.994273</ele>
        <time>2020-10-11T09:18:36.826Z</time>
      </trkpt>
      <trkpt lat="46.96447" lon="6.27269">
        <ele>746.231259</ele>
        <time>2020-10-11T09:18:45.437Z</time>
      </trkpt>
      <trkpt lat="46.96399" lon="6.27228">
        <ele>746.44709</ele>
        <time>2020-10-11T09:18:57.885Z</time>
      </trkpt>
      <trkpt lat="46.96314" lon="6.2716">
        <ele>746.819552</ele>
        <time>2020-10-11T09:19:19.236Z</time>
      </trkpt>
      <trkpt lat="46.96272" lon="6.27124">
        <ele>747.088681</ele>
        <time>2020-10-11T09:19:30.949Z</time>
      </trkpt>
      <trkpt lat="46.96234" lon="6.27084">
        <ele>747.448643</ele>
        <time>2020-10-11T09:19:42.614Z</time>
      </trkpt>
      <trkpt lat="46.96224" lon="6.27071">
        <ele>747.553979</ele>
        <time>2020-10-11T09:19:46.085Z</time>
      </trkpt>
      <trkpt lat="46.96215" lon="6.27059">
        <ele>747.644786</ele>
        <time>2020-10-11T09:19:48.991Z</time>
      </trkpt>
      <trkpt lat="46.96213" lon="6.27057">
        <ele>747.666764</ele>
        <time>2020-10-11T09:19:49.782Z</time>
      </trkpt>
      <trkpt lat="46.96177" lon="6.27011">
        <ele>748.035792</ele>
        <time>2020-10-11T09:20:02.344Z</time>
      </trkpt>
      <trkpt lat="46.96145" lon="6.2697">
        <ele>748.302026</ele>
        <time>2020-10-11T09:20:13.688Z</time>
      </trkpt>
      <trkpt lat="46.96104" lon="6.26918">
        <ele>748.096828</ele>
        <time>2020-10-11T09:20:26.543Z</time>
      </trkpt>
      <trkpt lat="46.96095" lon="6.26904">
        <ele>748.043923</ele>
        <time>2020-10-11T09:20:29.314Z</time>
      </trkpt>
      <trkpt lat="46.96088" lon="6.26898">
        <ele>748.012954</ele>
        <time>2020-10-11T09:20:30.985Z</time>
      </trkpt>
      <trkpt lat="46.96071" lon="6.26876">
        <ele>747.927767</ele>
        <time>2020-10-11T09:20:35.144Z</time>
      </trkpt>
      <trkpt lat="46.96041" lon="6.26835">
        <ele>747.769767</ele>
        <time>2020-10-11T09:20:42.234Z</time>
      </trkpt>
      <trkpt lat="46.96029" lon="6.26813">
        <ele>747.694781</ele>
        <time>2020-10-11T09:20:45.481Z</time>
      </trkpt>
      <trkpt lat="46.96004" lon="6.26762">
        <ele>747.209038</ele>
        <time>2020-10-11T09:20:52.066Z</time>
      </trkpt>
      <trkpt lat="46.959" lon="6.26598">
        <ele>744.718373</ele>
        <time>2020-10-11T09:21:15.908Z</time>
      </trkpt>
      <trkpt lat="46.95842" lon="6.26525">
        <ele>745.259485</ele>
        <time>2020-10-11T09:21:31.281Z</time>
      </trkpt>
      <trkpt lat="46.95777" lon="6.26446">
        <ele>745.855398</ele>
        <time>2020-10-11T09:21:55.836Z</time>
      </trkpt>
      <trkpt lat="46.95733" lon="6.26393">
        <ele>746.573253</ele>
        <time>2020-10-11T09:22:14.683Z</time>
      </trkpt>
      <trkpt lat="46.95708" lon="6.26372">
        <ele>747.015363</ele>
        <time>2020-10-11T09:22:24.096Z</time>
      </trkpt>
      <trkpt lat="46.95694" lon="6.2636">
        <ele>747.267274</ele>
        <time>2020-10-11T09:22:29.081Z</time>
      </trkpt>
      <trkpt lat="46.95688" lon="6.26355">
        <ele>747.372349</ele>
        <time>2020-10-11T09:22:31.048Z</time>
      </trkpt>
      <trkpt lat="46.95683" lon="6.2635">
        <ele>747.468955</ele>
        <time>2020-10-11T09:22:32.874Z</time>
      </trkpt>
      <trkpt lat="46.95681" lon="6.26349">
        <ele>747.498518</ele>
        <time>2020-10-11T09:22:33.648Z</time>
      </trkpt>
      <trkpt lat="46.9567" lon="6.26337">
        <ele>747.713672</ele>
        <time>2020-10-11T09:22:37.682Z</time>
      </trkpt>
      <trkpt lat="46.9564" lon="6.26291">
        <ele>748.376491</ele>
        <time>2020-10-11T09:22:49.822Z</time>
      </trkpt>
      <trkpt lat="46.956" lon="6.26219">
        <ele>748.864675</ele>
        <time>2020-10-11T09:23:05.969Z</time>
      </trkpt>
      <trkpt lat="46.95584" lon="6.26198">
        <ele>748.920287</ele>
        <time>2020-10-11T09:23:10.690Z</time>
      </trkpt>
      <trkpt lat="46.95559" lon="6.26174">
        <ele>748.995142</ele>
        <time>2020-10-11T09:23:16.439Z</time>
      </trkpt>
      <trkpt lat="46.95509" lon="6.26113">
        <ele>749.163302</ele>
        <time>2020-10-11T09:23:29.415Z</time>
      </trkpt>
      <trkpt lat="46.95497" lon="6.26094">
        <ele>749.207924</ele>
        <time>2020-10-11T09:23:33.278Z</time>
      </trkpt>
      <trkpt lat="46.95484" lon="6.26075">
        <ele>749.277359</ele>
        <time>2020-10-11T09:23:37.590Z</time>
      </trkpt>
      <trkpt lat="46.95467" lon="6.2603">
        <ele>749.433801</ele>
        <time>2020-10-11T09:23:45.802Z</time>
      </trkpt>
      <trkpt lat="46.95459" lon="6.26008">
        <ele>749.51102</ele>
        <time>2020-10-11T09:23:50.043Z</time>
      </trkpt>
      <trkpt lat="46.95438" lon="6.25955">
        <ele>749.70069</ele>
        <time>2020-10-11T09:24:00.074Z</time>
      </trkpt>
      <trkpt lat="46.95409" lon="6.25909">
        <ele>749.894727</ele>
        <time>2020-10-11T09:24:10.007Z</time>
      </trkpt>
      <trkpt lat="46.95403" lon="6.259">
        <ele>749.932882</ele>
        <time>2020-10-11T09:24:12.170Z</time>
      </trkpt>
      <trkpt lat="46.9534" lon="6.25788">
        <ele>750.079628</ele>
        <time>2020-10-11T09:24:35.335Z</time>
      </trkpt>
      <trkpt lat="46.95333" lon="6.25774">
        <ele>750.085747</ele>
        <time>2020-10-11T09:24:38.131Z</time>
      </trkpt>
      <trkpt lat="46.95287" lon="6.25683">
        <ele>750.126715</ele>
        <time>2020-10-11T09:24:53.539Z</time>
      </trkpt>
      <trkpt lat="46.95271" lon="6.25652">
        <ele>750.045792</ele>
        <time>2020-10-11T09:24:58.439Z</time>
      </trkpt>
      <trkpt lat="46.95265" lon="6.25639">
        <ele>749.951026</ele>
        <time>2020-10-11T09:25:00.399Z</time>
      </trkpt>
      <trkpt lat="46.95209" lon="6.25533">
        <ele>749.189124</ele>
        <time>2020-10-11T09:25:16.415Z</time>
      </trkpt>
      <trkpt lat="46.9518" lon="6.25487">
        <ele>748.831306</ele>
        <time>2020-10-11T09:25:23.731Z</time>
      </trkpt>
      <trkpt lat="46.95157" lon="6.2545">
        <ele>748.557195</ele>
        <time>2020-10-11T09:25:29.489Z</time>
      </trkpt>
      <trkpt lat="46.95112" lon="6.25385">
        <ele>748.092504</ele>
        <time>2020-10-11T09:25:40.249Z</time>
      </trkpt>
      <trkpt lat="46.94985" lon="6.25256">
        <ele>747.245868</ele>
        <time>2020-10-11T09:26:08.492Z</time>
      </trkpt>
      <trkpt lat="46.94962" lon="6.25242">
        <ele>747.212961</ele>
        <time>2020-10-11T09:26:13.772Z</time>
      </trkpt>
      <trkpt lat="46.94921" lon="6.25229">
        <ele>747.159749</ele>
        <time>2020-10-11T09:26:22.470Z</time>
      </trkpt>
      <trkpt lat="46.94895" lon="6.2521">
        <ele>747.121907</ele>
        <time>2020-10-11T09:26:28.397Z</time>
      </trkpt>
      <trkpt lat="46.94876" lon="6.25187">
        <ele>747.09025</ele>
        <time>2020-10-11T09:26:33.659Z</time>
      </trkpt>
      <trkpt lat="46.94824" lon="6.25099">
        <ele>747.62613</ele>
        <time>2020-10-11T09:26:51.260Z</time>
      </trkpt>
      <trkpt lat="46.94803" lon="6.25036">
        <ele>748.006625</ele>
        <time>2020-10-11T09:27:03.278Z</time>
      </trkpt>
      <trkpt lat="46.94784" lon="6.24967">
        <ele>748.414583</ele>
        <time>2020-10-11T09:27:17.108Z</time>
      </trkpt>
      <trkpt lat="46.94763" lon="6.24924">
        <ele>749.117839</ele>
        <time>2020-10-11T09:27:27.413Z</time>
      </trkpt>
      <trkpt lat="46.94552" lon="6.24635">
        <ele>757.1939</ele>
        <time>2020-10-11T09:29:15.116Z</time>
      </trkpt>
      <trkpt lat="46.94338" lon="6.24451">
        <ele>764.865887</ele>
        <time>2020-10-11T09:30:50.510Z</time>
      </trkpt>
      <trkpt lat="46.9427" lon="6.24365">
        <ele>767.414712</ele>
        <time>2020-10-11T09:31:22.966Z</time>
      </trkpt>
      <trkpt lat="46.9419" lon="6.24227">
        <ele>771.249762</ele>
        <time>2020-10-11T09:32:08.238Z</time>
      </trkpt>
      <trkpt lat="46.94112" lon="6.24066">
        <ele>775.989257</ele>
        <time>2020-10-11T09:33:02.962Z</time>
      </trkpt>
      <trkpt lat="46.93914" lon="6.23771">
        <ele>789.533193</ele>
        <time>2020-10-11T09:35:15.836Z</time>
      </trkpt>
      <trkpt lat="46.93877" lon="6.23685">
        <ele>793.177176</ele>
        <time>2020-10-11T09:35:53.191Z</time>
      </trkpt>
      <trkpt lat="46.9385" lon="6.23544">
        <ele>799.679153</ele>
        <time>2020-10-11T09:36:51.059Z</time>
      </trkpt>
      <trkpt lat="46.93829" lon="6.23339">
        <ele>808.238353</ele>
        <time>2020-10-11T09:38:12.846Z</time>
      </trkpt>
      <trkpt lat="46.93827" lon="6.2324">
        <ele>811.946047</ele>
        <time>2020-10-11T09:38:47.899Z</time>
      </trkpt>
      <trkpt lat="46.93835" lon="6.23175">
        <ele>814.415428</ele>
        <time>2020-10-11T09:39:08.791Z</time>
      </trkpt>
      <trkpt lat="46.93856" lon="6.23097">
        <ele>816.392649</ele>
        <time>2020-10-11T09:39:32.088Z</time>
      </trkpt>
      <trkpt lat="46.93885" lon="6.23026">
        <ele>818.253203</ele>
        <time>2020-10-11T09:39:52.820Z</time>
      </trkpt>
      <trkpt lat="46.93921" lon="6.22985">
        <ele>819.758663</ele>
        <time>2020-10-11T09:40:10.303Z</time>
      </trkpt>
      <trkpt lat="46.93998" lon="6.22933">
        <ele>822.607211</ele>
        <time>2020-10-11T09:40:42.405Z</time>
      </trkpt>
      <trkpt lat="46.94047" lon="6.229">
        <ele>824.427339</ele>
        <time>2020-10-11T09:41:03.820Z</time>
      </trkpt>
      <trkpt lat="46.94087" lon="6.22862">
        <ele>826.072657</ele>
        <time>2020-10-11T09:41:24.085Z</time>
      </trkpt>
      <trkpt lat="46.94116" lon="6.2279">
        <ele>827.599666</ele>
        <time>2020-10-11T09:41:47.996Z</time>
      </trkpt>
      <trkpt lat="46.94116" lon="6.22725">
        <ele>828.654344</ele>
        <time>2020-10-11T09:42:04.631Z</time>
      </trkpt>
      <trkpt lat="46.94119" lon="6.22689">
        <ele>829.233287</ele>
        <time>2020-10-11T09:42:13.033Z</time>
      </trkpt>
      <trkpt lat="46.94137" lon="6.22404">
        <ele>832.598165</ele>
        <time>2020-10-11T09:43:06.375Z</time>
      </trkpt>
      <trkpt lat="46.94127" lon="6.22236">
        <ele>834.442936</ele>
        <time>2020-10-11T09:43:41.414Z</time>
      </trkpt>
      <trkpt lat="46.94116" lon="6.22197">
        <ele>834.973116</ele>
        <time>2020-10-11T09:43:50.664Z</time>
      </trkpt>
      <trkpt lat="46.941" lon="6.22169">
        <ele>835.417995</ele>
        <time>2020-10-11T09:43:58.824Z</time>
      </trkpt>
      <trkpt lat="46.94072" lon="6.22135">
        <ele>836.106567</ele>
        <time>2020-10-11T09:44:10.832Z</time>
      </trkpt>
      <trkpt lat="46.94009" lon="6.22085">
        <ele>836.759361</ele>
        <time>2020-10-11T09:44:32.694Z</time>
      </trkpt>
      <trkpt lat="46.9393" lon="6.21988">
        <ele>836.983605</ele>
        <time>2020-10-11T09:44:55.653Z</time>
      </trkpt>
      <trkpt lat="46.93922" lon="6.21976">
        <ele>837.009593</ele>
        <time>2020-10-11T09:44:57.579Z</time>
      </trkpt>
      <trkpt lat="46.93856" lon="6.21883">
        <ele>835.594208</ele>
        <time>2020-10-11T09:45:12.165Z</time>
      </trkpt>
      <trkpt lat="46.93845" lon="6.21861">
        <ele>835.188733</ele>
        <time>2020-10-11T09:45:14.858Z</time>
      </trkpt>
      <trkpt lat="46.93823" lon="6.21817">
        <ele>834.370261</ele>
        <time>2020-10-11T09:45:20.354Z</time>
      </trkpt>
      <trkpt lat="46.93803" lon="6.21743">
        <ele>833.191333</ele>
        <time>2020-10-11T09:45:28.298Z</time>
      </trkpt>
      <trkpt lat="46.93787" lon="6.21716">
        <ele>832.541328</ele>
        <time>2020-10-11T09:45:31.900Z</time>
      </trkpt>
      <trkpt lat="46.93812" lon="6.2159">
        <ele>830.187876</ele>
        <time>2020-10-11T09:45:44.938Z</time>
      </trkpt>
      <trkpt lat="46.93834" lon="6.21488">
        <ele>828.280593</ele>
        <time>2020-10-11T09:45:55.850Z</time>
      </trkpt>
      <trkpt lat="46.93921" lon="6.21106">
        <ele>822.532487</ele>
        <time>2020-10-11T09:46:37.731Z</time>
      </trkpt>
      <trkpt lat="46.93977" lon="6.20867">
        <ele>819.720847</ele>
        <time>2020-10-11T09:47:05.242Z</time>
      </trkpt>
      <trkpt lat="46.94008" lon="6.20733">
        <ele>818.304421</ele>
        <time>2020-10-11T09:47:21.797Z</time>
      </trkpt>
      <trkpt lat="46.94033" lon="6.20622">
        <ele>816.559928</ele>
        <time>2020-10-11T09:47:34.620Z</time>
      </trkpt>
      <trkpt lat="46.94102" lon="6.20308">
        <ele>810.56643</ele>
        <time>2020-10-11T09:48:07.058Z</time>
      </trkpt>
      <trkpt lat="46.94134" lon="6.2019">
        <ele>808.373649</ele>
        <time>2020-10-11T09:48:19.522Z</time>
      </trkpt>
      <trkpt lat="46.9415" lon="6.20122">
        <ele>807.360603</ele>
        <time>2020-10-11T09:48:26.898Z</time>
      </trkpt>
      <trkpt lat="46.94158" lon="6.20079">
        <ele>806.729278</ele>
        <time>2020-10-11T09:48:31.526Z</time>
      </trkpt>
      <trkpt lat="46.9421" lon="6.19726">
        <ele>803.296512</ele>
        <time>2020-10-11T09:49:12.797Z</time>
      </trkpt>
      <trkpt lat="46.94242" lon="6.19532">
        <ele>802.239736</ele>
        <time>2020-10-11T09:49:36.570Z</time>
      </trkpt>
      <trkpt lat="46.94223" lon="6.19504">
        <ele>802.032546</ele>
        <time>2020-10-11T09:49:41.550Z</time>
      </trkpt>
      <trkpt lat="46.94183" lon="6.19444">
        <ele>801.966658</ele>
        <time>2020-10-11T09:49:53.394Z</time>
      </trkpt>
      <trkpt lat="46.94167" lon="6.19436">
        <ele>801.968527</ele>
        <time>2020-10-11T09:49:57.152Z</time>
      </trkpt>
      <trkpt lat="46.94121" lon="6.19423">
        <ele>801.973811</ele>
        <time>2020-10-11T09:50:06.739Z</time>
      </trkpt>
      <trkpt lat="46.9411" lon="6.19417">
        <ele>801.975162</ele>
        <time>2020-10-11T09:50:08.959Z</time>
      </trkpt>
      <trkpt lat="46.94095" lon="6.19397">
        <ele>801.977413</ele>
        <time>2020-10-11T09:50:13.172Z</time>
      </trkpt>
      <trkpt lat="46.94074" lon="6.19347">
        <ele>801.954706</ele>
        <time>2020-10-11T09:50:22.270Z</time>
      </trkpt>
      <trkpt lat="46.94061" lon="6.19316">
        <ele>801.801633</ele>
        <time>2020-10-11T09:50:28.408Z</time>
      </trkpt>
      <trkpt lat="46.94034" lon="6.19268">
        <ele>801.542587</ele>
        <time>2020-10-11T09:50:38.147Z</time>
      </trkpt>
      <trkpt lat="46.94008" lon="6.19176">
        <ele>801.122935</ele>
        <time>2020-10-11T09:50:50.914Z</time>
      </trkpt>
      <trkpt lat="46.93982" lon="6.19114">
        <ele>800.557246</ele>
        <time>2020-10-11T09:50:58.651Z</time>
      </trkpt>
      <trkpt lat="46.93976" lon="6.19089">
        <ele>799.990374</ele>
        <time>2020-10-11T09:51:01.252Z</time>
      </trkpt>
      <trkpt lat="46.93974" lon="6.19049">
        <ele>799.097642</ele>
        <time>2020-10-11T09:51:05.258Z</time>
      </trkpt>
      <trkpt lat="46.93974" lon="6.19019">
        <ele>798.440088</ele>
        <time>2020-10-11T09:51:08.146Z</time>
      </trkpt>
      <trkpt lat="46.9397" lon="6.18865">
        <ele>795.048282</ele>
        <time>2020-10-11T09:51:22.695Z</time>
      </trkpt>
      <trkpt lat="46.93976" lon="6.1874">
        <ele>792.481843</ele>
        <time>2020-10-11T09:51:34.502Z</time>
      </trkpt>
      <trkpt lat="46.93965" lon="6.18586">
        <ele>789.826819</ele>
        <time>2020-10-11T09:51:50.224Z</time>
      </trkpt>
      <trkpt lat="46.93956" lon="6.18529">
        <ele>790.222438</ele>
        <time>2020-10-11T09:51:57.828Z</time>
      </trkpt>
      <trkpt lat="46.93938" lon="6.18475">
        <ele>790.624134</ele>
        <time>2020-10-11T09:52:07.771Z</time>
      </trkpt>
      <trkpt lat="46.93923" lon="6.18435">
        <ele>790.933781</ele>
        <time>2020-10-11T09:52:16.654Z</time>
      </trkpt>
      <trkpt lat="46.93901" lon="6.18392">
        <ele>791.296113</ele>
        <time>2020-10-11T09:52:28.850Z</time>
      </trkpt>
      <trkpt lat="46.93889" lon="6.18351">
        <ele>791.891507</ele>
        <time>2020-10-11T09:52:41.845Z</time>
      </trkpt>
      <trkpt lat="46.9387" lon="6.18196">
        <ele>795.671162</ele>
        <time>2020-10-11T09:53:30.744Z</time>
      </trkpt>
      <trkpt lat="46.93861" lon="6.1815">
        <ele>796.811879</ele>
        <time>2020-10-11T09:53:43.703Z</time>
      </trkpt>
      <trkpt lat="46.93856" lon="6.18129">
        <ele>797.352951</ele>
        <time>2020-10-11T09:53:49.588Z</time>
      </trkpt>
      <trkpt lat="46.93848" lon="6.18106">
        <ele>797.784072</ele>
        <time>2020-10-11T09:53:55.301Z</time>
      </trkpt>
      <trkpt lat="46.93843" lon="6.18092">
        <ele>797.739247</ele>
        <time>2020-10-11T09:53:58.838Z</time>
      </trkpt>
      <trkpt lat="46.93818" lon="6.18018">
        <ele>797.507328</ele>
        <time>2020-10-11T09:54:14.524Z</time>
      </trkpt>
      <trkpt lat="46.93801" lon="6.17972">
        <ele>797.357773</ele>
        <time>2020-10-11T09:54:22.287Z</time>
      </trkpt>
      <trkpt lat="46.93794" lon="6.17935">
        <ele>797.252655</ele>
        <time>2020-10-11T09:54:26.581Z</time>
      </trkpt>
      <trkpt lat="46.93795" lon="6.17885">
        <ele>797.112717</ele>
        <time>2020-10-11T09:54:31.572Z</time>
      </trkpt>
      <trkpt lat="46.93815" lon="6.17767">
        <ele>793.692681</ele>
        <time>2020-10-11T09:54:42.803Z</time>
      </trkpt>
      <trkpt lat="46.93821" lon="6.17672">
        <ele>790.604122</ele>
        <time>2020-10-11T09:54:51.393Z</time>
      </trkpt>
      <trkpt lat="46.93816" lon="6.17634">
        <ele>789.345018</ele>
        <time>2020-10-11T09:54:54.839Z</time>
      </trkpt>
      <trkpt lat="46.93805" lon="6.1759">
        <ele>787.792074</ele>
        <time>2020-10-11T09:54:59.010Z</time>
      </trkpt>
      <trkpt lat="46.93793" lon="6.17558">
        <ele>786.547592</ele>
        <time>2020-10-11T09:55:02.219Z</time>
      </trkpt>
      <trkpt lat="46.93706" lon="6.17291">
        <ele>777.516681</ele>
        <time>2020-10-11T09:55:29.062Z</time>
      </trkpt>
      <trkpt lat="46.93681" lon="6.17245">
        <ele>776.292029</ele>
        <time>2020-10-11T09:55:34.737Z</time>
      </trkpt>
      <trkpt lat="46.93644" lon="6.17196">
        <ele>774.741891</ele>
        <time>2020-10-11T09:55:42.266Z</time>
      </trkpt>
      <trkpt lat="46.93588" lon="6.1714">
        <ele>773.871091</ele>
        <time>2020-10-11T09:55:53.695Z</time>
      </trkpt>
      <trkpt lat="46.93527" lon="6.17084">
        <ele>773.866417</ele>
        <time>2020-10-11T09:56:09.086Z</time>
      </trkpt>
      <trkpt lat="46.93468" lon="6.17039">
        <ele>773.862014</ele>
        <time>2020-10-11T09:56:26.543Z</time>
      </trkpt>
      <trkpt lat="46.93428" lon="6.17013">
        <ele>774.194952</ele>
        <time>2020-10-11T09:56:37.300Z</time>
      </trkpt>
      <trkpt lat="46.93409" lon="6.16991">
        <ele>774.382822</ele>
        <time>2020-10-11T09:56:43.106Z</time>
      </trkpt>
      <trkpt lat="46.93317" lon="6.16816">
        <ele>775.969238</ele>
        <time>2020-10-11T09:57:20.997Z</time>
      </trkpt>
      <trkpt lat="46.93285" lon="6.16761">
        <ele>776.898468</ele>
        <time>2020-10-11T09:57:35.548Z</time>
      </trkpt>
      <trkpt lat="46.93264" lon="6.16724">
        <ele>777.52907</ele>
        <time>2020-10-11T09:57:46.126Z</time>
      </trkpt>
      <trkpt lat="46.93254" lon="6.16703">
        <ele>777.851726</ele>
        <time>2020-10-11T09:57:51.907Z</time>
      </trkpt>
      <trkpt lat="46.93238" lon="6.16659">
        <ele>778.496769</ele>
        <time>2020-10-11T09:58:04.356Z</time>
      </trkpt>
      <trkpt lat="46.93229" lon="6.16607">
        <ele>779.704864</ele>
        <time>2020-10-11T09:58:18.124Z</time>
      </trkpt>
      <trkpt lat="46.9323" lon="6.16592">
        <ele>780.112548</ele>
        <time>2020-10-11T09:58:22.476Z</time>
      </trkpt>
      <trkpt lat="46.93231" lon="6.16581">
        <ele>780.37811</ele>
        <time>2020-10-11T09:58:25.153Z</time>
      </trkpt>
      <trkpt lat="46.9323" lon="6.16575">
        <ele>780.528995</ele>
        <time>2020-10-11T09:58:27.204Z</time>
      </trkpt>
      <trkpt lat="46.93225" lon="6.16551">
        <ele>781.184408</ele>
        <time>2020-10-11T09:58:33.459Z</time>
      </trkpt>
      <trkpt lat="46.93211" lon="6.16512">
        <ele>782.301321</ele>
        <time>2020-10-11T09:58:45.109Z</time>
      </trkpt>
      <trkpt lat="46.93204" lon="6.16497">
        <ele>782.790022</ele>
        <time>2020-10-11T09:58:50.228Z</time>
      </trkpt>
      <trkpt lat="46.93166" lon="6.16421">
        <ele>785.214209</ele>
        <time>2020-10-11T09:59:16.183Z</time>
      </trkpt>
      <trkpt lat="46.93154" lon="6.16406">
        <ele>786.079879</ele>
        <time>2020-10-11T09:59:26.680Z</time>
      </trkpt>
      <trkpt lat="46.93094" lon="6.16364">
        <ele>790.332026</ele>
        <time>2020-10-11T10:00:05.149Z</time>
      </trkpt>
      <trkpt lat="46.9307" lon="6.1633">
        <ele>792.446165</ele>
        <time>2020-10-11T10:00:23.402Z</time>
      </trkpt>
      <trkpt lat="46.93062" lon="6.16309">
        <ele>793.484212</ele>
        <time>2020-10-11T10:00:34.176Z</time>
      </trkpt>
      <trkpt lat="46.93058" lon="6.16282">
        <ele>794.722134</ele>
        <time>2020-10-11T10:00:44.710Z</time>
      </trkpt>
      <trkpt lat="46.93057" lon="6.16276">
        <ele>794.979682</ele>
        <time>2020-10-11T10:00:49.853Z</time>
      </trkpt>
      <trkpt lat="46.93055" lon="6.16242">
        <ele>796.491789</ele>
        <time>2020-10-11T10:01:01.143Z</time>
      </trkpt>
      <trkpt lat="46.93063" lon="6.16148">
        <ele>800.143871</ele>
        <time>2020-10-11T10:01:38.998Z</time>
      </trkpt>
      <trkpt lat="46.93062" lon="6.16115">
        <ele>801.383459</ele>
        <time>2020-10-11T10:01:53.407Z</time>
      </trkpt>
      <trkpt lat="46.9306" lon="6.16098">
        <ele>802.041631</ele>
        <time>2020-10-11T10:01:58.676Z</time>
      </trkpt>
      <trkpt lat="46.93055" lon="6.1608">
        <ele>802.800331</ele>
        <time>2020-10-11T10:02:05.769Z</time>
      </trkpt>
      <trkpt lat="46.9305" lon="6.16062">
        <ele>803.513513</ele>
        <time>2020-10-11T10:02:14.985Z</time>
      </trkpt>
      <trkpt lat="46.93031" lon="6.1602">
        <ele>805.451979</ele>
        <time>2020-10-11T10:02:30.382Z</time>
      </trkpt>
      <trkpt lat="46.93014" lon="6.15984">
        <ele>807.003554</ele>
        <time>2020-10-11T10:02:42.618Z</time>
      </trkpt>
      <trkpt lat="46.92987" lon="6.15903">
        <ele>808.304883</ele>
        <time>2020-10-11T10:03:03.130Z</time>
      </trkpt>
      <trkpt lat="46.92963" lon="6.15799">
        <ele>809.897527</ele>
        <time>2020-10-11T10:03:26.763Z</time>
      </trkpt>
      <trkpt lat="46.9292" lon="6.1565">
        <ele>811.016149</ele>
        <time>2020-10-11T10:03:57.562Z</time>
      </trkpt>
      <trkpt lat="46.92872" lon="6.15245">
        <ele>811.213935</ele>
        <time>2020-10-11T10:04:52.561Z</time>
      </trkpt>
      <trkpt lat="46.92854" lon="6.15167">
        <ele>811.475557</ele>
        <time>2020-10-11T10:05:05.837Z</time>
      </trkpt>
      <trkpt lat="46.92825" lon="6.15102">
        <ele>811.780479</ele>
        <time>2020-10-11T10:05:18.985Z</time>
      </trkpt>
      <trkpt lat="46.92758" lon="6.14997">
        <ele>812.027266</ele>
        <time>2020-10-11T10:05:44.756Z</time>
      </trkpt>
      <trkpt lat="46.92698" lon="6.14933">
        <ele>811.163053</ele>
        <time>2020-10-11T10:05:58.677Z</time>
      </trkpt>
      <trkpt lat="46.92646" lon="6.14866">
        <ele>810.348209</ele>
        <time>2020-10-11T10:06:09.449Z</time>
      </trkpt>
      <trkpt lat="46.92639" lon="6.14855">
        <ele>810.230975</ele>
        <time>2020-10-11T10:06:10.931Z</time>
      </trkpt>
      <trkpt lat="46.92608" lon="6.14799">
        <ele>808.485913</ele>
        <time>2020-10-11T10:06:17.840Z</time>
      </trkpt>
      <trkpt lat="46.92554" lon="6.14681">
        <ele>804.569363</ele>
        <time>2020-10-11T10:06:30.872Z</time>
      </trkpt>
      <trkpt lat="46.92532" lon="6.14598">
        <ele>802.27876</ele>
        <time>2020-10-11T10:06:39.124Z</time>
      </trkpt>
      <trkpt lat="46.92528" lon="6.14576">
        <ele>801.782906</ele>
        <time>2020-10-11T10:06:41.179Z</time>
      </trkpt>
      <trkpt lat="46.92524" lon="6.14545">
        <ele>801.081631</ele>
        <time>2020-10-11T10:06:44.357Z</time>
      </trkpt>
      <trkpt lat="46.92523" lon="6.14514">
        <ele>800.392602</ele>
        <time>2020-10-11T10:06:47.333Z</time>
      </trkpt>
      <trkpt lat="46.92524" lon="6.14471">
        <ele>799.4622</ele>
        <time>2020-10-11T10:06:51.415Z</time>
      </trkpt>
      <trkpt lat="46.92525" lon="6.14442">
        <ele>798.822018</ele>
        <time>2020-10-11T10:06:54.447Z</time>
      </trkpt>
      <trkpt lat="46.92522" lon="6.14392">
        <ele>797.709796</ele>
        <time>2020-10-11T10:06:59.501Z</time>
      </trkpt>
      <trkpt lat="46.92515" lon="6.14368">
        <ele>797.128391</ele>
        <time>2020-10-11T10:07:02.055Z</time>
      </trkpt>
      <trkpt lat="46.9241" lon="6.14201">
        <ele>793.909429</ele>
        <time>2020-10-11T10:07:26.152Z</time>
      </trkpt>
      <trkpt lat="46.92374" lon="6.14122">
        <ele>792.64686</ele>
        <time>2020-10-11T10:07:35.871Z</time>
      </trkpt>
      <trkpt lat="46.92327" lon="6.13986">
        <ele>790.701872</ele>
        <time>2020-10-11T10:07:51.896Z</time>
      </trkpt>
      <trkpt lat="46.9231" lon="6.13925">
        <ele>789.984277</ele>
        <time>2020-10-11T10:07:59.266Z</time>
      </trkpt>
      <trkpt lat="46.92302" lon="6.13895">
        <ele>789.895165</ele>
        <time>2020-10-11T10:08:03.045Z</time>
      </trkpt>
      <trkpt lat="46.92292" lon="6.13822">
        <ele>789.689263</ele>
        <time>2020-10-11T10:08:12.208Z</time>
      </trkpt>
      <trkpt lat="46.92292" lon="6.13782">
        <ele>789.579287</ele>
        <time>2020-10-11T10:08:17.432Z</time>
      </trkpt>
      <trkpt lat="46.92296" lon="6.13736">
        <ele>789.449243</ele>
        <time>2020-10-11T10:08:23.953Z</time>
      </trkpt>
      <trkpt lat="46.923" lon="6.13655">
        <ele>789.35723</ele>
        <time>2020-10-11T10:08:36.432Z</time>
      </trkpt>
      <trkpt lat="46.92298" lon="6.1356">
        <ele>789.647341</ele>
        <time>2020-10-11T10:08:51.604Z</time>
      </trkpt>
      <trkpt lat="46.9228" lon="6.13501">
        <ele>789.844965</ele>
        <time>2020-10-11T10:09:02.024Z</time>
      </trkpt>
      <trkpt lat="46.92088" lon="6.13083">
        <ele>792.0972</ele>
        <time>2020-10-11T10:10:23.470Z</time>
      </trkpt>
      <trkpt lat="46.91772" lon="6.12565">
        <ele>798.732143</ele>
        <time>2020-10-11T10:12:46.892Z</time>
      </trkpt>
      <trkpt lat="46.91447" lon="6.12163">
        <ele>799.291298</ele>
        <time>2020-10-11T10:14:12.943Z</time>
      </trkpt>
      <trkpt lat="46.91344" lon="6.1201">
        <ele>799.925948</ele>
        <time>2020-10-11T10:14:46.040Z</time>
      </trkpt>
      <trkpt lat="46.91304" lon="6.11919">
        <ele>800.491425</ele>
        <time>2020-10-11T10:15:05.344Z</time>
      </trkpt>
      <trkpt lat="46.91266" lon="6.11769">
        <ele>801.746527</ele>
        <time>2020-10-11T10:15:35.885Z</time>
      </trkpt>
      <trkpt lat="46.91236" lon="6.11707">
        <ele>802.428151</ele>
        <time>2020-10-11T10:15:50.779Z</time>
      </trkpt>
      <trkpt lat="46.91195" lon="6.11652">
        <ele>803.150441</ele>
        <time>2020-10-11T10:16:06.672Z</time>
      </trkpt>
      <trkpt lat="46.91189" lon="6.11627">
        <ele>803.390665</ele>
        <time>2020-10-11T10:16:11.549Z</time>
      </trkpt>
      <trkpt lat="46.91189" lon="6.11606">
        <ele>803.579409</ele>
        <time>2020-10-11T10:16:15.874Z</time>
      </trkpt>
      <trkpt lat="46.91107" lon="6.11586">
        <ele>804.673485</ele>
        <time>2020-10-11T10:16:38.743Z</time>
      </trkpt>
      <trkpt lat="46.90804" lon="6.11464">
        <ele>809.679233</ele>
        <time>2020-10-11T10:18:08.933Z</time>
      </trkpt>
      <trkpt lat="46.90578" lon="6.11327">
        <ele>815.903149</ele>
        <time>2020-10-11T10:19:37.415Z</time>
      </trkpt>
      <trkpt lat="46.90493" lon="6.11274">
        <ele>818.513006</ele>
        <time>2020-10-11T10:20:12.624Z</time>
      </trkpt>
      <trkpt lat="46.90471" lon="6.11256">
        <ele>819.206655</ele>
        <time>2020-10-11T10:20:21.964Z</time>
      </trkpt>
      <trkpt lat="46.90433" lon="6.11227">
        <ele>820.431826</ele>
        <time>2020-10-11T10:20:38.097Z</time>
      </trkpt>
      <trkpt lat="46.90268" lon="6.11017">
        <ele>825.638497</ele>
        <time>2020-10-11T10:21:54.272Z</time>
      </trkpt>
      <trkpt lat="46.90241" lon="6.10973">
        <ele>826.138159</ele>
        <time>2020-10-11T10:22:05.876Z</time>
      </trkpt>
      <trkpt lat="46.90074" lon="6.10509">
        <ele>826.159295</ele>
        <time>2020-10-11T10:23:21.867Z</time>
      </trkpt>
      <trkpt lat="46.89905" lon="6.10149">
        <ele>818.7062</ele>
        <time>2020-10-11T10:24:05.692Z</time>
      </trkpt>
      <trkpt lat="46.89796" lon="6.09871">
        <ele>812.080443</ele>
        <time>2020-10-11T10:24:36.777Z</time>
      </trkpt>
      <trkpt lat="46.89784" lon="6.09849">
        <ele>811.735965</ele>
        <time>2020-10-11T10:24:39.420Z</time>
      </trkpt>
      <trkpt lat="46.8966" lon="6.09607">
        <ele>808.316597</ele>
        <time>2020-10-11T10:25:12.648Z</time>
      </trkpt>
      <trkpt lat="46.89623" lon="6.0954">
        <ele>807.726504</ele>
        <time>2020-10-11T10:25:23.186Z</time>
      </trkpt>
      <trkpt lat="46.8958" lon="6.09484">
        <ele>807.143903</ele>
        <time>2020-10-11T10:25:33.585Z</time>
      </trkpt>
      <trkpt lat="46.89522" lon="6.09436">
        <ele>806.590554</ele>
        <time>2020-10-11T10:25:44.820Z</time>
      </trkpt>
      <trkpt lat="46.89481" lon="6.09411">
        <ele>806.245831</ele>
        <time>2020-10-11T10:25:52.361Z</time>
      </trkpt>
      <trkpt lat="46.89439" lon="6.09386">
        <ele>805.886816</ele>
        <time>2020-10-11T10:26:00.115Z</time>
      </trkpt>
      <trkpt lat="46.8941" lon="6.09369">
        <ele>805.643928</ele>
        <time>2020-10-11T10:26:05.946Z</time>
      </trkpt>
      <trkpt lat="46.89336" lon="6.09327">
        <ele>805.862895</ele>
        <time>2020-10-11T10:26:23.194Z</time>
      </trkpt>
      <trkpt lat="46.893" lon="6.09307">
        <ele>806.027766</ele>
        <time>2020-10-11T10:26:32.317Z</time>
      </trkpt>
      <trkpt lat="46.89277" lon="6.0929">
        <ele>806.13995</ele>
        <time>2020-10-11T10:26:38.790Z</time>
      </trkpt>
      <trkpt lat="46.89219" lon="6.09246">
        <ele>806.423557</ele>
        <time>2020-10-11T10:26:55.545Z</time>
      </trkpt>
      <trkpt lat="46.89186" lon="6.09221">
        <ele>806.577085</ele>
        <time>2020-10-11T10:27:04.820Z</time>
      </trkpt>
      <trkpt lat="46.89147" lon="6.09192">
        <ele>806.757348</ele>
        <time>2020-10-11T10:27:14.672Z</time>
      </trkpt>
      <trkpt lat="46.89067" lon="6.09099">
        <ele>807.240797</ele>
        <time>2020-10-11T10:27:37.394Z</time>
      </trkpt>
      <trkpt lat="46.89059" lon="6.09092">
        <ele>807.305521</ele>
        <time>2020-10-11T10:27:38.972Z</time>
      </trkpt>
      <trkpt lat="46.89055" lon="6.09089">
        <ele>807.336506</ele>
        <time>2020-10-11T10:27:40.088Z</time>
      </trkpt>
      <trkpt lat="46.89048" lon="6.09085">
        <ele>807.391807</ele>
        <time>2020-10-11T10:27:41.913Z</time>
      </trkpt>
      <trkpt lat="46.8904" lon="6.09081">
        <ele>807.45333</ele>
        <time>2020-10-11T10:27:43.795Z</time>
      </trkpt>
      <trkpt lat="46.89028" lon="6.09077">
        <ele>807.538225</ele>
        <time>2020-10-11T10:27:46.113Z</time>
      </trkpt>
      <trkpt lat="46.89019" lon="6.09073">
        <ele>807.598028</ele>
        <time>2020-10-11T10:27:48.401Z</time>
      </trkpt>
      <trkpt lat="46.88993" lon="6.09057">
        <ele>807.796872</ele>
        <time>2020-10-11T10:27:55.033Z</time>
      </trkpt>
      <trkpt lat="46.88978" lon="6.09035">
        <ele>807.950463</ele>
        <time>2020-10-11T10:28:01.093Z</time>
      </trkpt>
      <trkpt lat="46.88924" lon="6.08822">
        <ele>809.716178</ele>
        <time>2020-10-11T10:28:44.409Z</time>
      </trkpt>
      <trkpt lat="46.88813" lon="6.08588">
        <ele>813.055975</ele>
        <time>2020-10-11T10:29:41.726Z</time>
      </trkpt>
      <trkpt lat="46.88804" lon="6.08572">
        <ele>813.325885</ele>
        <time>2020-10-11T10:29:45.999Z</time>
      </trkpt>
      <trkpt lat="46.88797" lon="6.08564">
        <ele>813.508029</ele>
        <time>2020-10-11T10:29:49.637Z</time>
      </trkpt>
      <trkpt lat="46.88775" lon="6.08545">
        <ele>814.006553</ele>
        <time>2020-10-11T10:29:58.553Z</time>
      </trkpt>
      <trkpt lat="46.88772" lon="6.08542">
        <ele>814.071968</ele>
        <time>2020-10-11T10:29:59.780Z</time>
      </trkpt>
      <trkpt lat="46.88776" lon="6.0852">
        <ele>814.373304</ele>
        <time>2020-10-11T10:30:06.204Z</time>
      </trkpt>
      <trkpt lat="46.88783" lon="6.08478">
        <ele>814.74701</ele>
        <time>2020-10-11T10:30:16.209Z</time>
      </trkpt>
      <trkpt lat="46.88785" lon="6.0845">
        <ele>814.993779</ele>
        <time>2020-10-11T10:30:23.262Z</time>
      </trkpt>
      <trkpt lat="46.88787" lon="6.08433">
        <ele>815.150528</ele>
        <time>2020-10-11T10:30:27.257Z</time>
      </trkpt>
      <trkpt lat="46.8879" lon="6.08387">
        <ele>815.555018</ele>
        <time>2020-10-11T10:30:37.264Z</time>
      </trkpt>
      <trkpt lat="46.8879" lon="6.08339">
        <ele>815.969843</ele>
        <time>2020-10-11T10:30:46.854Z</time>
      </trkpt>
      <trkpt lat="46.88779" lon="6.08232">
        <ele>816.271169</ele>
        <time>2020-10-11T10:31:02.060Z</time>
      </trkpt>
      <trkpt lat="46.88777" lon="6.08195">
        <ele>815.759122</ele>
        <time>2020-10-11T10:31:05.885Z</time>
      </trkpt>
      <trkpt lat="46.88779" lon="6.08164">
        <ele>815.329348</ele>
        <time>2020-10-11T10:31:09.058Z</time>
      </trkpt>
      <trkpt lat="46.88786" lon="6.08139">
        <ele>814.964896</ele>
        <time>2020-10-11T10:31:11.793Z</time>
      </trkpt>
      <trkpt lat="46.88791" lon="6.08129">
        <ele>814.798768</ele>
        <time>2020-10-11T10:31:12.964Z</time>
      </trkpt>
      <trkpt lat="46.88782" lon="6.08111">
        <ele>814.497268</ele>
        <time>2020-10-11T10:31:16.143Z</time>
      </trkpt>
      <trkpt lat="46.88766" lon="6.08087">
        <ele>814.046399</ele>
        <time>2020-10-11T10:31:20.905Z</time>
      </trkpt>
      <trkpt lat="46.88759" lon="6.08078">
        <ele>813.848129</ele>
        <time>2020-10-11T10:31:22.967Z</time>
      </trkpt>
      <trkpt lat="46.88764" lon="6.08072">
        <ele>813.714877</ele>
        <time>2020-10-11T10:31:24.419Z</time>
      </trkpt>
      <trkpt lat="46.88772" lon="6.08061">
        <ele>813.492597</ele>
        <time>2020-10-11T10:31:26.778Z</time>
      </trkpt>
      <trkpt lat="46.8878" lon="6.08048">
        <ele>813.260692</ele>
        <time>2020-10-11T10:31:29.158Z</time>
      </trkpt>
      <trkpt lat="46.88788" lon="6.08028">
        <ele>812.984701</ele>
        <time>2020-10-11T10:31:32.706Z</time>
      </trkpt>
      <trkpt lat="46.8879" lon="6.08024">
        <ele>812.94471</ele>
        <time>2020-10-11T10:31:33.322Z</time>
      </trkpt>
      <trkpt lat="46.8878" lon="6.08015">
        <ele>812.803515</ele>
        <time>2020-10-11T10:31:34.983Z</time>
      </trkpt>
      <trkpt lat="46.88778" lon="6.08014">
        <ele>812.768601</ele>
        <time>2020-10-11T10:31:35.455Z</time>
      </trkpt>
      <trkpt lat="46.88682" lon="6.07942">
        <ele>811.434581</ele>
        <time>2020-10-11T10:31:52.997Z</time>
      </trkpt>
      <trkpt lat="46.88669" lon="6.07931">
        <ele>811.250602</ele>
        <time>2020-10-11T10:31:56.132Z</time>
      </trkpt>
      <trkpt lat="46.88558" lon="6.078">
        <ele>810.81963</ele>
        <time>2020-10-11T10:32:25.564Z</time>
      </trkpt>
      <trkpt lat="46.88547" lon="6.07786">
        <ele>810.817193</ele>
        <time>2020-10-11T10:32:28.558Z</time>
      </trkpt>
      <trkpt lat="46.88529" lon="6.07768">
        <ele>810.813481</ele>
        <time>2020-10-11T10:32:33.126Z</time>
      </trkpt>
      <trkpt lat="46.88521" lon="6.07762">
        <ele>810.811909</ele>
        <time>2020-10-11T10:32:35.115Z</time>
      </trkpt>
      <trkpt lat="46.8848" lon="6.0773">
        <ele>810.915113</ele>
        <time>2020-10-11T10:32:45.082Z</time>
      </trkpt>
      <trkpt lat="46.88436" lon="6.07697">
        <ele>811.169533</ele>
        <time>2020-10-11T10:32:56.354Z</time>
      </trkpt>
      <trkpt lat="46.88263" lon="6.07564">
        <ele>812.361155</ele>
        <time>2020-10-11T10:33:44.149Z</time>
      </trkpt>
      <trkpt lat="46.88213" lon="6.07532">
        <ele>812.766487</ele>
        <time>2020-10-11T10:33:58.073Z</time>
      </trkpt>
      <trkpt lat="46.88161" lon="6.07512">
        <ele>813.214491</ele>
        <time>2020-10-11T10:34:11.539Z</time>
      </trkpt>
      <trkpt lat="46.88062" lon="6.07476">
        <ele>814.327714</ele>
        <time>2020-10-11T10:34:37.408Z</time>
      </trkpt>
      <trkpt lat="46.87953" lon="6.07415">
        <ele>816.117117</ele>
        <time>2020-10-11T10:35:11.830Z</time>
      </trkpt>
      <trkpt lat="46.87759" lon="6.07303">
        <ele>820.809997</ele>
        <time>2020-10-11T10:36:22.133Z</time>
      </trkpt>
      <trkpt lat="46.87729" lon="6.07286">
        <ele>821.613962</ele>
        <time>2020-10-11T10:36:33.273Z</time>
      </trkpt>
      <trkpt lat="46.8732" lon="6.07043">
        <ele>834.087728</ele>
        <time>2020-10-11T10:39:16.032Z</time>
      </trkpt>
      <trkpt lat="46.87288" lon="6.07025">
        <ele>835.016234</ele>
        <time>2020-10-11T10:39:28.447Z</time>
      </trkpt>
      <trkpt lat="46.87271" lon="6.07023">
        <ele>835.511714</ele>
        <time>2020-10-11T10:39:34.991Z</time>
      </trkpt>
      <trkpt lat="46.87208" lon="6.07055">
        <ele>837.334143</ele>
        <time>2020-10-11T10:39:58.958Z</time>
      </trkpt>
      <trkpt lat="46.87173" lon="6.07055">
        <ele>838.303187</ele>
        <time>2020-10-11T10:40:11.473Z</time>
      </trkpt>
      <trkpt lat="46.87155" lon="6.07046">
        <ele>838.716212</ele>
        <time>2020-10-11T10:40:18.834Z</time>
      </trkpt>
      <trkpt lat="46.87094" lon="6.06976">
        <ele>839.848932</ele>
        <time>2020-10-11T10:40:44.043Z</time>
      </trkpt>
      <trkpt lat="46.87066" lon="6.06957">
        <ele>840.307148</ele>
        <time>2020-10-11T10:40:53.016Z</time>
      </trkpt>
      <trkpt lat="46.87046" lon="6.0695">
        <ele>840.607656</ele>
        <time>2020-10-11T10:40:57.885Z</time>
      </trkpt>
      <trkpt lat="46.87031" lon="6.06949">
        <ele>840.828726</ele>
        <time>2020-10-11T10:41:02.202Z</time>
      </trkpt>
      <trkpt lat="46.86915" lon="6.06968">
        <ele>840.084969</ele>
        <time>2020-10-11T10:41:25.991Z</time>
      </trkpt>
      <trkpt lat="46.86759" lon="6.06995">
        <ele>836.589458</ele>
        <time>2020-10-11T10:41:49.133Z</time>
      </trkpt>
      <trkpt lat="46.86729" lon="6.07">
        <ele>835.541539</ele>
        <time>2020-10-11T10:41:53.288Z</time>
      </trkpt>
      <trkpt lat="46.86694" lon="6.07004">
        <ele>834.310571</ele>
        <time>2020-10-11T10:41:58.131Z</time>
      </trkpt>
      <trkpt lat="46.8667" lon="6.06999">
        <ele>833.435483</ele>
        <time>2020-10-11T10:42:01.520Z</time>
      </trkpt>
      <trkpt lat="46.86654" lon="6.06984">
        <ele>832.786683</ele>
        <time>2020-10-11T10:42:04.037Z</time>
      </trkpt>
      <trkpt lat="46.86639" lon="6.0696">
        <ele>831.832833</ele>
        <time>2020-10-11T10:42:07.047Z</time>
      </trkpt>
      <trkpt lat="46.86588" lon="6.06839">
        <ele>827.476318</ele>
        <time>2020-10-11T10:42:20.060Z</time>
      </trkpt>
      <trkpt lat="46.86504" lon="6.06734">
        <ele>822.962732</ele>
        <time>2020-10-11T10:42:34.927Z</time>
      </trkpt>
      <trkpt lat="46.86448" lon="6.06622">
        <ele>819.620303</ele>
        <time>2020-10-11T10:42:48.127Z</time>
      </trkpt>
      <trkpt lat="46.86372" lon="6.06457">
        <ele>816.598527</ele>
        <time>2020-10-11T10:43:08.498Z</time>
      </trkpt>
      <trkpt lat="46.86351" lon="6.06411">
        <ele>815.963644</ele>
        <time>2020-10-11T10:43:14.984Z</time>
      </trkpt>
      <trkpt lat="46.86273" lon="6.06248">
        <ele>815.067037</ele>
        <time>2020-10-11T10:43:39.984Z</time>
      </trkpt>
      <trkpt lat="46.86269" lon="6.06241">
        <ele>815.057717</ele>
        <time>2020-10-11T10:43:41.101Z</time>
      </trkpt>
      <trkpt lat="46.86262" lon="6.06233">
        <ele>815.045507</ele>
        <time>2020-10-11T10:43:42.821Z</time>
      </trkpt>
      <trkpt lat="46.86244" lon="6.0622">
        <ele>815.01742</ele>
        <time>2020-10-11T10:43:46.726Z</time>
      </trkpt>
      <trkpt lat="46.86223" lon="6.06217">
        <ele>814.987124</ele>
        <time>2020-10-11T10:43:50.784Z</time>
      </trkpt>
      <trkpt lat="46.86219" lon="6.06218">
        <ele>814.980599</ele>
        <time>2020-10-11T10:43:51.775Z</time>
      </trkpt>
      <trkpt lat="46.86213" lon="6.06222">
        <ele>814.971515</ele>
        <time>2020-10-11T10:43:53.067Z</time>
      </trkpt>
      <trkpt lat="46.86189" lon="6.0624">
        <ele>815.003808</ele>
        <time>2020-10-11T10:44:00.039Z</time>
      </trkpt>
      <trkpt lat="46.86171" lon="6.06253">
        <ele>815.302814</ele>
        <time>2020-10-11T10:44:04.953Z</time>
      </trkpt>
      <trkpt lat="46.86167" lon="6.06256">
        <ele>815.368406</ele>
        <time>2020-10-11T10:44:06.738Z</time>
      </trkpt>
      <trkpt lat="46.86155" lon="6.06266">
        <ele>815.583052</ele>
        <time>2020-10-11T10:44:10.950Z</time>
      </trkpt>
      <trkpt lat="46.86131" lon="6.06284">
        <ele>815.982947</ele>
        <time>2020-10-11T10:44:19.121Z</time>
      </trkpt>
      <trkpt lat="46.86085" lon="6.06317">
        <ele>816.767503</ele>
        <time>2020-10-11T10:44:33.782Z</time>
      </trkpt>
      <trkpt lat="46.86076" lon="6.06323">
        <ele>816.905822</ele>
        <time>2020-10-11T10:44:36.410Z</time>
      </trkpt>
      <trkpt lat="46.86065" lon="6.06327">
        <ele>817.085965</ele>
        <time>2020-10-11T10:44:41.262Z</time>
      </trkpt>
      <trkpt lat="46.86042" lon="6.06329">
        <ele>817.425705</ele>
        <time>2020-10-11T10:44:47.018Z</time>
      </trkpt>
      <trkpt lat="46.86029" lon="6.06327">
        <ele>817.620627</ele>
        <time>2020-10-11T10:44:52.355Z</time>
      </trkpt>
      <trkpt lat="46.86015" lon="6.06325">
        <ele>817.907093</ele>
        <time>2020-10-11T10:44:56.092Z</time>
      </trkpt>
      <trkpt lat="46.85975" lon="6.06307">
        <ele>818.729354</ele>
        <time>2020-10-11T10:45:09.636Z</time>
      </trkpt>
      <trkpt lat="46.85966" lon="6.063">
        <ele>818.954413</ele>
        <time>2020-10-11T10:45:13.862Z</time>
      </trkpt>
      <trkpt lat="46.85956" lon="6.06291">
        <ele>819.178585</ele>
        <time>2020-10-11T10:45:18.129Z</time>
      </trkpt>
      <trkpt lat="46.85743" lon="6.06057">
        <ele>824.486353</ele>
        <time>2020-10-11T10:46:40.754Z</time>
      </trkpt>
      <trkpt lat="46.85713" lon="6.06043">
        <ele>825.199879</ele>
        <time>2020-10-11T10:46:51.979Z</time>
      </trkpt>
      <trkpt lat="46.85606" lon="6.06027">
        <ele>828.056279</ele>
        <time>2020-10-11T10:47:30.771Z</time>
      </trkpt>
      <trkpt lat="46.85575" lon="6.06023">
        <ele>828.886203</ele>
        <time>2020-10-11T10:47:42.150Z</time>
      </trkpt>
      <trkpt lat="46.85515" lon="6.06016">
        <ele>830.246746</ele>
        <time>2020-10-11T10:48:04.129Z</time>
      </trkpt>
      <trkpt lat="46.85456" lon="6.06016">
        <ele>831.385944</ele>
        <time>2020-10-11T10:48:23.448Z</time>
      </trkpt>
      <trkpt lat="46.85442" lon="6.06024">
        <ele>831.675665</ele>
        <time>2020-10-11T10:48:28.873Z</time>
      </trkpt>
      <trkpt lat="46.85422" lon="6.06047">
        <ele>832.167196</ele>
        <time>2020-10-11T10:48:35.849Z</time>
      </trkpt>
      <trkpt lat="46.85418" lon="6.06056">
        <ele>832.309827</ele>
        <time>2020-10-11T10:48:38.554Z</time>
      </trkpt>
      <trkpt lat="46.85415" lon="6.06062">
        <ele>832.416536</ele>
        <time>2020-10-11T10:48:39.849Z</time>
      </trkpt>
      <trkpt lat="46.8531" lon="6.06298">
        <ele>834.609487</ele>
        <time>2020-10-11T10:49:29.928Z</time>
      </trkpt>
      <trkpt lat="46.85298" lon="6.06325">
        <ele>834.82656</ele>
        <time>2020-10-11T10:49:35.833Z</time>
      </trkpt>
      <trkpt lat="46.85289" lon="6.06344">
        <ele>834.956503</ele>
        <time>2020-10-11T10:49:39.808Z</time>
      </trkpt>
      <trkpt lat="46.85254" lon="6.06423">
        <ele>835.488046</ele>
        <time>2020-10-11T10:49:57.070Z</time>
      </trkpt>
      <trkpt lat="46.85181" lon="6.06583">
        <ele>835.963851</ele>
        <time>2020-10-11T10:50:30.357Z</time>
      </trkpt>
      <trkpt lat="46.8515" lon="6.06626">
        <ele>835.49614</ele>
        <time>2020-10-11T10:50:38.546Z</time>
      </trkpt>
      <trkpt lat="46.8512" lon="6.06653">
        <ele>835.120178</ele>
        <time>2020-10-11T10:50:44.496Z</time>
      </trkpt>
      <trkpt lat="46.85111" lon="6.0666">
        <ele>835.004003</ele>
        <time>2020-10-11T10:50:46.580Z</time>
      </trkpt>
      <trkpt lat="46.85091" lon="6.06676">
        <ele>834.759265</ele>
        <time>2020-10-11T10:50:50.050Z</time>
      </trkpt>
      <trkpt lat="46.85029" lon="6.06727">
        <ele>832.740092</ele>
        <time>2020-10-11T10:51:00.387Z</time>
      </trkpt>
      <trkpt lat="46.84954" lon="6.06817">
        <ele>828.226609</ele>
        <time>2020-10-11T10:51:13.019Z</time>
      </trkpt>
      <trkpt lat="46.84929" lon="6.06829">
        <ele>826.974975</ele>
        <time>2020-10-11T10:51:16.522Z</time>
      </trkpt>
      <trkpt lat="46.8492" lon="6.0683">
        <ele>826.561586</ele>
        <time>2020-10-11T10:51:17.623Z</time>
      </trkpt>
      <trkpt lat="46.84909" lon="6.06829">
        <ele>826.059316</ele>
        <time>2020-10-11T10:51:18.973Z</time>
      </trkpt>
      <trkpt lat="46.84902" lon="6.06827">
        <ele>825.758902</ele>
        <time>2020-10-11T10:51:20.009Z</time>
      </trkpt>
      <trkpt lat="46.84844" lon="6.06814">
        <ele>823.618261</ele>
        <time>2020-10-11T10:51:27.734Z</time>
      </trkpt>
      <trkpt lat="46.84805" lon="6.06804">
        <ele>822.173709</ele>
        <time>2020-10-11T10:51:33.106Z</time>
      </trkpt>
      <trkpt lat="46.84749" lon="6.0679">
        <ele>820.120908</ele>
        <time>2020-10-11T10:51:41.249Z</time>
      </trkpt>
      <trkpt lat="46.84721" lon="6.06782">
        <ele>819.438576</ele>
        <time>2020-10-11T10:51:45.937Z</time>
      </trkpt>
      <trkpt lat="46.8467" lon="6.06772">
        <ele>819.760438</ele>
        <time>2020-10-11T10:51:56.711Z</time>
      </trkpt>
      <trkpt lat="46.84446" lon="6.06685">
        <ele>821.937265</ele>
        <time>2020-10-11T10:53:03.356Z</time>
      </trkpt>
      <trkpt lat="46.84402" lon="6.06673">
        <ele>822.506093</ele>
        <time>2020-10-11T10:53:15.595Z</time>
      </trkpt>
      <trkpt lat="46.84289" lon="6.0666">
        <ele>823.566885</ele>
        <time>2020-10-11T10:53:44.968Z</time>
      </trkpt>
      <trkpt lat="46.84033" lon="6.06632">
        <ele>825.492832</ele>
        <time>2020-10-11T10:54:48.491Z</time>
      </trkpt>
      <trkpt lat="46.83856" lon="6.06613">
        <ele>826.384337</ele>
        <time>2020-10-11T10:55:32.174Z</time>
      </trkpt>
      <trkpt lat="46.83811" lon="6.06609">
        <ele>826.176823</ele>
        <time>2020-10-11T10:55:40.889Z</time>
      </trkpt>
      <trkpt lat="46.83732" lon="6.06602">
        <ele>825.404587</ele>
        <time>2020-10-11T10:55:54.760Z</time>
      </trkpt>
      <trkpt lat="46.83412" lon="6.06614">
        <ele>820.908293</ele>
        <time>2020-10-11T10:56:45.481Z</time>
      </trkpt>
      <trkpt lat="46.83403" lon="6.06615">
        <ele>820.799696</ele>
        <time>2020-10-11T10:56:46.884Z</time>
      </trkpt>
      <trkpt lat="46.83356" lon="6.06618">
        <ele>820.234929</ele>
        <time>2020-10-11T10:56:54.780Z</time>
      </trkpt>
      <trkpt lat="46.83316" lon="6.06623">
        <ele>819.743515</ele>
        <time>2020-10-11T10:57:01.786Z</time>
      </trkpt>
      <trkpt lat="46.83179" lon="6.06653">
        <ele>819.750544</ele>
        <time>2020-10-11T10:57:28.729Z</time>
      </trkpt>
      <trkpt lat="46.83142" lon="6.06661">
        <ele>819.804309</ele>
        <time>2020-10-11T10:57:37.700Z</time>
      </trkpt>
      <trkpt lat="46.82983" lon="6.06695">
        <ele>822.156271</ele>
        <time>2020-10-11T10:58:25.534Z</time>
      </trkpt>
      <trkpt lat="46.82947" lon="6.06702">
        <ele>822.744748</ele>
        <time>2020-10-11T10:58:37.352Z</time>
      </trkpt>
      <trkpt lat="46.82923" lon="6.06713">
        <ele>823.165099</ele>
        <time>2020-10-11T10:58:45.506Z</time>
      </trkpt>
      <trkpt lat="46.82915" lon="6.06716">
        <ele>823.310082</ele>
        <time>2020-10-11T10:58:48.417Z</time>
      </trkpt>
      <trkpt lat="46.82848" lon="6.06771">
        <ele>824.599557</ele>
        <time>2020-10-11T10:59:12.651Z</time>
      </trkpt>
      <trkpt lat="46.8283" lon="6.06787">
        <ele>824.950512</ele>
        <time>2020-10-11T10:59:19.017Z</time>
      </trkpt>
      <trkpt lat="46.8281" lon="6.06803">
        <ele>825.337985</ele>
        <time>2020-10-11T10:59:25.767Z</time>
      </trkpt>
      <trkpt lat="46.82783" lon="6.06826">
        <ele>825.818138</ele>
        <time>2020-10-11T10:59:34.417Z</time>
      </trkpt>
      <trkpt lat="46.82775" lon="6.06832">
        <ele>825.874331</ele>
        <time>2020-10-11T10:59:36.826Z</time>
      </trkpt>
      <trkpt lat="46.82711" lon="6.06881">
        <ele>826.308627</ele>
        <time>2020-10-11T10:59:54.129Z</time>
      </trkpt>
      <trkpt lat="46.827" lon="6.06886">
        <ele>826.37894</ele>
        <time>2020-10-11T10:59:56.806Z</time>
      </trkpt>
      <trkpt lat="46.82666" lon="6.06904">
        <ele>826.595781</ele>
        <time>2020-10-11T11:00:04.724Z</time>
      </trkpt>
      <trkpt lat="46.8262" lon="6.06924">
        <ele>826.888454</ele>
        <time>2020-10-11T11:00:15.566Z</time>
      </trkpt>
      <trkpt lat="46.8257" lon="6.06946">
        <ele>827.396939</ele>
        <time>2020-10-11T11:00:28.197Z</time>
      </trkpt>
      <trkpt lat="46.82534" lon="6.06961">
        <ele>827.754256</ele>
        <time>2020-10-11T11:00:37.615Z</time>
      </trkpt>
      <trkpt lat="46.82435" lon="6.07002">
        <ele>828.844107</ele>
        <time>2020-10-11T11:01:06.100Z</time>
      </trkpt>
      <trkpt lat="46.82101" lon="6.07143">
        <ele>834.838954</ele>
        <time>2020-10-11T11:02:53.008Z</time>
      </trkpt>
      <trkpt lat="46.82077" lon="6.07146">
        <ele>835.214056</ele>
        <time>2020-10-11T11:02:59.970Z</time>
      </trkpt>
      <trkpt lat="46.82055" lon="6.07147">
        <ele>835.551317</ele>
        <time>2020-10-11T11:03:06.480Z</time>
      </trkpt>
      <trkpt lat="46.82052" lon="6.07148">
        <ele>835.596833</ele>
        <time>2020-10-11T11:03:07.318Z</time>
      </trkpt>
      <trkpt lat="46.8203" lon="6.07054">
        <ele>836.658762</ele>
        <time>2020-10-11T11:03:28.705Z</time>
      </trkpt>
      <trkpt lat="46.81996" lon="6.06907">
        <ele>837.509348</ele>
        <time>2020-10-11T11:03:58.038Z</time>
      </trkpt>
      <trkpt lat="46.81987" lon="6.06871">
        <ele>837.449008</ele>
        <time>2020-10-11T11:04:05.178Z</time>
      </trkpt>
      <trkpt lat="46.81836" lon="6.06215">
        <ele>836.161846</ele>
        <time>2020-10-11T11:05:31.582Z</time>
      </trkpt>
      <trkpt lat="46.81818" lon="6.0614">
        <ele>836.947976</ele>
        <time>2020-10-11T11:05:46.401Z</time>
      </trkpt>
      <trkpt lat="46.81812" lon="6.06115">
        <ele>837.218473</ele>
        <time>2020-10-11T11:05:51.831Z</time>
      </trkpt>
      <trkpt lat="46.81749" lon="6.05846">
        <ele>840.023125</ele>
        <time>2020-10-11T11:06:54.711Z</time>
      </trkpt>
      <trkpt lat="46.81747" lon="6.05838">
        <ele>840.102158</ele>
        <time>2020-10-11T11:06:56.297Z</time>
      </trkpt>
      <trkpt lat="46.81732" lon="6.05772">
        <ele>840.793461</ele>
        <time>2020-10-11T11:07:09.877Z</time>
      </trkpt>
      <trkpt lat="46.81723" lon="6.05735">
        <ele>841.182116</ele>
        <time>2020-10-11T11:07:16.359Z</time>
      </trkpt>
      <trkpt lat="46.81721" lon="6.05727">
        <ele>841.264406</ele>
        <time>2020-10-11T11:07:17.903Z</time>
      </trkpt>
      <trkpt lat="46.81692" lon="6.05605">
        <ele>840.807917</ele>
        <time>2020-10-11T11:07:35.792Z</time>
      </trkpt>
      <trkpt lat="46.81676" lon="6.05541">
        <ele>840.55888</ele>
        <time>2020-10-11T11:07:43.915Z</time>
      </trkpt>
      <trkpt lat="46.8148" lon="6.04731">
        <ele>833.307876</ele>
        <time>2020-10-11T11:09:19.693Z</time>
      </trkpt>
      <trkpt lat="46.81428" lon="6.04514">
        <ele>835.126795</ele>
        <time>2020-10-11T11:10:06.390Z</time>
      </trkpt>
      <trkpt lat="46.81423" lon="6.04492">
        <ele>835.312473</ele>
        <time>2020-10-11T11:10:11.504Z</time>
      </trkpt>
      <trkpt lat="46.81396" lon="6.04391">
        <ele>835.317898</ele>
        <time>2020-10-11T11:10:32.250Z</time>
      </trkpt>
      <trkpt lat="46.81319" lon="6.0412">
        <ele>833.285708</ele>
        <time>2020-10-11T11:11:06.706Z</time>
      </trkpt>
      <trkpt lat="46.81307" lon="6.04076">
        <ele>832.575638</ele>
        <time>2020-10-11T11:11:11.482Z</time>
      </trkpt>
      <trkpt lat="46.81279" lon="6.03976">
        <ele>830.661328</ele>
        <time>2020-10-11T11:11:21.846Z</time>
      </trkpt>
      <trkpt lat="46.81235" lon="6.03671">
        <ele>822.434003</ele>
        <time>2020-10-11T11:11:50.974Z</time>
      </trkpt>
      <trkpt lat="46.81173" lon="6.03499">
        <ele>818.016994</ele>
        <time>2020-10-11T11:12:09.830Z</time>
      </trkpt>
      <trkpt lat="46.81134" lon="6.03387">
        <ele>816.937843</ele>
        <time>2020-10-11T11:12:23.020Z</time>
      </trkpt>
      <trkpt lat="46.81062" lon="6.03177">
        <ele>816.668067</ele>
        <time>2020-10-11T11:12:55.384Z</time>
      </trkpt>
      <trkpt lat="46.81046" lon="6.03133">
        <ele>817.09336</ele>
        <time>2020-10-11T11:13:06.022Z</time>
      </trkpt>
      <trkpt lat="46.81027" lon="6.03088">
        <ele>817.525746</ele>
        <time>2020-10-11T11:13:17.571Z</time>
      </trkpt>
      <trkpt lat="46.80993" lon="6.03026">
        <ele>818.292944</ele>
        <time>2020-10-11T11:13:36.526Z</time>
      </trkpt>
      <trkpt lat="46.80903" lon="6.02899">
        <ele>820.552121</ele>
        <time>2020-10-11T11:14:17.482Z</time>
      </trkpt>
      <trkpt lat="46.80797" lon="6.02751">
        <ele>821.752674</ele>
        <time>2020-10-11T11:14:53.496Z</time>
      </trkpt>
      <trkpt lat="46.80284" lon="6.02035">
        <ele>822.083223</ele>
        <time>2020-10-11T11:17:20.656Z</time>
      </trkpt>
      <trkpt lat="46.80197" lon="6.01907">
        <ele>821.917539</ele>
        <time>2020-10-11T11:17:47.410Z</time>
      </trkpt>
      <trkpt lat="46.80106" lon="6.01753">
        <ele>821.15015</ele>
        <time>2020-10-11T11:18:12.682Z</time>
      </trkpt>
      <trkpt lat="46.80099" lon="6.01742">
        <ele>820.983919</ele>
        <time>2020-10-11T11:18:14.480Z</time>
      </trkpt>
      <trkpt lat="46.80095" lon="6.01736">
        <ele>820.887539</ele>
        <time>2020-10-11T11:18:15.330Z</time>
      </trkpt>
      <trkpt lat="46.7981" lon="6.01235">
        <ele>814.700515</ele>
        <time>2020-10-11T11:19:25.760Z</time>
      </trkpt>
      <trkpt lat="46.79765" lon="6.01175">
        <ele>814.369995</ele>
        <time>2020-10-11T11:19:40.642Z</time>
      </trkpt>
      <trkpt lat="46.79685" lon="6.01097">
        <ele>815.228098</ele>
        <time>2020-10-11T11:20:09.629Z</time>
      </trkpt>
      <trkpt lat="46.79644" lon="6.01058">
        <ele>815.806931</ele>
        <time>2020-10-11T11:20:24.771Z</time>
      </trkpt>
      <trkpt lat="46.796" lon="6.01011">
        <ele>816.378932</ele>
        <time>2020-10-11T11:20:38.671Z</time>
      </trkpt>
      <trkpt lat="46.79572" lon="6.00972">
        <ele>816.062327</ele>
        <time>2020-10-11T11:20:45.626Z</time>
      </trkpt>
      <trkpt lat="46.79534" lon="6.00908">
        <ele>815.586509</ele>
        <time>2020-10-11T11:20:55.590Z</time>
      </trkpt>
      <trkpt lat="46.79504" lon="6.00864">
        <ele>815.237533</ele>
        <time>2020-10-11T11:21:02.819Z</time>
      </trkpt>
      <trkpt lat="46.79471" lon="6.00811">
        <ele>814.797835</ele>
        <time>2020-10-11T11:21:10.727Z</time>
      </trkpt>
      <trkpt lat="46.79452" lon="6.00781">
        <ele>814.472298</ele>
        <time>2020-10-11T11:21:15.287Z</time>
      </trkpt>
      <trkpt lat="46.7943" lon="6.00754">
        <ele>814.146393</ele>
        <time>2020-10-11T11:21:19.840Z</time>
      </trkpt>
      <trkpt lat="46.79397" lon="6.00701">
        <ele>813.583329</ele>
        <time>2020-10-11T11:21:31.188Z</time>
      </trkpt>
      <trkpt lat="46.79284" lon="6.00533">
        <ele>812.204427</ele>
        <time>2020-10-11T11:22:12.605Z</time>
      </trkpt>
      <trkpt lat="46.79184" lon="6.00404">
        <ele>811.484405</ele>
        <time>2020-10-11T11:22:46.044Z</time>
      </trkpt>
      <trkpt lat="46.79092" lon="6.00268">
        <ele>811.06088</ele>
        <time>2020-10-11T11:23:22.205Z</time>
      </trkpt>
      <trkpt lat="46.7903" lon="6.00177">
        <ele>811.058192</ele>
        <time>2020-10-11T11:23:47.098Z</time>
      </trkpt>
      <trkpt lat="46.78753" lon="5.99763">
        <ele>810.819876</ele>
        <time>2020-10-11T11:25:38.652Z</time>
      </trkpt>
      <trkpt lat="46.78587" lon="5.99515">
        <ele>809.973758</ele>
        <time>2020-10-11T11:26:42.920Z</time>
      </trkpt>
      <trkpt lat="46.7846" lon="5.99369">
        <ele>807.969193</ele>
        <time>2020-10-11T11:27:19.850Z</time>
      </trkpt>
      <trkpt lat="46.78357" lon="5.99245">
        <ele>807.591745</ele>
        <time>2020-10-11T11:27:54.544Z</time>
      </trkpt>
      <trkpt lat="46.78296" lon="5.9917">
        <ele>807.516318</ele>
        <time>2020-10-11T11:28:20.285Z</time>
      </trkpt>
      <trkpt lat="46.78258" lon="5.99128">
        <ele>807.594121</ele>
        <time>2020-10-11T11:28:35.891Z</time>
      </trkpt>
      <trkpt lat="46.7824" lon="5.99102">
        <ele>807.635783</ele>
        <time>2020-10-11T11:28:43.708Z</time>
      </trkpt>
      <trkpt lat="46.78185" lon="5.99001">
        <ele>807.741306</ele>
        <time>2020-10-11T11:29:08.824Z</time>
      </trkpt>
      <trkpt lat="46.78088" lon="5.98874">
        <ele>806.062412</ele>
        <time>2020-10-11T11:29:38.802Z</time>
      </trkpt>
      <trkpt lat="46.7804" lon="5.98799">
        <ele>805.387869</ele>
        <time>2020-10-11T11:29:54.693Z</time>
      </trkpt>
      <trkpt lat="46.77969" lon="5.98598">
        <ele>804.896096</ele>
        <time>2020-10-11T11:30:36.081Z</time>
      </trkpt>
      <trkpt lat="46.77906" lon="5.98485">
        <ele>806.585419</ele>
        <time>2020-10-11T11:31:14.230Z</time>
      </trkpt>
      <trkpt lat="46.77887" lon="5.98458">
        <ele>807.047855</ele>
        <time>2020-10-11T11:31:25.347Z</time>
      </trkpt>
      <trkpt lat="46.77869" lon="5.98433">
        <ele>807.467798</ele>
        <time>2020-10-11T11:31:35.388Z</time>
      </trkpt>
      <trkpt lat="46.77776" lon="5.98279">
        <ele>809.671427</ele>
        <time>2020-10-11T11:32:32.067Z</time>
      </trkpt>
      <trkpt lat="46.77761" lon="5.98272">
        <ele>809.901777</ele>
        <time>2020-10-11T11:32:37.001Z</time>
      </trkpt>
      <trkpt lat="46.77749" lon="5.98271">
        <ele>810.083623</ele>
        <time>2020-10-11T11:32:41.448Z</time>
      </trkpt>
      <trkpt lat="46.77749" lon="5.9825">
        <ele>810.29713</ele>
        <time>2020-10-11T11:32:44.535Z</time>
      </trkpt>
      <trkpt lat="46.77747" lon="5.98233">
        <ele>810.478673</ele>
        <time>2020-10-11T11:32:47.628Z</time>
      </trkpt>
      <trkpt lat="46.77731" lon="5.98196">
        <ele>810.670184</ele>
        <time>2020-10-11T11:32:55.227Z</time>
      </trkpt>
      <trkpt lat="46.77655" lon="5.9806">
        <ele>810.230064</ele>
        <time>2020-10-11T11:33:19.049Z</time>
      </trkpt>
      <trkpt lat="46.77627" lon="5.98011">
        <ele>810.070635</ele>
        <time>2020-10-11T11:33:26.026Z</time>
      </trkpt>
      <trkpt lat="46.77595" lon="5.97952">
        <ele>809.42028</ele>
        <time>2020-10-11T11:33:34.748Z</time>
      </trkpt>
      <trkpt lat="46.77593" lon="5.97949">
        <ele>809.378967</ele>
        <time>2020-10-11T11:33:35.174Z</time>
      </trkpt>
      <trkpt lat="46.77568" lon="5.97904">
        <ele>808.875051</ele>
        <time>2020-10-11T11:33:41.810Z</time>
      </trkpt>
      <trkpt lat="46.77545" lon="5.97869">
        <ele>808.433883</ele>
        <time>2020-10-11T11:33:47.807Z</time>
      </trkpt>
      <trkpt lat="46.77534" lon="5.97854">
        <ele>808.237815</ele>
        <time>2020-10-11T11:33:50.442Z</time>
      </trkpt>
      <trkpt lat="46.77528" lon="5.97845">
        <ele>808.130668</ele>
        <time>2020-10-11T11:33:51.889Z</time>
      </trkpt>
      <trkpt lat="46.77517" lon="5.97833">
        <ele>807.948873</ele>
        <time>2020-10-11T11:33:53.942Z</time>
      </trkpt>
      <trkpt lat="46.77503" lon="5.97818">
        <ele>807.73266</ele>
        <time>2020-10-11T11:33:56.610Z</time>
      </trkpt>
      <trkpt lat="46.77489" lon="5.97808">
        <ele>807.319631</ele>
        <time>2020-10-11T11:33:59.024Z</time>
      </trkpt>
      <trkpt lat="46.77442" lon="5.9777">
        <ele>805.875249</ele>
        <time>2020-10-11T11:34:07.548Z</time>
      </trkpt>
      <trkpt lat="46.7742" lon="5.97748">
        <ele>805.172557</ele>
        <time>2020-10-11T11:34:11.650Z</time>
      </trkpt>
      <trkpt lat="46.77414" lon="5.97741">
        <ele>804.971655</ele>
        <time>2020-10-11T11:34:12.827Z</time>
      </trkpt>
      <trkpt lat="46.77404" lon="5.97724">
        <ele>804.577281</ele>
        <time>2020-10-11T11:34:15.054Z</time>
      </trkpt>
      <trkpt lat="46.77367" lon="5.97645">
        <ele>802.644047</ele>
        <time>2020-10-11T11:34:24.328Z</time>
      </trkpt>
      <trkpt lat="46.77358" lon="5.97581">
        <ele>799.682691</ele>
        <time>2020-10-11T11:34:30.164Z</time>
      </trkpt>
      <trkpt lat="46.7736" lon="5.97543">
        <ele>797.98591</ele>
        <time>2020-10-11T11:34:33.447Z</time>
      </trkpt>
      <trkpt lat="46.77388" lon="5.97386">
        <ele>790.662265</ele>
        <time>2020-10-11T11:34:47.296Z</time>
      </trkpt>
      <trkpt lat="46.77387" lon="5.97344">
        <ele>788.831028</ele>
        <time>2020-10-11T11:34:50.945Z</time>
      </trkpt>
      <trkpt lat="46.77375" lon="5.97291">
        <ele>786.409519</ele>
        <time>2020-10-11T11:34:55.780Z</time>
      </trkpt>
      <trkpt lat="46.77371" lon="5.97277">
        <ele>785.771883</ele>
        <time>2020-10-11T11:34:56.994Z</time>
      </trkpt>
      <trkpt lat="46.77345" lon="5.97193">
        <ele>781.778761</ele>
        <time>2020-10-11T11:35:05.144Z</time>
      </trkpt>
      <trkpt lat="46.77344" lon="5.97188">
        <ele>781.544075</ele>
        <time>2020-10-11T11:35:05.600Z</time>
      </trkpt>
      <trkpt lat="46.77327" lon="5.97125">
        <ele>779.214446</ele>
        <time>2020-10-11T11:35:11.804Z</time>
      </trkpt>
      <trkpt lat="46.77316" lon="5.97084">
        <ele>778.421342</ele>
        <time>2020-10-11T11:35:15.830Z</time>
      </trkpt>
      <trkpt lat="46.7731" lon="5.97047">
        <ele>777.719579</ele>
        <time>2020-10-11T11:35:19.789Z</time>
      </trkpt>
      <trkpt lat="46.77308" lon="5.97029">
        <ele>777.378659</ele>
        <time>2020-10-11T11:35:21.772Z</time>
      </trkpt>
      <trkpt lat="46.7729" lon="5.96843">
        <ele>774.774978</ele>
        <time>2020-10-11T11:35:41.937Z</time>
      </trkpt>
      <trkpt lat="46.77281" lon="5.96759">
        <ele>774.635248</ele>
        <time>2020-10-11T11:35:53.509Z</time>
      </trkpt>
      <trkpt lat="46.77275" lon="5.96696">
        <ele>774.530395</ele>
        <time>2020-10-11T11:36:03.772Z</time>
      </trkpt>
      <trkpt lat="46.77269" lon="5.96657">
        <ele>774.464474</ele>
        <time>2020-10-11T11:36:10.159Z</time>
      </trkpt>
      <trkpt lat="46.77266" lon="5.96646">
        <ele>774.445187</ele>
        <time>2020-10-11T11:36:12.398Z</time>
      </trkpt>
      <trkpt lat="46.77265" lon="5.9664">
        <ele>774.434073</ele>
        <time>2020-10-11T11:36:14.018Z</time>
      </trkpt>
      <trkpt lat="46.77244" lon="5.96593">
        <ele>774.237198</ele>
        <time>2020-10-11T11:36:22.937Z</time>
      </trkpt>
      <trkpt lat="46.77174" lon="5.96507">
        <ele>773.744348</ele>
        <time>2020-10-11T11:36:40.777Z</time>
      </trkpt>
      <trkpt lat="46.77148" lon="5.96484">
        <ele>773.577542</ele>
        <time>2020-10-11T11:36:46.114Z</time>
      </trkpt>
      <trkpt lat="46.77123" lon="5.96461">
        <ele>773.268378</ele>
        <time>2020-10-11T11:36:50.643Z</time>
      </trkpt>
      <trkpt lat="46.77075" lon="5.96422">
        <ele>771.605639</ele>
        <time>2020-10-11T11:36:58.853Z</time>
      </trkpt>
      <trkpt lat="46.76872" lon="5.96285">
        <ele>765.235813</ele>
        <time>2020-10-11T11:37:30.077Z</time>
      </trkpt>
      <trkpt lat="46.76847" lon="5.96265">
        <ele>764.473593</ele>
        <time>2020-10-11T11:37:34.309Z</time>
      </trkpt>
      <trkpt lat="46.76838" lon="5.96258">
        <ele>764.193496</ele>
        <time>2020-10-11T11:37:36.095Z</time>
      </trkpt>
      <trkpt lat="46.76803" lon="5.96215">
        <ele>763.106324</ele>
        <time>2020-10-11T11:37:43.477Z</time>
      </trkpt>
      <trkpt lat="46.76789" lon="5.96189">
        <ele>762.846804</ele>
        <time>2020-10-11T11:37:47.275Z</time>
      </trkpt>
      <trkpt lat="46.76751" lon="5.9611">
        <ele>762.072465</ele>
        <time>2020-10-11T11:37:58.762Z</time>
      </trkpt>
      <trkpt lat="46.7672" lon="5.96012">
        <ele>761.206102</ele>
        <time>2020-10-11T11:38:12.497Z</time>
      </trkpt>
      <trkpt lat="46.76639" lon="5.95756">
        <ele>756.245435</ele>
        <time>2020-10-11T11:38:40.903Z</time>
      </trkpt>
      <trkpt lat="46.7662" lon="5.95699">
        <ele>754.100719</ele>
        <time>2020-10-11T11:38:46.858Z</time>
      </trkpt>
      <trkpt lat="46.76607" lon="5.95628">
        <ele>751.621432</ele>
        <time>2020-10-11T11:38:53.662Z</time>
      </trkpt>
      <trkpt lat="46.76607" lon="5.95619">
        <ele>751.32142</ele>
        <time>2020-10-11T11:38:54.417Z</time>
      </trkpt>
      <trkpt lat="46.76604" lon="5.95618">
        <ele>751.162694</ele>
        <time>2020-10-11T11:38:55.004Z</time>
      </trkpt>
      <trkpt lat="46.76582" lon="5.95586">
        <ele>749.654114</ele>
        <time>2020-10-11T11:39:00.810Z</time>
      </trkpt>
      <trkpt lat="46.76568" lon="5.95556">
        <ele>748.424836</ele>
        <time>2020-10-11T11:39:05.442Z</time>
      </trkpt>
      <trkpt lat="46.76466" lon="5.95501">
        <ele>740.461922</ele>
        <time>2020-10-11T11:39:24.950Z</time>
      </trkpt>
      <trkpt lat="46.76305" lon="5.95412">
        <ele>725.105201</ele>
        <time>2020-10-11T11:39:54.829Z</time>
      </trkpt>
      <trkpt lat="46.76099" lon="5.95341">
        <ele>702.382526</ele>
        <time>2020-10-11T11:40:30.503Z</time>
      </trkpt>
      <trkpt lat="46.76038" lon="5.95326">
        <ele>695.432831</ele>
        <time>2020-10-11T11:40:40.895Z</time>
      </trkpt>
      <trkpt lat="46.75982" lon="5.95323">
        <ele>689.301431</ele>
        <time>2020-10-11T11:40:50.240Z</time>
      </trkpt>
      <trkpt lat="46.75967" lon="5.95314">
        <ele>687.467707</ele>
        <time>2020-10-11T11:40:53.047Z</time>
      </trkpt>
      <trkpt lat="46.76056" lon="5.95097">
        <ele>667.954684</ele>
        <time>2020-10-11T11:41:22.405Z</time>
      </trkpt>
      <trkpt lat="46.76192" lon="5.9488">
        <ele>644.636497</ele>
        <time>2020-10-11T11:41:56.050Z</time>
      </trkpt>
      <trkpt lat="46.76193" lon="5.94867">
        <ele>643.556105</ele>
        <time>2020-10-11T11:41:57.614Z</time>
      </trkpt>
      <trkpt lat="46.76192" lon="5.94854">
        <ele>642.603632</ele>
        <time>2020-10-11T11:41:58.967Z</time>
      </trkpt>
      <trkpt lat="46.76157" lon="5.94755">
        <ele>633.874402</ele>
        <time>2020-10-11T11:42:12.043Z</time>
      </trkpt>
      <trkpt lat="46.7607" lon="5.94524">
        <ele>622.973385</ele>
        <time>2020-10-11T11:42:45.416Z</time>
      </trkpt>
      <trkpt lat="46.76068" lon="5.94519">
        <ele>622.855213</ele>
        <time>2020-10-11T11:42:46.289Z</time>
      </trkpt>
      <trkpt lat="46.76037" lon="5.94437">
        <ele>620.975823</ele>
        <time>2020-10-11T11:42:59.938Z</time>
      </trkpt>
      <trkpt lat="46.76017" lon="5.94373">
        <ele>619.574423</ele>
        <time>2020-10-11T11:43:10.381Z</time>
      </trkpt>
      <trkpt lat="46.76009" lon="5.94353">
        <ele>619.096112</ele>
        <time>2020-10-11T11:43:14.026Z</time>
      </trkpt>
      <trkpt lat="46.76001" lon="5.9434">
        <ele>618.755095</ele>
        <time>2020-10-11T11:43:16.515Z</time>
      </trkpt>
      <trkpt lat="46.75883" lon="5.94026">
        <ele>611.082253</ele>
        <time>2020-10-11T11:44:07.113Z</time>
      </trkpt>
      <trkpt lat="46.7588" lon="5.94025">
        <ele>610.966132</ele>
        <time>2020-10-11T11:44:07.694Z</time>
      </trkpt>
      <trkpt lat="46.7588" lon="5.94013">
        <ele>610.676757</ele>
        <time>2020-10-11T11:44:08.873Z</time>
      </trkpt>
      <trkpt lat="46.75881" lon="5.93997">
        <ele>610.282228</ele>
        <time>2020-10-11T11:44:10.500Z</time>
      </trkpt>
      <trkpt lat="46.75884" lon="5.93989">
        <ele>610.054081</ele>
        <time>2020-10-11T11:44:11.439Z</time>
      </trkpt>
      <trkpt lat="46.75881" lon="5.93986">
        <ele>609.919073</ele>
        <time>2020-10-11T11:44:12.068Z</time>
      </trkpt>
      <trkpt lat="46.7587" lon="5.9397">
        <ele>609.373957</ele>
        <time>2020-10-11T11:44:15.071Z</time>
      </trkpt>
      <trkpt lat="46.75832" lon="5.93752">
        <ele>604.049613</ele>
        <time>2020-10-11T11:44:45.770Z</time>
      </trkpt>
      <trkpt lat="46.75829" lon="5.93737">
        <ele>603.715401</ele>
        <time>2020-10-11T11:44:47.957Z</time>
      </trkpt>
      <trkpt lat="46.75808" lon="5.93683">
        <ele>602.358544</ele>
        <time>2020-10-11T11:44:57.049Z</time>
      </trkpt>
      <trkpt lat="46.75745" lon="5.93538">
        <ele>598.494326</ele>
        <time>2020-10-11T11:45:21.233Z</time>
      </trkpt>
      <trkpt lat="46.75739" lon="5.93523">
        <ele>598.059752</ele>
        <time>2020-10-11T11:45:23.759Z</time>
      </trkpt>
      <trkpt lat="46.75707" lon="5.93453">
        <ele>596.065367</ele>
        <time>2020-10-11T11:45:35.247Z</time>
      </trkpt>
      <trkpt lat="46.75683" lon="5.93417">
        <ele>594.864553</ele>
        <time>2020-10-11T11:45:42.067Z</time>
      </trkpt>
      <trkpt lat="46.75641" lon="5.93379">
        <ele>593.300222</ele>
        <time>2020-10-11T11:45:51.898Z</time>
      </trkpt>
      <trkpt lat="46.75593" lon="5.93357">
        <ele>591.994218</ele>
        <time>2020-10-11T11:46:02.153Z</time>
      </trkpt>
      <trkpt lat="46.75538" lon="5.93336">
        <ele>590.520159</ele>
        <time>2020-10-11T11:46:14.907Z</time>
      </trkpt>
      <trkpt lat="46.75523" lon="5.93327">
        <ele>590.096029</ele>
        <time>2020-10-11T11:46:18.542Z</time>
      </trkpt>
      <trkpt lat="46.75423" lon="5.93243">
        <ele>585.98129</ele>
        <time>2020-10-11T11:46:43.225Z</time>
      </trkpt>
      <trkpt lat="46.75405" lon="5.93227">
        <ele>585.145001</ele>
        <time>2020-10-11T11:46:47.757Z</time>
      </trkpt>
      <trkpt lat="46.75355" lon="5.93185">
        <ele>582.823152</ele>
        <time>2020-10-11T11:46:58.441Z</time>
      </trkpt>
      <trkpt lat="46.75327" lon="5.93169">
        <ele>581.45944</ele>
        <time>2020-10-11T11:47:03.959Z</time>
      </trkpt>
      <trkpt lat="46.7527" lon="5.93157">
        <ele>577.70049</ele>
        <time>2020-10-11T11:47:14.523Z</time>
      </trkpt>
      <trkpt lat="46.75252" lon="5.93152">
        <ele>576.498489</ele>
        <time>2020-10-11T11:47:17.675Z</time>
      </trkpt>
      <trkpt lat="46.75231" lon="5.93143">
        <ele>575.056376</ele>
        <time>2020-10-11T11:47:21.725Z</time>
      </trkpt>
      <trkpt lat="46.75225" lon="5.93141">
        <ele>574.707486</ele>
        <time>2020-10-11T11:47:22.627Z</time>
      </trkpt>
      <trkpt lat="46.75219" lon="5.93137">
        <ele>574.266214</ele>
        <time>2020-10-11T11:47:23.798Z</time>
      </trkpt>
      <trkpt lat="46.75211" lon="5.93135">
        <ele>573.749348</ele>
        <time>2020-10-11T11:47:25.279Z</time>
      </trkpt>
      <trkpt lat="46.75203" lon="5.93136">
        <ele>573.173893</ele>
        <time>2020-10-11T11:47:26.951Z</time>
      </trkpt>
      <trkpt lat="46.752" lon="5.93137">
        <ele>573.023287</ele>
        <time>2020-10-11T11:47:27.389Z</time>
      </trkpt>
      <trkpt lat="46.75197" lon="5.93128">
        <ele>572.576084</ele>
        <time>2020-10-11T11:47:28.248Z</time>
      </trkpt>
      <trkpt lat="46.75165" lon="5.93077">
        <ele>569.685149</ele>
        <time>2020-10-11T11:47:34.310Z</time>
      </trkpt>
      <trkpt lat="46.75154" lon="5.93062">
        <ele>569.077919</ele>
        <time>2020-10-11T11:47:36.314Z</time>
      </trkpt>
      <trkpt lat="46.75135" lon="5.93032">
        <ele>567.919951</ele>
        <time>2020-10-11T11:47:39.896Z</time>
      </trkpt>
      <trkpt lat="46.75124" lon="5.93013">
        <ele>567.212777</ele>
        <time>2020-10-11T11:47:42.240Z</time>
      </trkpt>
      <trkpt lat="46.75119" lon="5.93005">
        <ele>566.905187</ele>
        <time>2020-10-11T11:47:43.203Z</time>
      </trkpt>
      <trkpt lat="46.75106" lon="5.92981">
        <ele>566.043325</ele>
        <time>2020-10-11T11:47:46.131Z</time>
      </trkpt>
      <trkpt lat="46.75076" lon="5.92929">
        <ele>564.09693</ele>
        <time>2020-10-11T11:47:52.947Z</time>
      </trkpt>
      <trkpt lat="46.7506" lon="5.92906">
        <ele>563.192637</ele>
        <time>2020-10-11T11:47:56.051Z</time>
      </trkpt>
      <trkpt lat="46.75017" lon="5.92826">
        <ele>561.006893</ele>
        <time>2020-10-11T11:48:06.145Z</time>
      </trkpt>
      <trkpt lat="46.74931" lon="5.92659">
        <ele>556.785139</ele>
        <time>2020-10-11T11:48:26.970Z</time>
      </trkpt>
      <trkpt lat="46.74884" lon="5.9257">
        <ele>554.319947</ele>
        <time>2020-10-11T11:48:37.861Z</time>
      </trkpt>
      <trkpt lat="46.74801" lon="5.92407">
        <ele>549.940468</ele>
        <time>2020-10-11T11:48:57.430Z</time>
      </trkpt>
      <trkpt lat="46.74787" lon="5.92378">
        <ele>549.191112</ele>
        <time>2020-10-11T11:49:00.911Z</time>
      </trkpt>
      <trkpt lat="46.74772" lon="5.9235">
        <ele>548.467326</ele>
        <time>2020-10-11T11:49:04.318Z</time>
      </trkpt>
      <trkpt lat="46.7476" lon="5.92325">
        <ele>547.819019</ele>
        <time>2020-10-11T11:49:07.388Z</time>
      </trkpt>
      <trkpt lat="46.74726" lon="5.9226">
        <ele>546.153899</ele>
        <time>2020-10-11T11:49:15.516Z</time>
      </trkpt>
      <trkpt lat="46.74719" lon="5.92234">
        <ele>545.844706</ele>
        <time>2020-10-11T11:49:18.532Z</time>
      </trkpt>
      <trkpt lat="46.74717" lon="5.92224">
        <ele>545.742729</ele>
        <time>2020-10-11T11:49:19.567Z</time>
      </trkpt>
      <trkpt lat="46.74717" lon="5.92212">
        <ele>545.615575</ele>
        <time>2020-10-11T11:49:20.762Z</time>
      </trkpt>
      <trkpt lat="46.74717" lon="5.92209">
        <ele>545.577096</ele>
        <time>2020-10-11T11:49:21.142Z</time>
      </trkpt>
      <trkpt lat="46.74718" lon="5.92205">
        <ele>545.538576</ele>
        <time>2020-10-11T11:49:21.522Z</time>
      </trkpt>
      <trkpt lat="46.74718" lon="5.92202">
        <ele>545.500181</ele>
        <time>2020-10-11T11:49:21.904Z</time>
      </trkpt>
      <trkpt lat="46.74717" lon="5.92197">
        <ele>545.451962</ele>
        <time>2020-10-11T11:49:22.376Z</time>
      </trkpt>
      <trkpt lat="46.74709" lon="5.92178">
        <ele>545.215114</ele>
        <time>2020-10-11T11:49:24.803Z</time>
      </trkpt>
      <trkpt lat="46.74707" lon="5.92176">
        <ele>545.167944</ele>
        <time>2020-10-11T11:49:25.276Z</time>
      </trkpt>
      <trkpt lat="46.74705" lon="5.92174">
        <ele>545.131073</ele>
        <time>2020-10-11T11:49:25.626Z</time>
      </trkpt>
      <trkpt lat="46.74698" lon="5.92172">
        <ele>545.020417</ele>
        <time>2020-10-11T11:49:26.713Z</time>
      </trkpt>
      <trkpt lat="46.74695" lon="5.92172">
        <ele>544.983046</ele>
        <time>2020-10-11T11:49:27.085Z</time>
      </trkpt>
      <trkpt lat="46.74689" lon="5.92167">
        <ele>544.881336</ele>
        <time>2020-10-11T11:49:28.116Z</time>
      </trkpt>
      <trkpt lat="46.74682" lon="5.92161">
        <ele>544.752555</ele>
        <time>2020-10-11T11:49:29.476Z</time>
      </trkpt>
      <trkpt lat="46.74675" lon="5.92155">
        <ele>544.623559</ele>
        <time>2020-10-11T11:49:30.846Z</time>
      </trkpt>
      <trkpt lat="46.74667" lon="5.92141">
        <ele>544.429591</ele>
        <time>2020-10-11T11:49:32.793Z</time>
      </trkpt>
      <trkpt lat="46.74623" lon="5.92055">
        <ele>543.345985</ele>
        <time>2020-10-11T11:49:45.508Z</time>
      </trkpt>
      <trkpt lat="46.74618" lon="5.92045">
        <ele>543.307554</ele>
        <time>2020-10-11T11:49:47.035Z</time>
      </trkpt>
      <trkpt lat="46.74608" lon="5.92024">
        <ele>543.224076</ele>
        <time>2020-10-11T11:49:50.421Z</time>
      </trkpt>
      <trkpt lat="46.74573" lon="5.91956">
        <ele>542.95155</ele>
        <time>2020-10-11T11:50:01.509Z</time>
      </trkpt>
      <trkpt lat="46.7455" lon="5.91912">
        <ele>542.775805</ele>
        <time>2020-10-11T11:50:08.755Z</time>
      </trkpt>
      <trkpt lat="46.74547" lon="5.91907">
        <ele>542.755654</ele>
        <time>2020-10-11T11:50:09.589Z</time>
      </trkpt>
      <trkpt lat="46.74513" lon="5.91837">
        <ele>542.486662</ele>
        <time>2020-10-11T11:50:20.929Z</time>
      </trkpt>
      <trkpt lat="46.74506" lon="5.91823">
        <ele>542.442806</ele>
        <time>2020-10-11T11:50:23.169Z</time>
      </trkpt>
      <trkpt lat="46.745" lon="5.91812">
        <ele>542.407922</ele>
        <time>2020-10-11T11:50:24.842Z</time>
      </trkpt>
      <trkpt lat="46.74484" lon="5.9178">
        <ele>542.303044</ele>
        <time>2020-10-11T11:50:30.199Z</time>
      </trkpt>
      <trkpt lat="46.74445" lon="5.91703">
        <ele>542.055835</ele>
        <time>2020-10-11T11:50:42.449Z</time>
      </trkpt>
      <trkpt lat="46.74438" lon="5.91691">
        <ele>542.01625</ele>
        <time>2020-10-11T11:50:44.418Z</time>
      </trkpt>
      <trkpt lat="46.7442" lon="5.91656">
        <ele>541.901082</ele>
        <time>2020-10-11T11:50:50.298Z</time>
      </trkpt>
      <trkpt lat="46.74399" lon="5.91614">
        <ele>541.751364</ele>
        <time>2020-10-11T11:50:57.201Z</time>
      </trkpt>
      <trkpt lat="46.74374" lon="5.91565">
        <ele>541.563839</ele>
        <time>2020-10-11T11:51:05.223Z</time>
      </trkpt>
      <trkpt lat="46.74369" lon="5.91555">
        <ele>541.524818</ele>
        <time>2020-10-11T11:51:06.897Z</time>
      </trkpt>
      <trkpt lat="46.74361" lon="5.91541">
        <ele>541.470087</ele>
        <time>2020-10-11T11:51:09.396Z</time>
      </trkpt>
      <trkpt lat="46.74358" lon="5.91535">
        <ele>541.449302</ele>
        <time>2020-10-11T11:51:10.359Z</time>
      </trkpt>
      <trkpt lat="46.74356" lon="5.9153">
        <ele>541.430305</ele>
        <time>2020-10-11T11:51:11.130Z</time>
      </trkpt>
      <trkpt lat="46.74341" lon="5.91501">
        <ele>541.317591</ele>
        <time>2020-10-11T11:51:15.885Z</time>
      </trkpt>
      <trkpt lat="46.74323" lon="5.91465">
        <ele>541.181073</ele>
        <time>2020-10-11T11:51:21.604Z</time>
      </trkpt>
      <trkpt lat="46.74318" lon="5.91454">
        <ele>541.142586</ele>
        <time>2020-10-11T11:51:23.404Z</time>
      </trkpt>
      <trkpt lat="46.74313" lon="5.91443">
        <ele>541.100808</ele>
        <time>2020-10-11T11:51:25.109Z</time>
      </trkpt>
      <trkpt lat="46.74312" lon="5.91434">
        <ele>541.072567</ele>
        <time>2020-10-11T11:51:26.152Z</time>
      </trkpt>
      <trkpt lat="46.74314" lon="5.91432">
        <ele>541.061877</ele>
        <time>2020-10-11T11:51:26.501Z</time>
      </trkpt>
      <trkpt lat="46.74316" lon="5.91426">
        <ele>541.042552</ele>
        <time>2020-10-11T11:51:27.196Z</time>
      </trkpt>
      <trkpt lat="46.74316" lon="5.91423">
        <ele>541.034399</ele>
        <time>2020-10-11T11:51:27.530Z</time>
      </trkpt>
      <trkpt lat="46.74315" lon="5.9142">
        <ele>541.028053</ele>
        <time>2020-10-11T11:51:27.819Z</time>
      </trkpt>
      <trkpt lat="46.74314" lon="5.91418">
        <ele>541.021909</ele>
        <time>2020-10-11T11:51:28.168Z</time>
      </trkpt>
      <trkpt lat="46.74313" lon="5.91417">
        <ele>541.015807</ele>
        <time>2020-10-11T11:51:28.530Z</time>
      </trkpt>
      <trkpt lat="46.74311" lon="5.91415">
        <ele>541.008247</ele>
        <time>2020-10-11T11:51:28.988Z</time>
      </trkpt>
      <trkpt lat="46.74304" lon="5.91418">
        <ele>540.98616</ele>
        <time>2020-10-11T11:51:30.139Z</time>
      </trkpt>
      <trkpt lat="46.74303" lon="5.9142">
        <ele>540.978425</ele>
        <time>2020-10-11T11:51:30.455Z</time>
      </trkpt>
      <trkpt lat="46.74296" lon="5.91413">
        <ele>540.949477</ele>
        <time>2020-10-11T11:51:31.756Z</time>
      </trkpt>
      <trkpt lat="46.7423" lon="5.91287">
        <ele>540.569533</ele>
        <time>2020-10-11T11:51:52.724Z</time>
      </trkpt>
      <trkpt lat="46.74226" lon="5.91277">
        <ele>540.540433</ele>
        <time>2020-10-11T11:51:54.109Z</time>
      </trkpt>
      <trkpt lat="46.74228" lon="5.91273">
        <ele>540.528954</ele>
        <time>2020-10-11T11:51:54.584Z</time>
      </trkpt>
      <trkpt lat="46.74226" lon="5.91256">
        <ele>540.487033</ele>
        <time>2020-10-11T11:51:58.493Z</time>
      </trkpt>
      <trkpt lat="46.74224" lon="5.91253">
        <ele>540.475736</ele>
        <time>2020-10-11T11:51:59.037Z</time>
      </trkpt>
      <trkpt lat="46.74221" lon="5.91252">
        <ele>540.466128</ele>
        <time>2020-10-11T11:51:59.480Z</time>
      </trkpt>
      <trkpt lat="46.74218" lon="5.91251">
        <ele>540.456328</ele>
        <time>2020-10-11T11:51:59.992Z</time>
      </trkpt>
      <trkpt lat="46.74216" lon="5.91252">
        <ele>540.446645</ele>
        <time>2020-10-11T11:52:00.443Z</time>
      </trkpt>
      <trkpt lat="46.74213" lon="5.91254">
        <ele>540.436791</ele>
        <time>2020-10-11T11:52:01.139Z</time>
      </trkpt>
      <trkpt lat="46.74209" lon="5.91269">
        <ele>540.424792</ele>
        <time>2020-10-11T11:52:02.846Z</time>
      </trkpt>
      <trkpt lat="46.7421" lon="5.91273">
        <ele>540.429305</ele>
        <time>2020-10-11T11:52:03.771Z</time>
      </trkpt>
      <trkpt lat="46.74202" lon="5.91282">
        <ele>540.445159</ele>
        <time>2020-10-11T11:52:06.914Z</time>
      </trkpt>
      <trkpt lat="46.74116" lon="5.91397">
        <ele>540.631937</ele>
        <time>2020-10-11T11:52:32.596Z</time>
      </trkpt>
      <trkpt lat="46.74061" lon="5.91473">
        <ele>540.252336</ele>
        <time>2020-10-11T11:52:49.519Z</time>
      </trkpt>
      <trkpt lat="46.74052" lon="5.91485">
        <ele>540.070557</ele>
        <time>2020-10-11T11:52:51.769Z</time>
      </trkpt>
      <trkpt lat="46.7405" lon="5.91488">
        <ele>540.019229</ele>
        <time>2020-10-11T11:52:52.535Z</time>
      </trkpt>
      <trkpt lat="46.74043" lon="5.91497">
        <ele>539.887187</ele>
        <time>2020-10-11T11:52:54.315Z</time>
      </trkpt>
      <trkpt lat="46.74036" lon="5.91487">
        <ele>539.732368</ele>
        <time>2020-10-11T11:52:55.840Z</time>
      </trkpt>
      <trkpt lat="46.74024" lon="5.91478">
        <ele>539.538558</ele>
        <time>2020-10-11T11:52:58.066Z</time>
      </trkpt>
      <trkpt lat="46.74014" lon="5.91471">
        <ele>539.36753</ele>
        <time>2020-10-11T11:53:00.320Z</time>
      </trkpt>
      <trkpt lat="46.74004" lon="5.91461">
        <ele>539.190031</ele>
        <time>2020-10-11T11:53:02.050Z</time>
      </trkpt>
      <trkpt lat="46.73988" lon="5.91423">
        <ele>538.737852</ele>
        <time>2020-10-11T11:53:06.996Z</time>
      </trkpt>
      <trkpt lat="46.73993" lon="5.91379">
        <ele>538.282932</ele>
        <time>2020-10-11T11:53:11.872Z</time>
      </trkpt>
      <trkpt lat="46.73996" lon="5.91369">
        <ele>538.173528</ele>
        <time>2020-10-11T11:53:12.853Z</time>
      </trkpt>
      <trkpt lat="46.74001" lon="5.9136">
        <ele>538.051004</ele>
        <time>2020-10-11T11:53:13.953Z</time>
      </trkpt>
      <trkpt lat="46.7402" lon="5.91343">
        <ele>537.315873</ele>
        <time>2020-10-11T11:53:17.089Z</time>
      </trkpt>
      <trkpt lat="46.74093" lon="5.91313">
        <ele>534.671301</ele>
        <time>2020-10-11T11:53:27.304Z</time>
      </trkpt>
      <trkpt lat="46.74117" lon="5.91282">
        <ele>533.557958</ele>
        <time>2020-10-11T11:53:31.734Z</time>
      </trkpt>
      <trkpt lat="46.74121" lon="5.91263">
        <ele>533.06978</ele>
        <time>2020-10-11T11:53:33.585Z</time>
      </trkpt>
      <trkpt lat="46.74121" lon="5.91249">
        <ele>532.737697</ele>
        <time>2020-10-11T11:53:34.890Z</time>
      </trkpt>
      <trkpt lat="46.74119" lon="5.91232">
        <ele>532.338474</ele>
        <time>2020-10-11T11:53:36.706Z</time>
      </trkpt>
      <trkpt lat="46.74116" lon="5.9122">
        <ele>532.020691</ele>
        <time>2020-10-11T11:53:37.978Z</time>
      </trkpt>
      <trkpt lat="46.74096" lon="5.91166">
        <ele>531.685419</ele>
        <time>2020-10-11T11:53:44.600Z</time>
      </trkpt>
      <trkpt lat="46.74093" lon="5.91155">
        <ele>531.669459</ele>
        <time>2020-10-11T11:53:45.693Z</time>
      </trkpt>
      <trkpt lat="46.74092" lon="5.91142">
        <ele>531.6502</ele>
        <time>2020-10-11T11:53:48.097Z</time>
      </trkpt>
      <trkpt lat="46.74107" lon="5.91078">
        <ele>531.554717</ele>
        <time>2020-10-11T11:53:55.861Z</time>
      </trkpt>
      <trkpt lat="46.74109" lon="5.91025">
        <ele>531.480815</ele>
        <time>2020-10-11T11:54:03.252Z</time>
      </trkpt>
      <trkpt lat="46.74108" lon="5.91012">
        <ele>531.461451</ele>
        <time>2020-10-11T11:54:06.293Z</time>
      </trkpt>
      <trkpt lat="46.74104" lon="5.91">
        <ele>531.443806</ele>
        <time>2020-10-11T11:54:08.419Z</time>
      </trkpt>
      <trkpt lat="46.741" lon="5.90991">
        <ele>531.42869</ele>
        <time>2020-10-11T11:54:11.836Z</time>
      </trkpt>
      <trkpt lat="46.74076" lon="5.90946">
        <ele>531.950775</ele>
        <time>2020-10-11T11:54:25.603Z</time>
      </trkpt>
      <trkpt lat="46.74044" lon="5.90875">
        <ele>533.687192</ele>
        <time>2020-10-11T11:54:48.314Z</time>
      </trkpt>
      <trkpt lat="46.74002" lon="5.9078">
        <ele>536.009744</ele>
        <time>2020-10-11T11:55:19.676Z</time>
      </trkpt>
      <trkpt lat="46.7398" lon="5.90715">
        <ele>537.161653</ele>
        <time>2020-10-11T11:55:37.833Z</time>
      </trkpt>
      <trkpt lat="46.73963" lon="5.90651">
        <ele>537.920632</ele>
        <time>2020-10-11T11:55:53.840Z</time>
      </trkpt>
      <trkpt lat="46.7392" lon="5.9052">
        <ele>539.519056</ele>
        <time>2020-10-11T11:56:21.453Z</time>
      </trkpt>
      <trkpt lat="46.7389" lon="5.9043">
        <ele>539.161607</ele>
        <time>2020-10-11T11:56:34.759Z</time>
      </trkpt>
      <trkpt lat="46.73884" lon="5.90408">
        <ele>539.020855</ele>
        <time>2020-10-11T11:56:37.653Z</time>
      </trkpt>
      <trkpt lat="46.7388" lon="5.90387">
        <ele>538.89831</ele>
        <time>2020-10-11T11:56:40.145Z</time>
      </trkpt>
      <trkpt lat="46.73872" lon="5.90332">
        <ele>538.575534</ele>
        <time>2020-10-11T11:56:46.522Z</time>
      </trkpt>
      <trkpt lat="46.73802" lon="5.89884">
        <ele>534.31884</ele>
        <time>2020-10-11T11:57:36.787Z</time>
      </trkpt>
      <trkpt lat="46.73757" lon="5.89594">
        <ele>532.835637</ele>
        <time>2020-10-11T11:58:14.686Z</time>
      </trkpt>
      <trkpt lat="46.73753" lon="5.89572">
        <ele>532.762672</ele>
        <time>2020-10-11T11:58:17.779Z</time>
      </trkpt>
      <trkpt lat="46.73739" lon="5.89482">
        <ele>532.501825</ele>
        <time>2020-10-11T11:58:29.382Z</time>
      </trkpt>
      <trkpt lat="46.73728" lon="5.89408">
        <ele>532.458988</ele>
        <time>2020-10-11T11:58:39.435Z</time>
      </trkpt>
      <trkpt lat="46.73724" lon="5.89381">
        <ele>532.442942</ele>
        <time>2020-10-11T11:58:43.382Z</time>
      </trkpt>
      <trkpt lat="46.7371" lon="5.89293">
        <ele>532.391772</ele>
        <time>2020-10-11T11:58:56.117Z</time>
      </trkpt>
      <trkpt lat="46.73703" lon="5.8925">
        <ele>532.367336</ele>
        <time>2020-10-11T11:59:02.317Z</time>
      </trkpt>
      <trkpt lat="46.73687" lon="5.89142">
        <ele>533.093675</ele>
        <time>2020-10-11T11:59:20.482Z</time>
      </trkpt>
      <trkpt lat="46.73685" lon="5.89132">
        <ele>533.16907</ele>
        <time>2020-10-11T11:59:22.210Z</time>
      </trkpt>
      <trkpt lat="46.73668" lon="5.89022">
        <ele>534.029455</ele>
        <time>2020-10-11T11:59:44.819Z</time>
      </trkpt>
      <trkpt lat="46.73665" lon="5.89004">
        <ele>534.164971</ele>
        <time>2020-10-11T11:59:49.062Z</time>
      </trkpt>
      <trkpt lat="46.73644" lon="5.88873">
        <ele>535.106849</ele>
        <time>2020-10-11T12:00:16.366Z</time>
      </trkpt>
      <trkpt lat="46.73639" lon="5.88845">
        <ele>535.304131</ele>
        <time>2020-10-11T12:00:21.950Z</time>
      </trkpt>
      <trkpt lat="46.73626" lon="5.88772">
        <ele>535.81523</ele>
        <time>2020-10-11T12:00:35.291Z</time>
      </trkpt>
      <trkpt lat="46.73622" lon="5.88746">
        <ele>535.996975</ele>
        <time>2020-10-11T12:00:39.508Z</time>
      </trkpt>
      <trkpt lat="46.73619" lon="5.88733">
        <ele>536.091526</ele>
        <time>2020-10-11T12:00:41.587Z</time>
      </trkpt>
      <trkpt lat="46.73618" lon="5.88722">
        <ele>536.107592</ele>
        <time>2020-10-11T12:00:43.167Z</time>
      </trkpt>
      <trkpt lat="46.73618" lon="5.88713">
        <ele>536.017427</ele>
        <time>2020-10-11T12:00:44.645Z</time>
      </trkpt>
      <trkpt lat="46.73618" lon="5.88699">
        <ele>535.888186</ele>
        <time>2020-10-11T12:00:46.405Z</time>
      </trkpt>
      <trkpt lat="46.73624" lon="5.88641">
        <ele>535.33751</ele>
        <time>2020-10-11T12:00:53.571Z</time>
      </trkpt>
      <trkpt lat="46.73618" lon="5.88543">
        <ele>534.415816</ele>
        <time>2020-10-11T12:01:04.271Z</time>
      </trkpt>
      <trkpt lat="46.73618" lon="5.88453">
        <ele>533.519705</ele>
        <time>2020-10-11T12:01:13.587Z</time>
      </trkpt>
      <trkpt lat="46.73615" lon="5.88452">
        <ele>533.461357</ele>
        <time>2020-10-11T12:01:13.958Z</time>
      </trkpt>
      <trkpt lat="46.73602" lon="5.88441">
        <ele>533.139902</ele>
        <time>2020-10-11T12:01:16.392Z</time>
      </trkpt>
      <trkpt lat="46.73573" lon="5.88394">
        <ele>532.268288</ele>
        <time>2020-10-11T12:01:22.822Z</time>
      </trkpt>
      <trkpt lat="46.73548" lon="5.88352">
        <ele>531.485416</ele>
        <time>2020-10-11T12:01:28.597Z</time>
      </trkpt>
      <trkpt lat="46.73511" lon="5.8829">
        <ele>530.333758</ele>
        <time>2020-10-11T12:01:37.177Z</time>
      </trkpt>
      <trkpt lat="46.73272" lon="5.87963">
        <ele>526.639347</ele>
        <time>2020-10-11T12:02:32.553Z</time>
      </trkpt>
      <trkpt lat="46.73224" lon="5.87897">
        <ele>526.112721</ele>
        <time>2020-10-11T12:02:44.871Z</time>
      </trkpt>
      <trkpt lat="46.73138" lon="5.87765">
        <ele>525.523031</ele>
        <time>2020-10-11T12:03:07.931Z</time>
      </trkpt>
      <trkpt lat="46.73106" lon="5.87719">
        <ele>525.386331</ele>
        <time>2020-10-11T12:03:16.441Z</time>
      </trkpt>
      <trkpt lat="46.73094" lon="5.87684">
        <ele>525.509798</ele>
        <time>2020-10-11T12:03:21.819Z</time>
      </trkpt>
      <trkpt lat="46.73088" lon="5.87614">
        <ele>525.7343</ele>
        <time>2020-10-11T12:03:31.874Z</time>
      </trkpt>
      <trkpt lat="46.73072" lon="5.87448">
        <ele>526.506659</ele>
        <time>2020-10-11T12:04:01.625Z</time>
      </trkpt>
      <trkpt lat="46.73071" lon="5.87433">
        <ele>526.68733</ele>
        <time>2020-10-11T12:04:04.256Z</time>
      </trkpt>
      <trkpt lat="46.73066" lon="5.87371">
        <ele>527.448217</ele>
        <time>2020-10-11T12:04:16.815Z</time>
      </trkpt>
      <trkpt lat="46.73064" lon="5.8736">
        <ele>527.584155</ele>
        <time>2020-10-11T12:04:19.491Z</time>
      </trkpt>
      <trkpt lat="46.73063" lon="5.87344">
        <ele>527.782452</ele>
        <time>2020-10-11T12:04:22.800Z</time>
      </trkpt>
      <trkpt lat="46.73066" lon="5.87315">
        <ele>528.147834</ele>
        <time>2020-10-11T12:04:29.286Z</time>
      </trkpt>
      <trkpt lat="46.73105" lon="5.87236">
        <ele>529.326071</ele>
        <time>2020-10-11T12:04:51.175Z</time>
      </trkpt>
      <trkpt lat="46.73109" lon="5.87192">
        <ele>530.129031</ele>
        <time>2020-10-11T12:05:01.935Z</time>
      </trkpt>
      <trkpt lat="46.73103" lon="5.87167">
        <ele>530.619732</ele>
        <time>2020-10-11T12:05:08.355Z</time>
      </trkpt>
      <trkpt lat="46.73091" lon="5.87137">
        <ele>531.273232</ele>
        <time>2020-10-11T12:05:16.285Z</time>
      </trkpt>
      <trkpt lat="46.73035" lon="5.87027">
        <ele>533.836662</ele>
        <time>2020-10-11T12:05:52.091Z</time>
      </trkpt>
      <trkpt lat="46.73011" lon="5.86948">
        <ele>534.791803</ele>
        <time>2020-10-11T12:06:13.894Z</time>
      </trkpt>
      <trkpt lat="46.73004" lon="5.86915">
        <ele>535.06914</ele>
        <time>2020-10-11T12:06:21.867Z</time>
      </trkpt>
      <trkpt lat="46.73" lon="5.86859">
        <ele>535.51337</ele>
        <time>2020-10-11T12:06:33.530Z</time>
      </trkpt>
      <trkpt lat="46.72996" lon="5.86823">
        <ele>535.802569</ele>
        <time>2020-10-11T12:06:40.848Z</time>
      </trkpt>
      <trkpt lat="46.72989" lon="5.86765">
        <ele>536.273452</ele>
        <time>2020-10-11T12:06:48.299Z</time>
      </trkpt>
      <trkpt lat="46.7297" lon="5.86601">
        <ele>534.491982</ele>
        <time>2020-10-11T12:07:05.612Z</time>
      </trkpt>
      <trkpt lat="46.72971" lon="5.86594">
        <ele>534.401863</ele>
        <time>2020-10-11T12:07:06.233Z</time>
      </trkpt>
      <trkpt lat="46.72971" lon="5.86579">
        <ele>534.217769</ele>
        <time>2020-10-11T12:07:07.557Z</time>
      </trkpt>
      <trkpt lat="46.72999" lon="5.86507">
        <ele>533.191555</ele>
        <time>2020-10-11T12:07:17.419Z</time>
      </trkpt>
      <trkpt lat="46.73002" lon="5.86491">
        <ele>533.223249</ele>
        <time>2020-10-11T12:07:19.022Z</time>
      </trkpt>
      <trkpt lat="46.73005" lon="5.8648">
        <ele>533.350889</ele>
        <time>2020-10-11T12:07:20.515Z</time>
      </trkpt>
      <trkpt lat="46.73005" lon="5.86449">
        <ele>533.677586</ele>
        <time>2020-10-11T12:07:25.566Z</time>
      </trkpt>
      <trkpt lat="46.72995" lon="5.86381">
        <ele>534.420558</ele>
        <time>2020-10-11T12:07:34.449Z</time>
      </trkpt>
      <trkpt lat="46.72959" lon="5.86309">
        <ele>535.376679</ele>
        <time>2020-10-11T12:07:56.112Z</time>
      </trkpt>
      <trkpt lat="46.72886" lon="5.86191">
        <ele>539.61027</ele>
        <time>2020-10-11T12:08:48.980Z</time>
      </trkpt>
      <trkpt lat="46.72886" lon="5.86151">
        <ele>540.996734</ele>
        <time>2020-10-11T12:09:02.368Z</time>
      </trkpt>
      <trkpt lat="46.7289" lon="5.86136">
        <ele>541.556879</ele>
        <time>2020-10-11T12:09:08.329Z</time>
      </trkpt>
      <trkpt lat="46.72913" lon="5.86087">
        <ele>543.540583</ele>
        <time>2020-10-11T12:09:27.580Z</time>
      </trkpt>
      <trkpt lat="46.72947" lon="5.86037">
        <ele>546.130537</ele>
        <time>2020-10-11T12:09:51.954Z</time>
      </trkpt>
      <trkpt lat="46.73018" lon="5.85995">
        <ele>550.477387</ele>
        <time>2020-10-11T12:10:33.307Z</time>
      </trkpt>
      <trkpt lat="46.73079" lon="5.8597">
        <ele>554.060918</ele>
        <time>2020-10-11T12:11:06.591Z</time>
      </trkpt>
      <trkpt lat="46.73123" lon="5.85975">
        <ele>556.686117</ele>
        <time>2020-10-11T12:11:29.705Z</time>
      </trkpt>
      <trkpt lat="46.7315" lon="5.85989">
        <ele>558.509109</ele>
        <time>2020-10-11T12:11:45.700Z</time>
      </trkpt>
      <trkpt lat="46.73157" lon="5.85983">
        <ele>559.012014</ele>
        <time>2020-10-11T12:11:50.115Z</time>
      </trkpt>
      <trkpt lat="46.73157" lon="5.85966">
        <ele>559.720446</ele>
        <time>2020-10-11T12:11:56.664Z</time>
      </trkpt>
      <trkpt lat="46.73101" lon="5.85934">
        <ele>563.516408</ele>
        <time>2020-10-11T12:12:30.763Z</time>
      </trkpt>
      <trkpt lat="46.72958" lon="5.8579">
        <ele>574.701319</ele>
        <time>2020-10-11T12:14:09.730Z</time>
      </trkpt>
      <trkpt lat="46.7282" lon="5.85623">
        <ele>586.451114</ele>
        <time>2020-10-11T12:15:54.679Z</time>
      </trkpt>
      <trkpt lat="46.72754" lon="5.85578">
        <ele>591.158433</ele>
        <time>2020-10-11T12:16:34.467Z</time>
      </trkpt>
      <trkpt lat="46.72534" lon="5.85483">
        <ele>607.928998</ele>
        <time>2020-10-11T12:18:42.926Z</time>
      </trkpt>
      <trkpt lat="46.72406" lon="5.85463">
        <ele>620.544679</ele>
        <time>2020-10-11T12:20:35.215Z</time>
      </trkpt>
      <trkpt lat="46.72379" lon="5.85423">
        <ele>624.555998</ele>
        <time>2020-10-11T12:21:10.846Z</time>
      </trkpt>
      <trkpt lat="46.72333" lon="5.85363">
        <ele>630.967665</ele>
        <time>2020-10-11T12:22:03.304Z</time>
      </trkpt>
      <trkpt lat="46.72289" lon="5.85305">
        <ele>637.141772</ele>
        <time>2020-10-11T12:22:43.968Z</time>
      </trkpt>
      <trkpt lat="46.72279" lon="5.85293">
        <ele>637.495659</ele>
        <time>2020-10-11T12:22:52.777Z</time>
      </trkpt>
      <trkpt lat="46.72245" lon="5.85263">
        <ele>638.646985</ele>
        <time>2020-10-11T12:23:14.798Z</time>
      </trkpt>
      <trkpt lat="46.72205" lon="5.85196">
        <ele>640.388576</ele>
        <time>2020-10-11T12:23:34.076Z</time>
      </trkpt>
      <trkpt lat="46.72142" lon="5.85121">
        <ele>642.29456</ele>
        <time>2020-10-11T12:23:49.793Z</time>
      </trkpt>
      <trkpt lat="46.72124" lon="5.85079">
        <ele>642.35484</ele>
        <time>2020-10-11T12:23:56.227Z</time>
      </trkpt>
      <trkpt lat="46.72111" lon="5.84997">
        <ele>642.456028</ele>
        <time>2020-10-11T12:24:07.393Z</time>
      </trkpt>
      <trkpt lat="46.72092" lon="5.84948">
        <ele>642.524023</ele>
        <time>2020-10-11T12:24:15.970Z</time>
      </trkpt>
      <trkpt lat="46.72042" lon="5.84893">
        <ele>643.236498</ele>
        <time>2020-10-11T12:24:32.560Z</time>
      </trkpt>
      <trkpt lat="46.72008" lon="5.84848">
        <ele>644.303339</ele>
        <time>2020-10-11T12:24:46.777Z</time>
      </trkpt>
      <trkpt lat="46.71924" lon="5.8472">
        <ele>647.269029</ele>
        <time>2020-10-11T12:25:32.059Z</time>
      </trkpt>
      <trkpt lat="46.7185" lon="5.84585">
        <ele>651.212017</ele>
        <time>2020-10-11T12:26:21.364Z</time>
      </trkpt>
      <trkpt lat="46.71726" lon="5.84429">
        <ele>655.393492</ele>
        <time>2020-10-11T12:27:21.348Z</time>
      </trkpt>
      <trkpt lat="46.71665" lon="5.84358">
        <ele>656.773198</ele>
        <time>2020-10-11T12:27:43.385Z</time>
      </trkpt>
      <trkpt lat="46.71629" lon="5.8434">
        <ele>656.779169</ele>
        <time>2020-10-11T12:27:52.809Z</time>
      </trkpt>
      <trkpt lat="46.71501" lon="5.8431">
        <ele>656.757856</ele>
        <time>2020-10-11T12:28:17.337Z</time>
      </trkpt>
      <trkpt lat="46.71454" lon="5.84274">
        <ele>656.268369</ele>
        <time>2020-10-11T12:28:26.369Z</time>
      </trkpt>
      <trkpt lat="46.71394" lon="5.84218">
        <ele>655.608566</ele>
        <time>2020-10-11T12:28:38.513Z</time>
      </trkpt>
      <trkpt lat="46.71343" lon="5.84206">
        <ele>655.137409</ele>
        <time>2020-10-11T12:28:47.225Z</time>
      </trkpt>
      <trkpt lat="46.71332" lon="5.84203">
        <ele>655.044484</ele>
        <time>2020-10-11T12:28:49.051Z</time>
      </trkpt>
      <trkpt lat="46.71144" lon="5.84038">
        <ele>653.182743</ele>
        <time>2020-10-11T12:29:27.795Z</time>
      </trkpt>
      <trkpt lat="46.71124" lon="5.84021">
        <ele>652.983564</ele>
        <time>2020-10-11T12:29:31.900Z</time>
      </trkpt>
      <trkpt lat="46.71064" lon="5.83974">
        <ele>652.406439</ele>
        <time>2020-10-11T12:29:43.630Z</time>
      </trkpt>
      <trkpt lat="46.71032" lon="5.83957">
        <ele>652.119692</ele>
        <time>2020-10-11T12:29:49.483Z</time>
      </trkpt>
      <trkpt lat="46.71007" lon="5.83954">
        <ele>652.023811</ele>
        <time>2020-10-11T12:29:53.952Z</time>
      </trkpt>
      <trkpt lat="46.70988" lon="5.83948">
        <ele>651.966691</ele>
        <time>2020-10-11T12:29:57.415Z</time>
      </trkpt>
      <trkpt lat="46.70982" lon="5.83942">
        <ele>651.944255</ele>
        <time>2020-10-11T12:29:58.780Z</time>
      </trkpt>
      <trkpt lat="46.70974" lon="5.83935">
        <ele>651.917439</ele>
        <time>2020-10-11T12:30:00.372Z</time>
      </trkpt>
      <trkpt lat="46.70966" lon="5.83925">
        <ele>651.886592</ele>
        <time>2020-10-11T12:30:02.281Z</time>
      </trkpt>
      <trkpt lat="46.70945" lon="5.83897">
        <ele>651.803449</ele>
        <time>2020-10-11T12:30:07.453Z</time>
      </trkpt>
      <trkpt lat="46.70909" lon="5.83846">
        <ele>651.654955</ele>
        <time>2020-10-11T12:30:18.359Z</time>
      </trkpt>
      <trkpt lat="46.70897" lon="5.8381">
        <ele>651.573542</ele>
        <time>2020-10-11T12:30:24.402Z</time>
      </trkpt>
      <trkpt lat="46.70887" lon="5.83797">
        <ele>651.599097</ele>
        <time>2020-10-11T12:30:27.411Z</time>
      </trkpt>
      <trkpt lat="46.70841" lon="5.83771">
        <ele>651.872969</ele>
        <time>2020-10-11T12:30:38.636Z</time>
      </trkpt>
      <trkpt lat="46.70837" lon="5.83769">
        <ele>651.892432</ele>
        <time>2020-10-11T12:30:39.621Z</time>
      </trkpt>
      <trkpt lat="46.70858" lon="5.83708">
        <ele>652.149002</ele>
        <time>2020-10-11T12:30:51.396Z</time>
      </trkpt>
      <trkpt lat="46.70844" lon="5.8369">
        <ele>652.251617</ele>
        <time>2020-10-11T12:30:57.058Z</time>
      </trkpt>
      <trkpt lat="46.70827" lon="5.8363">
        <ele>652.495342</ele>
        <time>2020-10-11T12:31:11.995Z</time>
      </trkpt>
      <trkpt lat="46.70826" lon="5.83595">
        <ele>652.49724</ele>
        <time>2020-10-11T12:31:19.561Z</time>
      </trkpt>
      <trkpt lat="46.70863" lon="5.83491">
        <ele>652.219895</ele>
        <time>2020-10-11T12:31:42.487Z</time>
      </trkpt>
      <trkpt lat="46.70863" lon="5.83453">
        <ele>652.130788</ele>
        <time>2020-10-11T12:31:49.161Z</time>
      </trkpt>
      <trkpt lat="46.70872" lon="5.83428">
        <ele>652.063526</ele>
        <time>2020-10-11T12:31:54.052Z</time>
      </trkpt>
      <trkpt lat="46.7086" lon="5.83422">
        <ele>652.021909</ele>
        <time>2020-10-11T12:31:57.040Z</time>
      </trkpt>
      <trkpt lat="46.70861" lon="5.83402">
        <ele>651.974457</ele>
        <time>2020-10-11T12:32:00.225Z</time>
      </trkpt>
      <trkpt lat="46.70858" lon="5.8336">
        <ele>651.723499</ele>
        <time>2020-10-11T12:32:07.190Z</time>
      </trkpt>
      <trkpt lat="46.70832" lon="5.83279">
        <ele>650.899123</ele>
        <time>2020-10-11T12:32:21.189Z</time>
      </trkpt>
      <trkpt lat="46.70845" lon="5.83233">
        <ele>650.44562</ele>
        <time>2020-10-11T12:32:29.201Z</time>
      </trkpt>
      <trkpt lat="46.70877" lon="5.83157">
        <ele>649.624891</ele>
        <time>2020-10-11T12:32:43.733Z</time>
      </trkpt>
      <trkpt lat="46.70882" lon="5.83143">
        <ele>649.476627</ele>
        <time>2020-10-11T12:32:45.994Z</time>
      </trkpt>
      <trkpt lat="46.70883" lon="5.83127">
        <ele>649.284776</ele>
        <time>2020-10-11T12:32:48.843Z</time>
      </trkpt>
      <trkpt lat="46.70879" lon="5.83102">
        <ele>648.99069</ele>
        <time>2020-10-11T12:32:53.012Z</time>
      </trkpt>
      <trkpt lat="46.70859" lon="5.8307">
        <ele>648.492764</ele>
        <time>2020-10-11T12:32:59.922Z</time>
      </trkpt>
      <trkpt lat="46.70852" lon="5.83056">
        <ele>648.287462</ele>
        <time>2020-10-11T12:33:02.702Z</time>
      </trkpt>
      <trkpt lat="46.70824" lon="5.83028">
        <ele>647.703215</ele>
        <time>2020-10-11T12:33:10.909Z</time>
      </trkpt>
      <trkpt lat="46.70813" lon="5.83018">
        <ele>647.494817</ele>
        <time>2020-10-11T12:33:13.678Z</time>
      </trkpt>
      <trkpt lat="46.70782" lon="5.82995">
        <ele>646.903204</ele>
        <time>2020-10-11T12:33:21.460Z</time>
      </trkpt>
      <trkpt lat="46.70689" lon="5.82938">
        <ele>643.657972</ele>
        <time>2020-10-11T12:33:42.623Z</time>
      </trkpt>
      <trkpt lat="46.70624" lon="5.82885">
        <ele>640.88659</ele>
        <time>2020-10-11T12:33:57.112Z</time>
      </trkpt>
      <trkpt lat="46.70515" lon="5.82803">
        <ele>635.624367</ele>
        <time>2020-10-11T12:34:20.360Z</time>
      </trkpt>
      <trkpt lat="46.7038" lon="5.8275">
        <ele>629.984959</ele>
        <time>2020-10-11T12:34:47.696Z</time>
      </trkpt>
      <trkpt lat="46.70351" lon="5.82748">
        <ele>629.034052</ele>
        <time>2020-10-11T12:34:53.573Z</time>
      </trkpt>
      <trkpt lat="46.70331" lon="5.82754">
        <ele>628.360752</ele>
        <time>2020-10-11T12:34:57.768Z</time>
      </trkpt>
      <trkpt lat="46.70278" lon="5.82798">
        <ele>626.370239</ele>
        <time>2020-10-11T12:35:10.442Z</time>
      </trkpt>
      <trkpt lat="46.70232" lon="5.82818">
        <ele>625.234575</ele>
        <time>2020-10-11T12:35:20.827Z</time>
      </trkpt>
      <trkpt lat="46.70143" lon="5.82826">
        <ele>623.56249</ele>
        <time>2020-10-11T12:35:40.560Z</time>
      </trkpt>
      <trkpt lat="46.70088" lon="5.82811">
        <ele>622.513893</ele>
        <time>2020-10-11T12:35:53.557Z</time>
      </trkpt>
      <trkpt lat="46.70068" lon="5.8279">
        <ele>622.290028</ele>
        <time>2020-10-11T12:35:59.173Z</time>
      </trkpt>
      <trkpt lat="46.70061" lon="5.82769">
        <ele>622.161105</ele>
        <time>2020-10-11T12:36:03.128Z</time>
      </trkpt>
      <trkpt lat="46.7005" lon="5.82738">
        <ele>621.965889</ele>
        <time>2020-10-11T12:36:09.012Z</time>
      </trkpt>
      <trkpt lat="46.70033" lon="5.82698">
        <ele>621.706809</ele>
        <time>2020-10-11T12:36:16.993Z</time>
      </trkpt>
      <trkpt lat="46.69992" lon="5.82648">
        <ele>621.281343</ele>
        <time>2020-10-11T12:36:30.535Z</time>
      </trkpt>
      <trkpt lat="46.69922" lon="5.82581">
        <ele>620.921232</ele>
        <time>2020-10-11T12:36:52.940Z</time>
      </trkpt>
      <trkpt lat="46.69916" lon="5.82576">
        <ele>620.909015</ele>
        <time>2020-10-11T12:36:54.775Z</time>
      </trkpt>
      <trkpt lat="46.69896" lon="5.82561">
        <ele>620.866509</ele>
        <time>2020-10-11T12:37:01.155Z</time>
      </trkpt>
      <trkpt lat="46.69755" lon="5.82506">
        <ele>620.820565</ele>
        <time>2020-10-11T12:37:41.615Z</time>
      </trkpt>
      <trkpt lat="46.69674" lon="5.82455">
        <ele>621.081974</ele>
        <time>2020-10-11T12:38:07.126Z</time>
      </trkpt>
      <trkpt lat="46.69589" lon="5.82383">
        <ele>621.625548</ele>
        <time>2020-10-11T12:38:39.762Z</time>
      </trkpt>
      <trkpt lat="46.69546" lon="5.82375">
        <ele>621.962491</ele>
        <time>2020-10-11T12:38:54.643Z</time>
      </trkpt>
      <trkpt lat="46.69461" lon="5.82402">
        <ele>622.599838</ele>
        <time>2020-10-11T12:39:23.394Z</time>
      </trkpt>
      <trkpt lat="46.69422" lon="5.82392">
        <ele>622.369426</ele>
        <time>2020-10-11T12:39:35.025Z</time>
      </trkpt>
      <trkpt lat="46.69358" lon="5.82361">
        <ele>621.973011</ele>
        <time>2020-10-11T12:39:52.938Z</time>
      </trkpt>
      <trkpt lat="46.69181" lon="5.82351">
        <ele>620.582435</ele>
        <time>2020-10-11T12:40:33.730Z</time>
      </trkpt>
      <trkpt lat="46.69023" lon="5.82357">
        <ele>619.69578</ele>
        <time>2020-10-11T12:41:17.392Z</time>
      </trkpt>
      <trkpt lat="46.68993" lon="5.82352">
        <ele>619.616206</ele>
        <time>2020-10-11T12:41:26.278Z</time>
      </trkpt>
      <trkpt lat="46.68938" lon="5.82322">
        <ele>619.463894</ele>
        <time>2020-10-11T12:41:42.646Z</time>
      </trkpt>
      <trkpt lat="46.68917" lon="5.82316">
        <ele>619.127177</ele>
        <time>2020-10-11T12:41:47.689Z</time>
      </trkpt>
      <trkpt lat="46.68803" lon="5.82318">
        <ele>616.755538</ele>
        <time>2020-10-11T12:42:13.615Z</time>
      </trkpt>
      <trkpt lat="46.68779" lon="5.82313">
        <ele>616.241417</ele>
        <time>2020-10-11T12:42:18.497Z</time>
      </trkpt>
      <trkpt lat="46.68744" lon="5.82293">
        <ele>615.37009</ele>
        <time>2020-10-11T12:42:25.854Z</time>
      </trkpt>
      <trkpt lat="46.68702" lon="5.82274">
        <ele>614.099073</ele>
        <time>2020-10-11T12:42:34.627Z</time>
      </trkpt>
      <trkpt lat="46.6864" lon="5.82226">
        <ele>612.072392</ele>
        <time>2020-10-11T12:42:49.043Z</time>
      </trkpt>
      <trkpt lat="46.68622" lon="5.82209">
        <ele>611.444129</ele>
        <time>2020-10-11T12:42:53.630Z</time>
      </trkpt>
      <trkpt lat="46.68589" lon="5.82184">
        <ele>610.472692</ele>
        <time>2020-10-11T12:43:01.726Z</time>
      </trkpt>
      <trkpt lat="46.68561" lon="5.82171">
        <ele>610.287472</ele>
        <time>2020-10-11T12:43:08.246Z</time>
      </trkpt>
      <trkpt lat="46.68521" lon="5.82178">
        <ele>610.02488</ele>
        <time>2020-10-11T12:43:15.213Z</time>
      </trkpt>
      <trkpt lat="46.68492" lon="5.8218">
        <ele>609.839439</ele>
        <time>2020-10-11T12:43:20.716Z</time>
      </trkpt>
      <trkpt lat="46.6842" lon="5.82188">
        <ele>609.380795</ele>
        <time>2020-10-11T12:43:36.370Z</time>
      </trkpt>
      <trkpt lat="46.6841" lon="5.8219">
        <ele>609.383073</ele>
        <time>2020-10-11T12:43:38.888Z</time>
      </trkpt>
      <trkpt lat="46.68321" lon="5.82286">
        <ele>609.93987</ele>
        <time>2020-10-11T12:44:05.468Z</time>
      </trkpt>
      <trkpt lat="46.68218" lon="5.82424">
        <ele>610.26502</ele>
        <time>2020-10-11T12:44:38.572Z</time>
      </trkpt>
      <trkpt lat="46.68199" lon="5.82431">
        <ele>610.267706</ele>
        <time>2020-10-11T12:44:42.457Z</time>
      </trkpt>
      <trkpt lat="46.68191" lon="5.8243">
        <ele>610.268755</ele>
        <time>2020-10-11T12:44:44.533Z</time>
      </trkpt>
      <trkpt lat="46.68166" lon="5.82419">
        <ele>610.272476</ele>
        <time>2020-10-11T12:44:49.673Z</time>
      </trkpt>
      <trkpt lat="46.68143" lon="5.82414">
        <ele>610.275668</ele>
        <time>2020-10-11T12:44:54.401Z</time>
      </trkpt>
      <trkpt lat="46.6808" lon="5.82428">
        <ele>609.635928</ele>
        <time>2020-10-11T12:45:05.490Z</time>
      </trkpt>
      <trkpt lat="46.6805" lon="5.82428">
        <ele>609.120647</ele>
        <time>2020-10-11T12:45:10.373Z</time>
      </trkpt>
      <trkpt lat="46.68004" lon="5.82405">
        <ele>608.279737</ele>
        <time>2020-10-11T12:45:18.041Z</time>
      </trkpt>
      <trkpt lat="46.67988" lon="5.82391">
        <ele>607.955751</ele>
        <time>2020-10-11T12:45:20.939Z</time>
      </trkpt>
      <trkpt lat="46.67961" lon="5.82364">
        <ele>607.400071</ele>
        <time>2020-10-11T12:45:25.663Z</time>
      </trkpt>
      <trkpt lat="46.67904" lon="5.82294">
        <ele>605.541637</ele>
        <time>2020-10-11T12:45:36.534Z</time>
      </trkpt>
      <trkpt lat="46.6786" lon="5.82254">
        <ele>604.179974</ele>
        <time>2020-10-11T12:45:44.134Z</time>
      </trkpt>
      <trkpt lat="46.6785" lon="5.82248">
        <ele>603.892189</ele>
        <time>2020-10-11T12:45:45.650Z</time>
      </trkpt>
      <trkpt lat="46.6784" lon="5.82242">
        <ele>603.599391</ele>
        <time>2020-10-11T12:45:47.245Z</time>
      </trkpt>
      <trkpt lat="46.67798" lon="5.82241">
        <ele>602.489625</ele>
        <time>2020-10-11T12:45:53.547Z</time>
      </trkpt>
      <trkpt lat="46.67756" lon="5.82262">
        <ele>601.6108</ele>
        <time>2020-10-11T12:46:00.225Z</time>
      </trkpt>
      <trkpt lat="46.67653" lon="5.82363">
        <ele>599.187937</ele>
        <time>2020-10-11T12:46:19.414Z</time>
      </trkpt>
      <trkpt lat="46.67609" lon="5.82422">
        <ele>598.395293</ele>
        <time>2020-10-11T12:46:29.236Z</time>
      </trkpt>
      <trkpt lat="46.67579" lon="5.82451">
        <ele>597.975602</ele>
        <time>2020-10-11T12:46:35.306Z</time>
      </trkpt>
      <trkpt lat="46.67567" lon="5.82456">
        <ele>597.833702</ele>
        <time>2020-10-11T12:46:37.313Z</time>
      </trkpt>
      <trkpt lat="46.67555" lon="5.82454">
        <ele>597.69542</ele>
        <time>2020-10-11T12:46:39.324Z</time>
      </trkpt>
      <trkpt lat="46.67482" lon="5.82412">
        <ele>596.805241</ele>
        <time>2020-10-11T12:46:52.955Z</time>
      </trkpt>
      <trkpt lat="46.67455" lon="5.82402">
        <ele>596.591949</ele>
        <time>2020-10-11T12:46:57.765Z</time>
      </trkpt>
      <trkpt lat="46.67383" lon="5.82422">
        <ele>596.033689</ele>
        <time>2020-10-11T12:47:10.848Z</time>
      </trkpt>
      <trkpt lat="46.67312" lon="5.82398">
        <ele>595.482821</ele>
        <time>2020-10-11T12:47:23.943Z</time>
      </trkpt>
      <trkpt lat="46.67221" lon="5.82402">
        <ele>594.964433</ele>
        <time>2020-10-11T12:47:39.941Z</time>
      </trkpt>
      <trkpt lat="46.67154" lon="5.82394">
        <ele>594.578731</ele>
        <time>2020-10-11T12:47:52.856Z</time>
      </trkpt>
      <trkpt lat="46.67132" lon="5.8239">
        <ele>594.455441</ele>
        <time>2020-10-11T12:47:56.990Z</time>
      </trkpt>
      <trkpt lat="46.67113" lon="5.82388">
        <ele>594.343243</ele>
        <time>2020-10-11T12:48:00.712Z</time>
      </trkpt>
      <trkpt lat="46.67098" lon="5.82389">
        <ele>594.257379</ele>
        <time>2020-10-11T12:48:03.599Z</time>
      </trkpt>
      <trkpt lat="46.67073" lon="5.82393">
        <ele>594.115323</ele>
        <time>2020-10-11T12:48:08.189Z</time>
      </trkpt>
      <trkpt lat="46.67047" lon="5.82396">
        <ele>593.961769</ele>
        <time>2020-10-11T12:48:13.295Z</time>
      </trkpt>
      <trkpt lat="46.67036" lon="5.82396">
        <ele>593.902471</ele>
        <time>2020-10-11T12:48:15.111Z</time>
      </trkpt>
      <trkpt lat="46.67026" lon="5.82393">
        <ele>593.843429</ele>
        <time>2020-10-11T12:48:17.093Z</time>
      </trkpt>
      <trkpt lat="46.67006" lon="5.82364">
        <ele>593.680059</ele>
        <time>2020-10-11T12:48:22.235Z</time>
      </trkpt>
      <trkpt lat="46.66933" lon="5.82282">
        <ele>592.837631</ele>
        <time>2020-10-11T12:48:38.545Z</time>
      </trkpt>
      <trkpt lat="46.66883" lon="5.82248">
        <ele>592.162738</ele>
        <time>2020-10-11T12:48:47.311Z</time>
      </trkpt>
      <trkpt lat="46.66853" lon="5.82248">
        <ele>591.787837</ele>
        <time>2020-10-11T12:48:52.120Z</time>
      </trkpt>
      <trkpt lat="46.6681" lon="5.82287">
        <ele>591.182641</ele>
        <time>2020-10-11T12:49:00.511Z</time>
      </trkpt>
      <trkpt lat="46.66795" lon="5.82295">
        <ele>591.086868</ele>
        <time>2020-10-11T12:49:02.909Z</time>
      </trkpt>
      <trkpt lat="46.66783" lon="5.82305">
        <ele>590.99824</ele>
        <time>2020-10-11T12:49:05.505Z</time>
      </trkpt>
      <trkpt lat="46.66762" lon="5.82337">
        <ele>590.814924</ele>
        <time>2020-10-11T12:49:10.683Z</time>
      </trkpt>
      <trkpt lat="46.66758" lon="5.82341">
        <ele>590.784048</ele>
        <time>2020-10-11T12:49:11.652Z</time>
      </trkpt>
      <trkpt lat="46.66756" lon="5.82344">
        <ele>590.763713</ele>
        <time>2020-10-11T12:49:12.400Z</time>
      </trkpt>
      <trkpt lat="46.66663" lon="5.82441">
        <ele>590.128487</ele>
        <time>2020-10-11T12:49:33.651Z</time>
      </trkpt>
      <trkpt lat="46.6666" lon="5.82444">
        <ele>590.160417</ele>
        <time>2020-10-11T12:49:34.722Z</time>
      </trkpt>
      <trkpt lat="46.66654" lon="5.8245">
        <ele>590.230959</ele>
        <time>2020-10-11T12:49:36.433Z</time>
      </trkpt>
      <trkpt lat="46.66638" lon="5.82469">
        <ele>590.421464</ele>
        <time>2020-10-11T12:49:40.527Z</time>
      </trkpt>
      <trkpt lat="46.66626" lon="5.8248">
        <ele>590.548896</ele>
        <time>2020-10-11T12:49:43.902Z</time>
      </trkpt>
      <trkpt lat="46.66611" lon="5.82491">
        <ele>590.703158</ele>
        <time>2020-10-11T12:49:46.984Z</time>
      </trkpt>
      <trkpt lat="46.6657" lon="5.82508">
        <ele>591.091965</ele>
        <time>2020-10-11T12:49:55.807Z</time>
      </trkpt>
      <trkpt lat="46.66516" lon="5.82553">
        <ele>591.661436</ele>
        <time>2020-10-11T12:50:15.825Z</time>
      </trkpt>
      <trkpt lat="46.66469" lon="5.82571">
        <ele>592.75859</ele>
        <time>2020-10-11T12:50:34.659Z</time>
      </trkpt>
      <trkpt lat="46.66435" lon="5.82574">
        <ele>593.64287</ele>
        <time>2020-10-11T12:50:47.900Z</time>
      </trkpt>
      <trkpt lat="46.66408" lon="5.82579">
        <ele>594.336286</ele>
        <time>2020-10-11T12:50:58.830Z</time>
      </trkpt>
      <trkpt lat="46.6639" lon="5.82589">
        <ele>594.826067</ele>
        <time>2020-10-11T12:51:06.001Z</time>
      </trkpt>
      <trkpt lat="46.66375" lon="5.82612">
        <ele>595.364723</ele>
        <time>2020-10-11T12:51:12.036Z</time>
      </trkpt>
      <trkpt lat="46.6637" lon="5.82618">
        <ele>595.524818</ele>
        <time>2020-10-11T12:51:14.171Z</time>
      </trkpt>
      <trkpt lat="46.66366" lon="5.82622">
        <ele>595.652353</ele>
        <time>2020-10-11T12:51:16.407Z</time>
      </trkpt>
      <trkpt lat="46.66363" lon="5.82623">
        <ele>595.740552</ele>
        <time>2020-10-11T12:51:18.099Z</time>
      </trkpt>
      <trkpt lat="46.66358" lon="5.82625">
        <ele>595.858894</ele>
        <time>2020-10-11T12:51:20.584Z</time>
      </trkpt>
      <trkpt lat="46.66358" lon="5.82602">
        <ele>596.259258</ele>
        <time>2020-10-11T12:51:23.529Z</time>
      </trkpt>
      <trkpt lat="46.6637" lon="5.8247">
        <ele>595.196541</ele>
        <time>2020-10-11T12:51:49.551Z</time>
      </trkpt>
      <trkpt lat="46.66372" lon="5.82264">
        <ele>592.431097</ele>
        <time>2020-10-11T12:52:08.984Z</time>
      </trkpt>
      <trkpt lat="46.66367" lon="5.82222">
        <ele>591.484803</ele>
        <time>2020-10-11T12:52:13.019Z</time>
      </trkpt>
      <trkpt lat="46.66362" lon="5.82203">
        <ele>591.036988</ele>
        <time>2020-10-11T12:52:14.913Z</time>
      </trkpt>
      <trkpt lat="46.66356" lon="5.82185">
        <ele>590.600058</ele>
        <time>2020-10-11T12:52:16.772Z</time>
      </trkpt>
      <trkpt lat="46.66325" lon="5.82114">
        <ele>588.713359</ele>
        <time>2020-10-11T12:52:25.175Z</time>
      </trkpt>
      <trkpt lat="46.66289" lon="5.82074">
        <ele>588.871401</ele>
        <time>2020-10-11T12:52:32.122Z</time>
      </trkpt>
      <trkpt lat="46.6622" lon="5.82026">
        <ele>590.293082</ele>
        <time>2020-10-11T12:52:51.502Z</time>
      </trkpt>
      <trkpt lat="46.66205" lon="5.82">
        <ele>590.722434</ele>
        <time>2020-10-11T12:53:02.124Z</time>
      </trkpt>
      <trkpt lat="46.66198" lon="5.81971">
        <ele>591.110053</ele>
        <time>2020-10-11T12:53:09.554Z</time>
      </trkpt>
      <trkpt lat="46.66191" lon="5.81862">
        <ele>595.209239</ele>
        <time>2020-10-11T12:53:51.342Z</time>
      </trkpt>
      <trkpt lat="46.6619" lon="5.81852">
        <ele>595.692292</ele>
        <time>2020-10-11T12:53:58.124Z</time>
      </trkpt>
      <trkpt lat="46.66178" lon="5.81772">
        <ele>599.897208</ele>
        <time>2020-10-11T12:54:34.417Z</time>
      </trkpt>
      <trkpt lat="46.66132" lon="5.8161">
        <ele>607.77644</ele>
        <time>2020-10-11T12:55:56.818Z</time>
      </trkpt>
      <trkpt lat="46.6608" lon="5.81486">
        <ele>612.912532</ele>
        <time>2020-10-11T12:56:42.665Z</time>
      </trkpt>
      <trkpt lat="46.66061" lon="5.81438">
        <ele>614.48444</ele>
        <time>2020-10-11T12:56:56.253Z</time>
      </trkpt>
      <trkpt lat="46.66049" lon="5.81412">
        <ele>614.60897</ele>
        <time>2020-10-11T12:57:02.858Z</time>
      </trkpt>
      <trkpt lat="46.66038" lon="5.81391">
        <ele>614.714808</ele>
        <time>2020-10-11T12:57:07.310Z</time>
      </trkpt>
      <trkpt lat="46.66034" lon="5.8139">
        <ele>614.73595</ele>
        <time>2020-10-11T12:57:08.921Z</time>
      </trkpt>
      <trkpt lat="46.66003" lon="5.81383">
        <ele>614.919791</ele>
        <time>2020-10-11T12:57:16.117Z</time>
      </trkpt>
      <trkpt lat="46.6589" lon="5.81375">
        <ele>615.118026</ele>
        <time>2020-10-11T12:57:38.179Z</time>
      </trkpt>
      <trkpt lat="46.65792" lon="5.81382">
        <ele>613.09694</ele>
        <time>2020-10-11T12:57:54.081Z</time>
      </trkpt>
      <trkpt lat="46.65768" lon="5.81392">
        <ele>612.574125</ele>
        <time>2020-10-11T12:57:57.821Z</time>
      </trkpt>
      <trkpt lat="46.65728" lon="5.81408">
        <ele>611.66738</ele>
        <time>2020-10-11T12:58:03.497Z</time>
      </trkpt>
      <trkpt lat="46.65669" lon="5.81424">
        <ele>609.087515</ele>
        <time>2020-10-11T12:58:11.463Z</time>
      </trkpt>
      <trkpt lat="46.65612" lon="5.8145">
        <ele>606.479769</ele>
        <time>2020-10-11T12:58:19.438Z</time>
      </trkpt>
      <trkpt lat="46.65592" lon="5.81453">
        <ele>605.609378</ele>
        <time>2020-10-11T12:58:22.029Z</time>
      </trkpt>
      <trkpt lat="46.6554" lon="5.81456">
        <ele>603.717968</ele>
        <time>2020-10-11T12:58:29.141Z</time>
      </trkpt>
      <trkpt lat="46.65522" lon="5.81472">
        <ele>603.373144</ele>
        <time>2020-10-11T12:58:31.957Z</time>
      </trkpt>
      <trkpt lat="46.65485" lon="5.8157">
        <ele>602.118789</ele>
        <time>2020-10-11T12:58:43.398Z</time>
      </trkpt>
      <trkpt lat="46.65474" lon="5.81592">
        <ele>601.80924</ele>
        <time>2020-10-11T12:58:47.318Z</time>
      </trkpt>
      <trkpt lat="46.65468" lon="5.81594">
        <ele>601.716959</ele>
        <time>2020-10-11T12:58:48.420Z</time>
      </trkpt>
      <trkpt lat="46.65466" lon="5.81593">
        <ele>601.672759</ele>
        <time>2020-10-11T12:58:48.792Z</time>
      </trkpt>
      <trkpt lat="46.65449" lon="5.8167">
        <ele>601.467095</ele>
        <time>2020-10-11T12:59:03.828Z</time>
      </trkpt>
      <trkpt lat="46.6543" lon="5.81742">
        <ele>603.094359</ele>
        <time>2020-10-11T12:59:22.180Z</time>
      </trkpt>
      <trkpt lat="46.654" lon="5.81815">
        <ele>604.891765</ele>
        <time>2020-10-11T12:59:46.798Z</time>
      </trkpt>
      <trkpt lat="46.65383" lon="5.81852">
        <ele>605.833131</ele>
        <time>2020-10-11T13:00:00.289Z</time>
      </trkpt>
      <trkpt lat="46.6536" lon="5.81884">
        <ele>606.842394</ele>
        <time>2020-10-11T13:00:14.510Z</time>
      </trkpt>
      <trkpt lat="46.65243" lon="5.81956">
        <ele>611.136615</ele>
        <time>2020-10-11T13:01:07.206Z</time>
      </trkpt>
      <trkpt lat="46.65233" lon="5.81962">
        <ele>611.49927</ele>
        <time>2020-10-11T13:01:11.646Z</time>
      </trkpt>
      <trkpt lat="46.65222" lon="5.81971">
        <ele>611.904717</ele>
        <time>2020-10-11T13:01:15.557Z</time>
      </trkpt>
      <trkpt lat="46.65202" lon="5.81986">
        <ele>612.624715</ele>
        <time>2020-10-11T13:01:23.443Z</time>
      </trkpt>
      <trkpt lat="46.65187" lon="5.81999">
        <ele>612.624715</ele>
        <time>2020-10-11T13:01:28.445Z</time>
      </trkpt>
      <trkpt lat="46.65192" lon="5.82004">
        <ele>612.624715</ele>
        <time>2020-10-11T13:01:30.881Z</time>
      </trkpt>
      <trkpt lat="46.65223" lon="5.82015">
        <ele>612.624715</ele>
        <time>2020-10-11T13:01:43.234Z</time>
      </trkpt>
      <trkpt lat="46.65236" lon="5.82041">
        <ele>612.624715</ele>
        <time>2020-10-11T13:01:51.430Z</time>
      </trkpt>
      <trkpt lat="46.65239" lon="5.82064">
        <ele>612.624715</ele>
        <time>2020-10-11T13:01:57.456Z</time>
      </trkpt>
    </trkseg>
  </trk>
</gpx>